<?xml version="1.0" encoding="UTF-8" standalone="no" ?>
<gpx xmlns="http://www.topografix.com/GPX/1/1" xmlns:xsi="http://www.w3.org/2001/XMLSchema-instance" xsi:schemaLocation="http://www.topografix.com/GPX/1/1 http://www.topografix.com/GPX/1/1/gpx.xsd" version="1.1" creator="VisuGPX - https://www.visugpx.com">
  <metadata>
    <name>mercredi 25 mars 2026</name>
  </metadata>
  <trk>
    <name><![CDATA[Mercredi 25 mars 2026]]></name>
    <extensions>
      <line xmlns="http://www.topografix.com/GPX/gpx_style/0/2">
        <width>7</width>
      </line>
    </extensions>
    <trkseg>
      <trkpt lat="43.38307" lon="-1.65897">
        <ele>4</ele>
        <time>2026-03-06T17:30:31.000Z</time>
      </trkpt>
      <trkpt lat="43.38298" lon="-1.65877">
        <ele>4</ele>
        <time>2026-03-06T17:30:34.000Z</time>
      </trkpt>
      <trkpt lat="43.38234" lon="-1.65703">
        <ele>4</ele>
        <time>2026-03-06T17:30:59.000Z</time>
      </trkpt>
      <trkpt lat="43.38233" lon="-1.65687">
        <ele>4</ele>
        <time>2026-03-06T17:31:01.000Z</time>
      </trkpt>
      <trkpt lat="43.38236" lon="-1.65679">
        <ele>4</ele>
        <time>2026-03-06T17:31:03.000Z</time>
      </trkpt>
      <trkpt lat="43.38252" lon="-1.65655">
        <ele>4</ele>
        <time>2026-03-06T17:31:07.000Z</time>
      </trkpt>
      <trkpt lat="43.38351" lon="-1.65522">
        <ele>4</ele>
        <time>2026-03-06T17:31:31.000Z</time>
      </trkpt>
      <trkpt lat="43.38357" lon="-1.65509">
        <ele>4</ele>
        <time>2026-03-06T17:31:33.000Z</time>
      </trkpt>
      <trkpt lat="43.38352" lon="-1.65508">
        <ele>4</ele>
        <time>2026-03-06T17:31:34.000Z</time>
      </trkpt>
      <trkpt lat="43.38328" lon="-1.65473">
        <ele>4</ele>
        <time>2026-03-06T17:31:40.000Z</time>
      </trkpt>
      <trkpt lat="43.38325" lon="-1.65465">
        <ele>4</ele>
        <time>2026-03-06T17:31:42.000Z</time>
      </trkpt>
      <trkpt lat="43.38326" lon="-1.65462">
        <ele>4</ele>
        <time>2026-03-06T17:31:42.000Z</time>
      </trkpt>
      <trkpt lat="43.38327" lon="-1.65457">
        <ele>4</ele>
        <time>2026-03-06T17:31:43.000Z</time>
      </trkpt>
      <trkpt lat="43.38331" lon="-1.65453">
        <ele>5</ele>
        <time>2026-03-06T17:31:44.000Z</time>
      </trkpt>
      <trkpt lat="43.3837" lon="-1.65376">
        <ele>5</ele>
        <time>2026-03-06T17:31:56.000Z</time>
      </trkpt>
      <trkpt lat="43.3839" lon="-1.65332">
        <ele>6</ele>
        <time>2026-03-06T17:32:02.000Z</time>
      </trkpt>
      <trkpt lat="43.38394" lon="-1.65317">
        <ele>8</ele>
        <time>2026-03-06T17:32:04.000Z</time>
      </trkpt>
      <trkpt lat="43.38392" lon="-1.65295">
        <ele>10</ele>
        <time>2026-03-06T17:32:07.000Z</time>
      </trkpt>
      <trkpt lat="43.38384" lon="-1.65266">
        <ele>13</ele>
        <time>2026-03-06T17:32:11.000Z</time>
      </trkpt>
      <trkpt lat="43.38365" lon="-1.65248">
        <ele>13</ele>
        <time>2026-03-06T17:32:15.000Z</time>
      </trkpt>
      <trkpt lat="43.3836" lon="-1.65239">
        <ele>13</ele>
        <time>2026-03-06T17:32:17.000Z</time>
      </trkpt>
      <trkpt lat="43.38356" lon="-1.65227">
        <ele>13</ele>
        <time>2026-03-06T17:32:19.000Z</time>
      </trkpt>
      <trkpt lat="43.38343" lon="-1.652">
        <ele>12</ele>
        <time>2026-03-06T17:32:23.000Z</time>
      </trkpt>
      <trkpt lat="43.38276" lon="-1.65016">
        <ele>9</ele>
        <time>2026-03-06T17:32:49.000Z</time>
      </trkpt>
      <trkpt lat="43.3826" lon="-1.64971">
        <ele>8</ele>
        <time>2026-03-06T17:32:56.000Z</time>
      </trkpt>
      <trkpt lat="43.38254" lon="-1.64945">
        <ele>8</ele>
        <time>2026-03-06T17:32:59.000Z</time>
      </trkpt>
      <trkpt lat="43.38252" lon="-1.64928">
        <ele>8</ele>
        <time>2026-03-06T17:33:02.000Z</time>
      </trkpt>
      <trkpt lat="43.38255" lon="-1.6488">
        <ele>9</ele>
        <time>2026-03-06T17:33:08.000Z</time>
      </trkpt>
      <trkpt lat="43.38279" lon="-1.64626">
        <ele>7</ele>
        <time>2026-03-06T17:33:41.000Z</time>
      </trkpt>
      <trkpt lat="43.3828" lon="-1.64595">
        <ele>8</ele>
        <time>2026-03-06T17:33:45.000Z</time>
      </trkpt>
      <trkpt lat="43.38277" lon="-1.64488">
        <ele>10</ele>
        <time>2026-03-06T17:33:59.000Z</time>
      </trkpt>
      <trkpt lat="43.38272" lon="-1.64424">
        <ele>8</ele>
        <time>2026-03-06T17:34:07.000Z</time>
      </trkpt>
      <trkpt lat="43.38264" lon="-1.64383">
        <ele>7</ele>
        <time>2026-03-06T17:34:13.000Z</time>
      </trkpt>
      <trkpt lat="43.3825" lon="-1.64341">
        <ele>5</ele>
        <time>2026-03-06T17:34:19.000Z</time>
      </trkpt>
      <trkpt lat="43.38232" lon="-1.64309">
        <ele>5</ele>
        <time>2026-03-06T17:34:24.000Z</time>
      </trkpt>
      <trkpt lat="43.38212" lon="-1.64283">
        <ele>5</ele>
        <time>2026-03-06T17:34:29.000Z</time>
      </trkpt>
      <trkpt lat="43.38155" lon="-1.6423">
        <ele>6</ele>
        <time>2026-03-06T17:34:41.000Z</time>
      </trkpt>
      <trkpt lat="43.3812" lon="-1.64193">
        <ele>6</ele>
        <time>2026-03-06T17:34:49.000Z</time>
      </trkpt>
      <trkpt lat="43.38056" lon="-1.64058">
        <ele>9</ele>
        <time>2026-03-06T17:35:10.000Z</time>
      </trkpt>
      <trkpt lat="43.37906" lon="-1.63917">
        <ele>6</ele>
        <time>2026-03-06T17:35:42.000Z</time>
      </trkpt>
      <trkpt lat="43.37776" lon="-1.63786">
        <ele>8</ele>
        <time>2026-03-06T17:36:11.000Z</time>
      </trkpt>
      <trkpt lat="43.37759" lon="-1.63774">
        <ele>8</ele>
        <time>2026-03-06T17:36:14.000Z</time>
      </trkpt>
      <trkpt lat="43.37738" lon="-1.63772">
        <ele>8</ele>
        <time>2026-03-06T17:36:18.000Z</time>
      </trkpt>
      <trkpt lat="43.37642" lon="-1.63776">
        <ele>6</ele>
        <time>2026-03-06T17:36:35.000Z</time>
      </trkpt>
      <trkpt lat="43.37604" lon="-1.63785">
        <ele>6</ele>
        <time>2026-03-06T17:36:42.000Z</time>
      </trkpt>
      <trkpt lat="43.37541" lon="-1.63786">
        <ele>5</ele>
        <time>2026-03-06T17:36:53.000Z</time>
      </trkpt>
      <trkpt lat="43.37526" lon="-1.63781">
        <ele>5</ele>
        <time>2026-03-06T17:36:56.000Z</time>
      </trkpt>
      <trkpt lat="43.37517" lon="-1.6379">
        <ele>4</ele>
        <time>2026-03-06T17:36:58.000Z</time>
      </trkpt>
      <trkpt lat="43.3751" lon="-1.63791">
        <ele>4</ele>
        <time>2026-03-06T17:36:59.000Z</time>
      </trkpt>
      <trkpt lat="43.37445" lon="-1.63794">
        <ele>4</ele>
        <time>2026-03-06T17:37:11.000Z</time>
      </trkpt>
      <trkpt lat="43.37409" lon="-1.63788">
        <ele>4</ele>
        <time>2026-03-06T17:37:17.000Z</time>
      </trkpt>
      <trkpt lat="43.37111" lon="-1.63806">
        <ele>5</ele>
        <time>2026-03-06T17:38:10.000Z</time>
      </trkpt>
      <trkpt lat="43.37085" lon="-1.63801">
        <ele>6</ele>
        <time>2026-03-06T17:38:15.000Z</time>
      </trkpt>
      <trkpt lat="43.37067" lon="-1.63794">
        <ele>6</ele>
        <time>2026-03-06T17:38:18.000Z</time>
      </trkpt>
      <trkpt lat="43.36753" lon="-1.63597">
        <ele>7</ele>
        <time>2026-03-06T17:39:20.000Z</time>
      </trkpt>
      <trkpt lat="43.36709" lon="-1.63582">
        <ele>8</ele>
        <time>2026-03-06T17:39:28.000Z</time>
      </trkpt>
      <trkpt lat="43.36675" lon="-1.63576">
        <ele>8</ele>
        <time>2026-03-06T17:39:34.000Z</time>
      </trkpt>
      <trkpt lat="43.36638" lon="-1.63578">
        <ele>7</ele>
        <time>2026-03-06T17:39:40.000Z</time>
      </trkpt>
      <trkpt lat="43.36595" lon="-1.63589">
        <ele>5</ele>
        <time>2026-03-06T17:39:48.000Z</time>
      </trkpt>
      <trkpt lat="43.36349" lon="-1.63669">
        <ele>7</ele>
        <time>2026-03-06T17:40:33.000Z</time>
      </trkpt>
      <trkpt lat="43.36308" lon="-1.63673">
        <ele>7</ele>
        <time>2026-03-06T17:40:40.000Z</time>
      </trkpt>
      <trkpt lat="43.36277" lon="-1.63671">
        <ele>6</ele>
        <time>2026-03-06T17:40:46.000Z</time>
      </trkpt>
      <trkpt lat="43.36255" lon="-1.63666">
        <ele>6</ele>
        <time>2026-03-06T17:40:50.000Z</time>
      </trkpt>
      <trkpt lat="43.36097" lon="-1.63603">
        <ele>5</ele>
        <time>2026-03-06T17:41:19.000Z</time>
      </trkpt>
      <trkpt lat="43.36075" lon="-1.63589">
        <ele>5</ele>
        <time>2026-03-06T17:41:23.000Z</time>
      </trkpt>
      <trkpt lat="43.36061" lon="-1.63577">
        <ele>5</ele>
        <time>2026-03-06T17:41:26.000Z</time>
      </trkpt>
      <trkpt lat="43.36039" lon="-1.63549">
        <ele>6</ele>
        <time>2026-03-06T17:41:32.000Z</time>
      </trkpt>
      <trkpt lat="43.36029" lon="-1.63531">
        <ele>6</ele>
        <time>2026-03-06T17:41:35.000Z</time>
      </trkpt>
      <trkpt lat="43.36014" lon="-1.63501">
        <ele>6</ele>
        <time>2026-03-06T17:41:39.000Z</time>
      </trkpt>
      <trkpt lat="43.35995" lon="-1.63453">
        <ele>8</ele>
        <time>2026-03-06T17:41:46.000Z</time>
      </trkpt>
      <trkpt lat="43.35984" lon="-1.63434">
        <ele>8</ele>
        <time>2026-03-06T17:41:50.000Z</time>
      </trkpt>
      <trkpt lat="43.35935" lon="-1.63358">
        <ele>9</ele>
        <time>2026-03-06T17:42:03.000Z</time>
      </trkpt>
      <trkpt lat="43.35921" lon="-1.63341">
        <ele>8</ele>
        <time>2026-03-06T17:42:06.000Z</time>
      </trkpt>
      <trkpt lat="43.35859" lon="-1.6328">
        <ele>9</ele>
        <time>2026-03-06T17:42:20.000Z</time>
      </trkpt>
      <trkpt lat="43.35789" lon="-1.63219">
        <ele>9</ele>
        <time>2026-03-06T17:42:34.000Z</time>
      </trkpt>
      <trkpt lat="43.35766" lon="-1.63203">
        <ele>8</ele>
        <time>2026-03-06T17:42:39.000Z</time>
      </trkpt>
      <trkpt lat="43.3575" lon="-1.63192">
        <ele>7</ele>
        <time>2026-03-06T17:42:42.000Z</time>
      </trkpt>
      <trkpt lat="43.35728" lon="-1.63183">
        <ele>7</ele>
        <time>2026-03-06T17:42:46.000Z</time>
      </trkpt>
      <trkpt lat="43.35673" lon="-1.63163">
        <ele>6</ele>
        <time>2026-03-06T17:42:56.000Z</time>
      </trkpt>
      <trkpt lat="43.35667" lon="-1.63163">
        <ele>6</ele>
        <time>2026-03-06T17:42:57.000Z</time>
      </trkpt>
      <trkpt lat="43.35663" lon="-1.63166">
        <ele>6</ele>
        <time>2026-03-06T17:42:58.000Z</time>
      </trkpt>
      <trkpt lat="43.35657" lon="-1.63166">
        <ele>6</ele>
        <time>2026-03-06T17:42:59.000Z</time>
      </trkpt>
      <trkpt lat="43.35638" lon="-1.63154">
        <ele>6</ele>
        <time>2026-03-06T17:43:03.000Z</time>
      </trkpt>
      <trkpt lat="43.35614" lon="-1.63148">
        <ele>5</ele>
        <time>2026-03-06T17:43:07.000Z</time>
      </trkpt>
      <trkpt lat="43.3544" lon="-1.63097">
        <ele>6</ele>
        <time>2026-03-06T17:43:39.000Z</time>
      </trkpt>
      <trkpt lat="43.35403" lon="-1.63082">
        <ele>7</ele>
        <time>2026-03-06T17:43:46.000Z</time>
      </trkpt>
      <trkpt lat="43.35386" lon="-1.63073">
        <ele>7</ele>
        <time>2026-03-06T17:43:49.000Z</time>
      </trkpt>
      <trkpt lat="43.3535" lon="-1.63044">
        <ele>7</ele>
        <time>2026-03-06T17:43:56.000Z</time>
      </trkpt>
      <trkpt lat="43.35306" lon="-1.62998">
        <ele>6</ele>
        <time>2026-03-06T17:44:06.000Z</time>
      </trkpt>
      <trkpt lat="43.35289" lon="-1.62974">
        <ele>6</ele>
        <time>2026-03-06T17:44:11.000Z</time>
      </trkpt>
      <trkpt lat="43.35268" lon="-1.62932">
        <ele>6</ele>
        <time>2026-03-06T17:44:17.000Z</time>
      </trkpt>
      <trkpt lat="43.35255" lon="-1.629">
        <ele>6</ele>
        <time>2026-03-06T17:44:22.000Z</time>
      </trkpt>
      <trkpt lat="43.35207" lon="-1.62759">
        <ele>8</ele>
        <time>2026-03-06T17:44:42.000Z</time>
      </trkpt>
      <trkpt lat="43.35118" lon="-1.62528">
        <ele>12</ele>
        <time>2026-03-06T17:45:16.000Z</time>
      </trkpt>
      <trkpt lat="43.35108" lon="-1.62493">
        <ele>11</ele>
        <time>2026-03-06T17:45:21.000Z</time>
      </trkpt>
      <trkpt lat="43.35103" lon="-1.62461">
        <ele>10</ele>
        <time>2026-03-06T17:45:25.000Z</time>
      </trkpt>
      <trkpt lat="43.35103" lon="-1.62402">
        <ele>11</ele>
        <time>2026-03-06T17:45:33.000Z</time>
      </trkpt>
      <trkpt lat="43.35109" lon="-1.62334">
        <ele>10</ele>
        <time>2026-03-06T17:45:42.000Z</time>
      </trkpt>
      <trkpt lat="43.35118" lon="-1.62308">
        <ele>11</ele>
        <time>2026-03-06T17:45:45.000Z</time>
      </trkpt>
      <trkpt lat="43.35181" lon="-1.62185">
        <ele>11</ele>
        <time>2026-03-06T17:46:05.000Z</time>
      </trkpt>
      <trkpt lat="43.35201" lon="-1.62157">
        <ele>12</ele>
        <time>2026-03-06T17:46:10.000Z</time>
      </trkpt>
      <trkpt lat="43.35214" lon="-1.62143">
        <ele>12</ele>
        <time>2026-03-06T17:46:13.000Z</time>
      </trkpt>
      <trkpt lat="43.3524" lon="-1.62126">
        <ele>14</ele>
        <time>2026-03-06T17:46:18.000Z</time>
      </trkpt>
      <trkpt lat="43.35407" lon="-1.6206">
        <ele>21</ele>
        <time>2026-03-06T17:46:49.000Z</time>
      </trkpt>
      <trkpt lat="43.35432" lon="-1.62045">
        <ele>21</ele>
        <time>2026-03-06T17:46:54.000Z</time>
      </trkpt>
      <trkpt lat="43.35486" lon="-1.62001">
        <ele>18</ele>
        <time>2026-03-06T17:47:05.000Z</time>
      </trkpt>
      <trkpt lat="43.35515" lon="-1.61963">
        <ele>18</ele>
        <time>2026-03-06T17:47:12.000Z</time>
      </trkpt>
      <trkpt lat="43.35787" lon="-1.61535">
        <ele>14</ele>
        <time>2026-03-06T17:48:25.000Z</time>
      </trkpt>
      <trkpt lat="43.35815" lon="-1.61503">
        <ele>12</ele>
        <time>2026-03-06T17:48:32.000Z</time>
      </trkpt>
      <trkpt lat="43.35913" lon="-1.61419">
        <ele>16</ele>
        <time>2026-03-06T17:48:53.000Z</time>
      </trkpt>
      <trkpt lat="43.35934" lon="-1.61396">
        <ele>16</ele>
        <time>2026-03-06T17:48:57.000Z</time>
      </trkpt>
      <trkpt lat="43.36033" lon="-1.61268">
        <ele>11</ele>
        <time>2026-03-06T17:49:21.000Z</time>
      </trkpt>
      <trkpt lat="43.36051" lon="-1.61238">
        <ele>11</ele>
        <time>2026-03-06T17:49:27.000Z</time>
      </trkpt>
      <trkpt lat="43.36075" lon="-1.61188">
        <ele>12</ele>
        <time>2026-03-06T17:49:34.000Z</time>
      </trkpt>
      <trkpt lat="43.36091" lon="-1.61139">
        <ele>13</ele>
        <time>2026-03-06T17:49:41.000Z</time>
      </trkpt>
      <trkpt lat="43.36101" lon="-1.61078">
        <ele>15</ele>
        <time>2026-03-06T17:49:49.000Z</time>
      </trkpt>
      <trkpt lat="43.36105" lon="-1.61018">
        <ele>17</ele>
        <time>2026-03-06T17:49:57.000Z</time>
      </trkpt>
      <trkpt lat="43.36113" lon="-1.60838">
        <ele>16</ele>
        <time>2026-03-06T17:50:20.000Z</time>
      </trkpt>
      <trkpt lat="43.36119" lon="-1.6075">
        <ele>18</ele>
        <time>2026-03-06T17:50:32.000Z</time>
      </trkpt>
      <trkpt lat="43.36118" lon="-1.60724">
        <ele>18</ele>
        <time>2026-03-06T17:50:35.000Z</time>
      </trkpt>
      <trkpt lat="43.36104" lon="-1.60585">
        <ele>18</ele>
        <time>2026-03-06T17:50:53.000Z</time>
      </trkpt>
      <trkpt lat="43.36102" lon="-1.60551">
        <ele>17</ele>
        <time>2026-03-06T17:50:58.000Z</time>
      </trkpt>
      <trkpt lat="43.36102" lon="-1.60518">
        <ele>17</ele>
        <time>2026-03-06T17:51:02.000Z</time>
      </trkpt>
      <trkpt lat="43.36103" lon="-1.60494">
        <ele>17</ele>
        <time>2026-03-06T17:51:05.000Z</time>
      </trkpt>
      <trkpt lat="43.36109" lon="-1.60462">
        <ele>16</ele>
        <time>2026-03-06T17:51:09.000Z</time>
      </trkpt>
      <trkpt lat="43.36126" lon="-1.60409">
        <ele>15</ele>
        <time>2026-03-06T17:51:17.000Z</time>
      </trkpt>
      <trkpt lat="43.36138" lon="-1.60384">
        <ele>15</ele>
        <time>2026-03-06T17:51:21.000Z</time>
      </trkpt>
      <trkpt lat="43.36153" lon="-1.60362">
        <ele>14</ele>
        <time>2026-03-06T17:51:25.000Z</time>
      </trkpt>
      <trkpt lat="43.36173" lon="-1.60338">
        <ele>13</ele>
        <time>2026-03-06T17:51:29.000Z</time>
      </trkpt>
      <trkpt lat="43.36211" lon="-1.60302">
        <ele>16</ele>
        <time>2026-03-06T17:51:38.000Z</time>
      </trkpt>
      <trkpt lat="43.36264" lon="-1.60257">
        <ele>19</ele>
        <time>2026-03-06T17:51:49.000Z</time>
      </trkpt>
      <trkpt lat="43.36299" lon="-1.60225">
        <ele>21</ele>
        <time>2026-03-06T17:51:56.000Z</time>
      </trkpt>
      <trkpt lat="43.36316" lon="-1.60201">
        <ele>20</ele>
        <time>2026-03-06T17:52:01.000Z</time>
      </trkpt>
      <trkpt lat="43.36336" lon="-1.60166">
        <ele>16</ele>
        <time>2026-03-06T17:52:06.000Z</time>
      </trkpt>
      <trkpt lat="43.36371" lon="-1.60073">
        <ele>15</ele>
        <time>2026-03-06T17:52:20.000Z</time>
      </trkpt>
      <trkpt lat="43.36387" lon="-1.60042">
        <ele>15</ele>
        <time>2026-03-06T17:52:25.000Z</time>
      </trkpt>
      <trkpt lat="43.36404" lon="-1.60015">
        <ele>14</ele>
        <time>2026-03-06T17:52:29.000Z</time>
      </trkpt>
      <trkpt lat="43.36418" lon="-1.59996">
        <ele>13</ele>
        <time>2026-03-06T17:52:33.000Z</time>
      </trkpt>
      <trkpt lat="43.36447" lon="-1.59965">
        <ele>14</ele>
        <time>2026-03-06T17:52:39.000Z</time>
      </trkpt>
      <trkpt lat="43.36476" lon="-1.5994">
        <ele>14</ele>
        <time>2026-03-06T17:52:45.000Z</time>
      </trkpt>
      <trkpt lat="43.36504" lon="-1.59919">
        <ele>13</ele>
        <time>2026-03-06T17:52:51.000Z</time>
      </trkpt>
      <trkpt lat="43.36533" lon="-1.59897">
        <ele>16</ele>
        <time>2026-03-06T17:52:57.000Z</time>
      </trkpt>
      <trkpt lat="43.36549" lon="-1.59873">
        <ele>17</ele>
        <time>2026-03-06T17:53:01.000Z</time>
      </trkpt>
      <trkpt lat="43.36562" lon="-1.59843">
        <ele>18</ele>
        <time>2026-03-06T17:53:06.000Z</time>
      </trkpt>
      <trkpt lat="43.36567" lon="-1.59809">
        <ele>18</ele>
        <time>2026-03-06T17:53:10.000Z</time>
      </trkpt>
      <trkpt lat="43.36588" lon="-1.59546">
        <ele>11</ele>
        <time>2026-03-06T17:53:45.000Z</time>
      </trkpt>
      <trkpt lat="43.36592" lon="-1.59482">
        <ele>9</ele>
        <time>2026-03-06T17:53:53.000Z</time>
      </trkpt>
      <trkpt lat="43.36589" lon="-1.5943">
        <ele>9</ele>
        <time>2026-03-06T17:54:00.000Z</time>
      </trkpt>
      <trkpt lat="43.36581" lon="-1.59376">
        <ele>9</ele>
        <time>2026-03-06T17:54:07.000Z</time>
      </trkpt>
      <trkpt lat="43.36538" lon="-1.59228">
        <ele>10</ele>
        <time>2026-03-06T17:54:27.000Z</time>
      </trkpt>
      <trkpt lat="43.36482" lon="-1.59044">
        <ele>9</ele>
        <time>2026-03-06T17:54:53.000Z</time>
      </trkpt>
      <trkpt lat="43.3646" lon="-1.58976">
        <ele>11</ele>
        <time>2026-03-06T17:55:03.000Z</time>
      </trkpt>
      <trkpt lat="43.36444" lon="-1.58941">
        <ele>12</ele>
        <time>2026-03-06T17:55:08.000Z</time>
      </trkpt>
      <trkpt lat="43.36427" lon="-1.58913">
        <ele>13</ele>
        <time>2026-03-06T17:55:13.000Z</time>
      </trkpt>
      <trkpt lat="43.36402" lon="-1.58885">
        <ele>17</ele>
        <time>2026-03-06T17:55:19.000Z</time>
      </trkpt>
      <trkpt lat="43.36308" lon="-1.58801">
        <ele>19</ele>
        <time>2026-03-06T17:55:38.000Z</time>
      </trkpt>
      <trkpt lat="43.3628" lon="-1.58766">
        <ele>18</ele>
        <time>2026-03-06T17:55:45.000Z</time>
      </trkpt>
      <trkpt lat="43.36257" lon="-1.58723">
        <ele>14</ele>
        <time>2026-03-06T17:55:52.000Z</time>
      </trkpt>
      <trkpt lat="43.36164" lon="-1.58429">
        <ele>12</ele>
        <time>2026-03-06T17:56:34.000Z</time>
      </trkpt>
      <trkpt lat="43.36139" lon="-1.58363">
        <ele>12</ele>
        <time>2026-03-06T17:56:43.000Z</time>
      </trkpt>
      <trkpt lat="43.36129" lon="-1.58341">
        <ele>12</ele>
        <time>2026-03-06T17:56:47.000Z</time>
      </trkpt>
      <trkpt lat="43.36109" lon="-1.58303">
        <ele>12</ele>
        <time>2026-03-06T17:56:53.000Z</time>
      </trkpt>
      <trkpt lat="43.36003" lon="-1.58148">
        <ele>11</ele>
        <time>2026-03-06T17:57:20.000Z</time>
      </trkpt>
      <trkpt lat="43.35894" lon="-1.57993">
        <ele>11</ele>
        <time>2026-03-06T17:57:48.000Z</time>
      </trkpt>
      <trkpt lat="43.35882" lon="-1.57972">
        <ele>11</ele>
        <time>2026-03-06T17:57:52.000Z</time>
      </trkpt>
      <trkpt lat="43.35852" lon="-1.57913">
        <ele>12</ele>
        <time>2026-03-06T17:58:01.000Z</time>
      </trkpt>
      <trkpt lat="43.35838" lon="-1.57869">
        <ele>11</ele>
        <time>2026-03-06T17:58:07.000Z</time>
      </trkpt>
      <trkpt lat="43.35807" lon="-1.5772">
        <ele>12</ele>
        <time>2026-03-06T17:58:27.000Z</time>
      </trkpt>
      <trkpt lat="43.35782" lon="-1.57586">
        <ele>13</ele>
        <time>2026-03-06T17:58:45.000Z</time>
      </trkpt>
      <trkpt lat="43.35779" lon="-1.57552">
        <ele>13</ele>
        <time>2026-03-06T17:58:49.000Z</time>
      </trkpt>
      <trkpt lat="43.35779" lon="-1.57526">
        <ele>13</ele>
        <time>2026-03-06T17:58:53.000Z</time>
      </trkpt>
      <trkpt lat="43.35774" lon="-1.5748">
        <ele>13</ele>
        <time>2026-03-06T17:58:59.000Z</time>
      </trkpt>
      <trkpt lat="43.3577" lon="-1.57476">
        <ele>13</ele>
        <time>2026-03-06T17:59:00.000Z</time>
      </trkpt>
      <trkpt lat="43.35768" lon="-1.57469">
        <ele>13</ele>
        <time>2026-03-06T17:59:01.000Z</time>
      </trkpt>
      <trkpt lat="43.35771" lon="-1.57459">
        <ele>13</ele>
        <time>2026-03-06T17:59:02.000Z</time>
      </trkpt>
      <trkpt lat="43.35767" lon="-1.57433">
        <ele>13</ele>
        <time>2026-03-06T17:59:06.000Z</time>
      </trkpt>
      <trkpt lat="43.35763" lon="-1.57418">
        <ele>13</ele>
        <time>2026-03-06T17:59:08.000Z</time>
      </trkpt>
      <trkpt lat="43.35745" lon="-1.57225">
        <ele>14</ele>
        <time>2026-03-06T17:59:33.000Z</time>
      </trkpt>
      <trkpt lat="43.3574" lon="-1.57189">
        <ele>15</ele>
        <time>2026-03-06T17:59:37.000Z</time>
      </trkpt>
      <trkpt lat="43.35733" lon="-1.5716">
        <ele>15</ele>
        <time>2026-03-06T17:59:41.000Z</time>
      </trkpt>
      <trkpt lat="43.35723" lon="-1.57132">
        <ele>15</ele>
        <time>2026-03-06T17:59:45.000Z</time>
      </trkpt>
      <trkpt lat="43.35625" lon="-1.56922">
        <ele>17</ele>
        <time>2026-03-06T18:00:18.000Z</time>
      </trkpt>
      <trkpt lat="43.35597" lon="-1.56872">
        <ele>17</ele>
        <time>2026-03-06T18:00:26.000Z</time>
      </trkpt>
      <trkpt lat="43.35588" lon="-1.56851">
        <ele>17</ele>
        <time>2026-03-06T18:00:29.000Z</time>
      </trkpt>
      <trkpt lat="43.35586" lon="-1.56839">
        <ele>17</ele>
        <time>2026-03-06T18:00:31.000Z</time>
      </trkpt>
      <trkpt lat="43.35585" lon="-1.56813">
        <ele>17</ele>
        <time>2026-03-06T18:00:34.000Z</time>
      </trkpt>
      <trkpt lat="43.35589" lon="-1.56787">
        <ele>17</ele>
        <time>2026-03-06T18:00:37.000Z</time>
      </trkpt>
      <trkpt lat="43.35608" lon="-1.56729">
        <ele>18</ele>
        <time>2026-03-06T18:00:46.000Z</time>
      </trkpt>
      <trkpt lat="43.35617" lon="-1.56692">
        <ele>19</ele>
        <time>2026-03-06T18:00:51.000Z</time>
      </trkpt>
      <trkpt lat="43.35625" lon="-1.56642">
        <ele>19</ele>
        <time>2026-03-06T18:00:57.000Z</time>
      </trkpt>
      <trkpt lat="43.35624" lon="-1.56615">
        <ele>19</ele>
        <time>2026-03-06T18:01:01.000Z</time>
      </trkpt>
      <trkpt lat="43.35619" lon="-1.56612">
        <ele>19</ele>
        <time>2026-03-06T18:01:02.000Z</time>
      </trkpt>
      <trkpt lat="43.35615" lon="-1.56601">
        <ele>19</ele>
        <time>2026-03-06T18:01:03.000Z</time>
      </trkpt>
      <trkpt lat="43.35617" lon="-1.56593">
        <ele>19</ele>
        <time>2026-03-06T18:01:05.000Z</time>
      </trkpt>
      <trkpt lat="43.35621" lon="-1.56588">
        <ele>19</ele>
        <time>2026-03-06T18:01:05.000Z</time>
      </trkpt>
      <trkpt lat="43.35624" lon="-1.56587">
        <ele>19</ele>
        <time>2026-03-06T18:01:06.000Z</time>
      </trkpt>
      <trkpt lat="43.35622" lon="-1.56558">
        <ele>19</ele>
        <time>2026-03-06T18:01:10.000Z</time>
      </trkpt>
      <trkpt lat="43.35622" lon="-1.56509">
        <ele>19</ele>
        <time>2026-03-06T18:01:16.000Z</time>
      </trkpt>
      <trkpt lat="43.35616" lon="-1.56498">
        <ele>18</ele>
        <time>2026-03-06T18:01:18.000Z</time>
      </trkpt>
      <trkpt lat="43.3561" lon="-1.56265">
        <ele>18</ele>
        <time>2026-03-06T18:01:48.000Z</time>
      </trkpt>
      <trkpt lat="43.3561" lon="-1.56201">
        <ele>19</ele>
        <time>2026-03-06T18:01:56.000Z</time>
      </trkpt>
      <trkpt lat="43.35614" lon="-1.56149">
        <ele>19</ele>
        <time>2026-03-06T18:02:03.000Z</time>
      </trkpt>
      <trkpt lat="43.35618" lon="-1.56125">
        <ele>18</ele>
        <time>2026-03-06T18:02:06.000Z</time>
      </trkpt>
      <trkpt lat="43.35635" lon="-1.56094">
        <ele>18</ele>
        <time>2026-03-06T18:02:11.000Z</time>
      </trkpt>
      <trkpt lat="43.35642" lon="-1.56085">
        <ele>17</ele>
        <time>2026-03-06T18:02:13.000Z</time>
      </trkpt>
      <trkpt lat="43.35648" lon="-1.5608">
        <ele>17</ele>
        <time>2026-03-06T18:02:14.000Z</time>
      </trkpt>
      <trkpt lat="43.35652" lon="-1.56086">
        <ele>18</ele>
        <time>2026-03-06T18:02:15.000Z</time>
      </trkpt>
      <trkpt lat="43.35721" lon="-1.56041">
        <ele>19</ele>
        <time>2026-03-06T18:02:29.000Z</time>
      </trkpt>
      <trkpt lat="43.3573" lon="-1.56032">
        <ele>19</ele>
        <time>2026-03-06T18:02:31.000Z</time>
      </trkpt>
      <trkpt lat="43.35734" lon="-1.56023">
        <ele>19</ele>
        <time>2026-03-06T18:02:32.000Z</time>
      </trkpt>
      <trkpt lat="43.35739" lon="-1.56006">
        <ele>18</ele>
        <time>2026-03-06T18:02:35.000Z</time>
      </trkpt>
      <trkpt lat="43.35737" lon="-1.55994">
        <ele>17</ele>
        <time>2026-03-06T18:02:36.000Z</time>
      </trkpt>
      <trkpt lat="43.35718" lon="-1.5597">
        <ele>16</ele>
        <time>2026-03-06T18:02:41.000Z</time>
      </trkpt>
      <trkpt lat="43.35682" lon="-1.55941">
        <ele>16</ele>
        <time>2026-03-06T18:02:48.000Z</time>
      </trkpt>
      <trkpt lat="43.35646" lon="-1.55913">
        <ele>16</ele>
        <time>2026-03-06T18:02:56.000Z</time>
      </trkpt>
      <trkpt lat="43.35632" lon="-1.55899">
        <ele>15</ele>
        <time>2026-03-06T18:02:59.000Z</time>
      </trkpt>
      <trkpt lat="43.35606" lon="-1.55857">
        <ele>15</ele>
        <time>2026-03-06T18:03:06.000Z</time>
      </trkpt>
      <trkpt lat="43.35592" lon="-1.55814">
        <ele>15</ele>
        <time>2026-03-06T18:03:12.000Z</time>
      </trkpt>
      <trkpt lat="43.35588" lon="-1.55791">
        <ele>16</ele>
        <time>2026-03-06T18:03:15.000Z</time>
      </trkpt>
      <trkpt lat="43.35585" lon="-1.55731">
        <ele>16</ele>
        <time>2026-03-06T18:03:23.000Z</time>
      </trkpt>
      <trkpt lat="43.35582" lon="-1.55556">
        <ele>14</ele>
        <time>2026-03-06T18:03:45.000Z</time>
      </trkpt>
      <trkpt lat="43.35581" lon="-1.55514">
        <ele>13</ele>
        <time>2026-03-06T18:03:51.000Z</time>
      </trkpt>
      <trkpt lat="43.35579" lon="-1.55487">
        <ele>14</ele>
        <time>2026-03-06T18:03:54.000Z</time>
      </trkpt>
      <trkpt lat="43.35574" lon="-1.55465">
        <ele>14</ele>
        <time>2026-03-06T18:03:57.000Z</time>
      </trkpt>
      <trkpt lat="43.35563" lon="-1.55444">
        <ele>15</ele>
        <time>2026-03-06T18:04:01.000Z</time>
      </trkpt>
      <trkpt lat="43.35552" lon="-1.55434">
        <ele>15</ele>
        <time>2026-03-06T18:04:03.000Z</time>
      </trkpt>
      <trkpt lat="43.35547" lon="-1.55433">
        <ele>15</ele>
        <time>2026-03-06T18:04:04.000Z</time>
      </trkpt>
      <trkpt lat="43.3554" lon="-1.55426">
        <ele>15</ele>
        <time>2026-03-06T18:04:05.000Z</time>
      </trkpt>
      <trkpt lat="43.35537" lon="-1.55419">
        <ele>15</ele>
        <time>2026-03-06T18:04:07.000Z</time>
      </trkpt>
      <trkpt lat="43.35537" lon="-1.55411">
        <ele>16</ele>
        <time>2026-03-06T18:04:08.000Z</time>
      </trkpt>
      <trkpt lat="43.35523" lon="-1.55388">
        <ele>16</ele>
        <time>2026-03-06T18:04:11.000Z</time>
      </trkpt>
      <trkpt lat="43.35509" lon="-1.55378">
        <ele>16</ele>
        <time>2026-03-06T18:04:14.000Z</time>
      </trkpt>
      <trkpt lat="43.35496" lon="-1.55373">
        <ele>16</ele>
        <time>2026-03-06T18:04:17.000Z</time>
      </trkpt>
      <trkpt lat="43.35483" lon="-1.5537">
        <ele>16</ele>
        <time>2026-03-06T18:04:19.000Z</time>
      </trkpt>
      <trkpt lat="43.35456" lon="-1.55371">
        <ele>16</ele>
        <time>2026-03-06T18:04:24.000Z</time>
      </trkpt>
      <trkpt lat="43.35398" lon="-1.5538">
        <ele>16</ele>
        <time>2026-03-06T18:04:34.000Z</time>
      </trkpt>
      <trkpt lat="43.35369" lon="-1.55382">
        <ele>16</ele>
        <time>2026-03-06T18:04:39.000Z</time>
      </trkpt>
      <trkpt lat="43.35338" lon="-1.55377">
        <ele>16</ele>
        <time>2026-03-06T18:04:45.000Z</time>
      </trkpt>
      <trkpt lat="43.35313" lon="-1.55363">
        <ele>17</ele>
        <time>2026-03-06T18:04:50.000Z</time>
      </trkpt>
      <trkpt lat="43.35293" lon="-1.55347">
        <ele>17</ele>
        <time>2026-03-06T18:04:54.000Z</time>
      </trkpt>
      <trkpt lat="43.35274" lon="-1.55324">
        <ele>18</ele>
        <time>2026-03-06T18:04:58.000Z</time>
      </trkpt>
      <trkpt lat="43.35261" lon="-1.55301">
        <ele>17</ele>
        <time>2026-03-06T18:05:02.000Z</time>
      </trkpt>
      <trkpt lat="43.35241" lon="-1.55255">
        <ele>17</ele>
        <time>2026-03-06T18:05:09.000Z</time>
      </trkpt>
      <trkpt lat="43.35211" lon="-1.55188">
        <ele>16</ele>
        <time>2026-03-06T18:05:19.000Z</time>
      </trkpt>
      <trkpt lat="43.35123" lon="-1.5499">
        <ele>18</ele>
        <time>2026-03-06T18:05:49.000Z</time>
      </trkpt>
      <trkpt lat="43.35117" lon="-1.54993">
        <ele>18</ele>
        <time>2026-03-06T18:05:50.000Z</time>
      </trkpt>
      <trkpt lat="43.3511" lon="-1.54994">
        <ele>18</ele>
        <time>2026-03-06T18:05:52.000Z</time>
      </trkpt>
      <trkpt lat="43.35104" lon="-1.54993">
        <ele>18</ele>
        <time>2026-03-06T18:05:53.000Z</time>
      </trkpt>
      <trkpt lat="43.35098" lon="-1.54988">
        <ele>18</ele>
        <time>2026-03-06T18:05:54.000Z</time>
      </trkpt>
      <trkpt lat="43.35091" lon="-1.54976">
        <ele>18</ele>
        <time>2026-03-06T18:05:56.000Z</time>
      </trkpt>
      <trkpt lat="43.3509" lon="-1.54959">
        <ele>19</ele>
        <time>2026-03-06T18:05:58.000Z</time>
      </trkpt>
      <trkpt lat="43.35092" lon="-1.54951">
        <ele>19</ele>
        <time>2026-03-06T18:05:59.000Z</time>
      </trkpt>
      <trkpt lat="43.35085" lon="-1.5492">
        <ele>20</ele>
        <time>2026-03-06T18:06:03.000Z</time>
      </trkpt>
      <trkpt lat="43.35076" lon="-1.54912">
        <ele>20</ele>
        <time>2026-03-06T18:06:05.000Z</time>
      </trkpt>
      <trkpt lat="43.34941" lon="-1.54841">
        <ele>23</ele>
        <time>2026-03-06T18:06:31.000Z</time>
      </trkpt>
      <trkpt lat="43.34909" lon="-1.54821">
        <ele>24</ele>
        <time>2026-03-06T18:06:37.000Z</time>
      </trkpt>
      <trkpt lat="43.34888" lon="-1.548">
        <ele>25</ele>
        <time>2026-03-06T18:06:42.000Z</time>
      </trkpt>
      <trkpt lat="43.34869" lon="-1.54775">
        <ele>25</ele>
        <time>2026-03-06T18:06:47.000Z</time>
      </trkpt>
      <trkpt lat="43.347" lon="-1.54509">
        <ele>28</ele>
        <time>2026-03-06T18:07:32.000Z</time>
      </trkpt>
      <trkpt lat="43.34688" lon="-1.54483">
        <ele>28</ele>
        <time>2026-03-06T18:07:36.000Z</time>
      </trkpt>
      <trkpt lat="43.3468" lon="-1.5445">
        <ele>29</ele>
        <time>2026-03-06T18:07:41.000Z</time>
      </trkpt>
      <trkpt lat="43.34678" lon="-1.54431">
        <ele>30</ele>
        <time>2026-03-06T18:07:43.000Z</time>
      </trkpt>
      <trkpt lat="43.34674" lon="-1.54364">
        <ele>32</ele>
        <time>2026-03-06T18:07:52.000Z</time>
      </trkpt>
      <trkpt lat="43.34673" lon="-1.54279">
        <ele>35</ele>
        <time>2026-03-06T18:08:03.000Z</time>
      </trkpt>
      <trkpt lat="43.34667" lon="-1.54235">
        <ele>36</ele>
        <time>2026-03-06T18:08:09.000Z</time>
      </trkpt>
      <trkpt lat="43.34661" lon="-1.5421">
        <ele>37</ele>
        <time>2026-03-06T18:08:12.000Z</time>
      </trkpt>
      <trkpt lat="43.3465" lon="-1.54178">
        <ele>38</ele>
        <time>2026-03-06T18:08:17.000Z</time>
      </trkpt>
      <trkpt lat="43.34639" lon="-1.54155">
        <ele>37</ele>
        <time>2026-03-06T18:08:20.000Z</time>
      </trkpt>
      <trkpt lat="43.3459" lon="-1.54058">
        <ele>34</ele>
        <time>2026-03-06T18:08:36.000Z</time>
      </trkpt>
      <trkpt lat="43.34579" lon="-1.54025">
        <ele>34</ele>
        <time>2026-03-06T18:08:40.000Z</time>
      </trkpt>
      <trkpt lat="43.34572" lon="-1.53997">
        <ele>34</ele>
        <time>2026-03-06T18:08:44.000Z</time>
      </trkpt>
      <trkpt lat="43.34568" lon="-1.53959">
        <ele>34</ele>
        <time>2026-03-06T18:08:49.000Z</time>
      </trkpt>
      <trkpt lat="43.34567" lon="-1.53905">
        <ele>35</ele>
        <time>2026-03-06T18:08:56.000Z</time>
      </trkpt>
      <trkpt lat="43.34564" lon="-1.53862">
        <ele>37</ele>
        <time>2026-03-06T18:09:02.000Z</time>
      </trkpt>
      <trkpt lat="43.34557" lon="-1.53827">
        <ele>38</ele>
        <time>2026-03-06T18:09:06.000Z</time>
      </trkpt>
      <trkpt lat="43.34531" lon="-1.53721">
        <ele>38</ele>
        <time>2026-03-06T18:09:21.000Z</time>
      </trkpt>
      <trkpt lat="43.34523" lon="-1.53674">
        <ele>39</ele>
        <time>2026-03-06T18:09:27.000Z</time>
      </trkpt>
      <trkpt lat="43.34488" lon="-1.53413">
        <ele>43</ele>
        <time>2026-03-06T18:10:01.000Z</time>
      </trkpt>
      <trkpt lat="43.34461" lon="-1.53096">
        <ele>41</ele>
        <time>2026-03-06T18:10:43.000Z</time>
      </trkpt>
      <trkpt lat="43.34451" lon="-1.53016">
        <ele>38</ele>
        <time>2026-03-06T18:10:53.000Z</time>
      </trkpt>
      <trkpt lat="43.34439" lon="-1.5296">
        <ele>36</ele>
        <time>2026-03-06T18:11:01.000Z</time>
      </trkpt>
      <trkpt lat="43.34431" lon="-1.52938">
        <ele>36</ele>
        <time>2026-03-06T18:11:04.000Z</time>
      </trkpt>
      <trkpt lat="43.34359" lon="-1.52813">
        <ele>35</ele>
        <time>2026-03-06T18:11:25.000Z</time>
      </trkpt>
      <trkpt lat="43.34344" lon="-1.52803">
        <ele>36</ele>
        <time>2026-03-06T18:11:28.000Z</time>
      </trkpt>
      <trkpt lat="43.34338" lon="-1.52805">
        <ele>36</ele>
        <time>2026-03-06T18:11:29.000Z</time>
      </trkpt>
      <trkpt lat="43.3433" lon="-1.52804">
        <ele>36</ele>
        <time>2026-03-06T18:11:30.000Z</time>
      </trkpt>
      <trkpt lat="43.34323" lon="-1.52797">
        <ele>36</ele>
        <time>2026-03-06T18:11:32.000Z</time>
      </trkpt>
      <trkpt lat="43.3432" lon="-1.52789">
        <ele>36</ele>
        <time>2026-03-06T18:11:33.000Z</time>
      </trkpt>
      <trkpt lat="43.3432" lon="-1.52774">
        <ele>36</ele>
        <time>2026-03-06T18:11:35.000Z</time>
      </trkpt>
      <trkpt lat="43.34322" lon="-1.52767">
        <ele>36</ele>
        <time>2026-03-06T18:11:36.000Z</time>
      </trkpt>
      <trkpt lat="43.34321" lon="-1.52745">
        <ele>36</ele>
        <time>2026-03-06T18:11:39.000Z</time>
      </trkpt>
      <trkpt lat="43.34316" lon="-1.52737">
        <ele>37</ele>
        <time>2026-03-06T18:11:40.000Z</time>
      </trkpt>
      <trkpt lat="43.3431" lon="-1.52726">
        <ele>38</ele>
        <time>2026-03-06T18:11:42.000Z</time>
      </trkpt>
      <trkpt lat="43.34244" lon="-1.52614">
        <ele>41</ele>
        <time>2026-03-06T18:12:00.000Z</time>
      </trkpt>
      <trkpt lat="43.34166" lon="-1.52489">
        <ele>41</ele>
        <time>2026-03-06T18:12:22.000Z</time>
      </trkpt>
      <trkpt lat="43.34149" lon="-1.52453">
        <ele>42</ele>
        <time>2026-03-06T18:12:27.000Z</time>
      </trkpt>
      <trkpt lat="43.33834" lon="-1.51711">
        <ele>44</ele>
        <time>2026-03-06T18:14:18.000Z</time>
      </trkpt>
      <trkpt lat="43.33772" lon="-1.51561">
        <ele>47</ele>
        <time>2026-03-06T18:14:41.000Z</time>
      </trkpt>
      <trkpt lat="43.33747" lon="-1.51498">
        <ele>47</ele>
        <time>2026-03-06T18:14:50.000Z</time>
      </trkpt>
      <trkpt lat="43.33643" lon="-1.51157">
        <ele>52</ele>
        <time>2026-03-06T18:15:38.000Z</time>
      </trkpt>
      <trkpt lat="43.33637" lon="-1.51133">
        <ele>52</ele>
        <time>2026-03-06T18:15:41.000Z</time>
      </trkpt>
      <trkpt lat="43.3363" lon="-1.51094">
        <ele>53</ele>
        <time>2026-03-06T18:15:46.000Z</time>
      </trkpt>
      <trkpt lat="43.33589" lon="-1.5077">
        <ele>60</ele>
        <time>2026-03-06T18:16:29.000Z</time>
      </trkpt>
      <trkpt lat="43.33586" lon="-1.50738">
        <ele>62</ele>
        <time>2026-03-06T18:16:33.000Z</time>
      </trkpt>
      <trkpt lat="43.33588" lon="-1.50703">
        <ele>65</ele>
        <time>2026-03-06T18:16:38.000Z</time>
      </trkpt>
      <trkpt lat="43.33594" lon="-1.50663">
        <ele>70</ele>
        <time>2026-03-06T18:16:43.000Z</time>
      </trkpt>
      <trkpt lat="43.33612" lon="-1.5057">
        <ele>76</ele>
        <time>2026-03-06T18:16:55.000Z</time>
      </trkpt>
      <trkpt lat="43.33612" lon="-1.50548">
        <ele>76</ele>
        <time>2026-03-06T18:16:58.000Z</time>
      </trkpt>
      <trkpt lat="43.33599" lon="-1.50474">
        <ele>76</ele>
        <time>2026-03-06T18:17:08.000Z</time>
      </trkpt>
      <trkpt lat="43.33579" lon="-1.50425">
        <ele>74</ele>
        <time>2026-03-06T18:17:15.000Z</time>
      </trkpt>
      <trkpt lat="43.33551" lon="-1.50375">
        <ele>76</ele>
        <time>2026-03-06T18:17:24.000Z</time>
      </trkpt>
      <trkpt lat="43.33498" lon="-1.50311">
        <ele>75</ele>
        <time>2026-03-06T18:17:36.000Z</time>
      </trkpt>
      <trkpt lat="43.33479" lon="-1.50283">
        <ele>76</ele>
        <time>2026-03-06T18:17:41.000Z</time>
      </trkpt>
      <trkpt lat="43.3346" lon="-1.50244">
        <ele>77</ele>
        <time>2026-03-06T18:17:47.000Z</time>
      </trkpt>
      <trkpt lat="43.33329" lon="-1.4987">
        <ele>89</ele>
        <time>2026-03-06T18:18:41.000Z</time>
      </trkpt>
      <trkpt lat="43.3332" lon="-1.49838">
        <ele>92</ele>
        <time>2026-03-06T18:18:45.000Z</time>
      </trkpt>
      <trkpt lat="43.33313" lon="-1.49796">
        <ele>93</ele>
        <time>2026-03-06T18:18:51.000Z</time>
      </trkpt>
      <trkpt lat="43.33312" lon="-1.49747">
        <ele>94</ele>
        <time>2026-03-06T18:18:57.000Z</time>
      </trkpt>
      <trkpt lat="43.33314" lon="-1.49693">
        <ele>96</ele>
        <time>2026-03-06T18:19:04.000Z</time>
      </trkpt>
      <trkpt lat="43.33336" lon="-1.49514">
        <ele>105</ele>
        <time>2026-03-06T18:19:28.000Z</time>
      </trkpt>
      <trkpt lat="43.33338" lon="-1.49433">
        <ele>104</ele>
        <time>2026-03-06T18:19:38.000Z</time>
      </trkpt>
      <trkpt lat="43.33336" lon="-1.49374">
        <ele>105</ele>
        <time>2026-03-06T18:19:46.000Z</time>
      </trkpt>
      <trkpt lat="43.33314" lon="-1.49049">
        <ele>120</ele>
        <time>2026-03-06T18:20:28.000Z</time>
      </trkpt>
      <trkpt lat="43.33309" lon="-1.49012">
        <ele>122</ele>
        <time>2026-03-06T18:20:33.000Z</time>
      </trkpt>
      <trkpt lat="43.33304" lon="-1.48993">
        <ele>124</ele>
        <time>2026-03-06T18:20:36.000Z</time>
      </trkpt>
      <trkpt lat="43.33294" lon="-1.48966">
        <ele>124</ele>
        <time>2026-03-06T18:20:39.000Z</time>
      </trkpt>
      <trkpt lat="43.33284" lon="-1.48952">
        <ele>125</ele>
        <time>2026-03-06T18:20:42.000Z</time>
      </trkpt>
      <trkpt lat="43.33279" lon="-1.48951">
        <ele>125</ele>
        <time>2026-03-06T18:20:43.000Z</time>
      </trkpt>
      <trkpt lat="43.33274" lon="-1.48947">
        <ele>125</ele>
        <time>2026-03-06T18:20:44.000Z</time>
      </trkpt>
      <trkpt lat="43.33272" lon="-1.48935">
        <ele>124</ele>
        <time>2026-03-06T18:20:46.000Z</time>
      </trkpt>
      <trkpt lat="43.33277" lon="-1.48926">
        <ele>124</ele>
        <time>2026-03-06T18:20:47.000Z</time>
      </trkpt>
      <trkpt lat="43.33283" lon="-1.48892">
        <ele>122</ele>
        <time>2026-03-06T18:20:52.000Z</time>
      </trkpt>
      <trkpt lat="43.33285" lon="-1.48866">
        <ele>122</ele>
        <time>2026-03-06T18:20:55.000Z</time>
      </trkpt>
      <trkpt lat="43.33289" lon="-1.48848">
        <ele>122</ele>
        <time>2026-03-06T18:20:57.000Z</time>
      </trkpt>
      <trkpt lat="43.33301" lon="-1.48815">
        <ele>121</ele>
        <time>2026-03-06T18:21:02.000Z</time>
      </trkpt>
      <trkpt lat="43.33316" lon="-1.48784">
        <ele>120</ele>
        <time>2026-03-06T18:21:07.000Z</time>
      </trkpt>
      <trkpt lat="43.33343" lon="-1.48738">
        <ele>117</ele>
        <time>2026-03-06T18:21:15.000Z</time>
      </trkpt>
      <trkpt lat="43.3336" lon="-1.48717">
        <ele>114</ele>
        <time>2026-03-06T18:21:19.000Z</time>
      </trkpt>
      <trkpt lat="43.334" lon="-1.48674">
        <ele>111</ele>
        <time>2026-03-06T18:21:28.000Z</time>
      </trkpt>
      <trkpt lat="43.33412" lon="-1.48655">
        <ele>110</ele>
        <time>2026-03-06T18:21:31.000Z</time>
      </trkpt>
      <trkpt lat="43.33422" lon="-1.48636">
        <ele>110</ele>
        <time>2026-03-06T18:21:34.000Z</time>
      </trkpt>
      <trkpt lat="43.3343" lon="-1.48616">
        <ele>111</ele>
        <time>2026-03-06T18:21:37.000Z</time>
      </trkpt>
      <trkpt lat="43.33436" lon="-1.48594">
        <ele>111</ele>
        <time>2026-03-06T18:21:40.000Z</time>
      </trkpt>
      <trkpt lat="43.3345" lon="-1.48502">
        <ele>107</ele>
        <time>2026-03-06T18:21:52.000Z</time>
      </trkpt>
      <trkpt lat="43.33458" lon="-1.48476">
        <ele>106</ele>
        <time>2026-03-06T18:21:56.000Z</time>
      </trkpt>
      <trkpt lat="43.33476" lon="-1.4843">
        <ele>103</ele>
        <time>2026-03-06T18:22:03.000Z</time>
      </trkpt>
      <trkpt lat="43.33532" lon="-1.48328">
        <ele>98</ele>
        <time>2026-03-06T18:22:19.000Z</time>
      </trkpt>
      <trkpt lat="43.3355" lon="-1.48289">
        <ele>98</ele>
        <time>2026-03-06T18:22:25.000Z</time>
      </trkpt>
      <trkpt lat="43.33562" lon="-1.48253">
        <ele>96</ele>
        <time>2026-03-06T18:22:30.000Z</time>
      </trkpt>
      <trkpt lat="43.33574" lon="-1.48188">
        <ele>94</ele>
        <time>2026-03-06T18:22:39.000Z</time>
      </trkpt>
      <trkpt lat="43.33619" lon="-1.47846">
        <ele>75</ele>
        <time>2026-03-06T18:23:24.000Z</time>
      </trkpt>
      <trkpt lat="43.33623" lon="-1.47822">
        <ele>74</ele>
        <time>2026-03-06T18:23:27.000Z</time>
      </trkpt>
      <trkpt lat="43.3363" lon="-1.47802">
        <ele>74</ele>
        <time>2026-03-06T18:23:30.000Z</time>
      </trkpt>
      <trkpt lat="43.33636" lon="-1.47788">
        <ele>73</ele>
        <time>2026-03-06T18:23:32.000Z</time>
      </trkpt>
      <trkpt lat="43.33649" lon="-1.47767">
        <ele>72</ele>
        <time>2026-03-06T18:23:36.000Z</time>
      </trkpt>
      <trkpt lat="43.33662" lon="-1.47753">
        <ele>71</ele>
        <time>2026-03-06T18:23:39.000Z</time>
      </trkpt>
      <trkpt lat="43.33678" lon="-1.4774">
        <ele>70</ele>
        <time>2026-03-06T18:23:42.000Z</time>
      </trkpt>
      <trkpt lat="43.33696" lon="-1.47733">
        <ele>69</ele>
        <time>2026-03-06T18:23:45.000Z</time>
      </trkpt>
      <trkpt lat="43.33717" lon="-1.47729">
        <ele>68</ele>
        <time>2026-03-06T18:23:49.000Z</time>
      </trkpt>
      <trkpt lat="43.33732" lon="-1.47729">
        <ele>68</ele>
        <time>2026-03-06T18:23:52.000Z</time>
      </trkpt>
      <trkpt lat="43.33815" lon="-1.47753">
        <ele>66</ele>
        <time>2026-03-06T18:24:07.000Z</time>
      </trkpt>
      <trkpt lat="43.33845" lon="-1.47758">
        <ele>65</ele>
        <time>2026-03-06T18:24:12.000Z</time>
      </trkpt>
      <trkpt lat="43.33885" lon="-1.47757">
        <ele>65</ele>
        <time>2026-03-06T18:24:19.000Z</time>
      </trkpt>
      <trkpt lat="43.33898" lon="-1.47752">
        <ele>65</ele>
        <time>2026-03-06T18:24:22.000Z</time>
      </trkpt>
      <trkpt lat="43.33921" lon="-1.47742">
        <ele>65</ele>
        <time>2026-03-06T18:24:26.000Z</time>
      </trkpt>
      <trkpt lat="43.33946" lon="-1.47725">
        <ele>67</ele>
        <time>2026-03-06T18:24:31.000Z</time>
      </trkpt>
      <trkpt lat="43.33969" lon="-1.47701">
        <ele>68</ele>
        <time>2026-03-06T18:24:36.000Z</time>
      </trkpt>
      <trkpt lat="43.34002" lon="-1.47662">
        <ele>67</ele>
        <time>2026-03-06T18:24:44.000Z</time>
      </trkpt>
      <trkpt lat="43.34031" lon="-1.47624">
        <ele>68</ele>
        <time>2026-03-06T18:24:51.000Z</time>
      </trkpt>
      <trkpt lat="43.34042" lon="-1.47604">
        <ele>68</ele>
        <time>2026-03-06T18:24:54.000Z</time>
      </trkpt>
      <trkpt lat="43.34071" lon="-1.47543">
        <ele>66</ele>
        <time>2026-03-06T18:25:04.000Z</time>
      </trkpt>
      <trkpt lat="43.34068" lon="-1.47534">
        <ele>66</ele>
        <time>2026-03-06T18:25:05.000Z</time>
      </trkpt>
      <trkpt lat="43.34069" lon="-1.47529">
        <ele>66</ele>
        <time>2026-03-06T18:25:05.000Z</time>
      </trkpt>
      <trkpt lat="43.34073" lon="-1.47521">
        <ele>65</ele>
        <time>2026-03-06T18:25:07.000Z</time>
      </trkpt>
      <trkpt lat="43.34079" lon="-1.47518">
        <ele>65</ele>
        <time>2026-03-06T18:25:08.000Z</time>
      </trkpt>
      <trkpt lat="43.34084" lon="-1.47468">
        <ele>64</ele>
        <time>2026-03-06T18:25:14.000Z</time>
      </trkpt>
      <trkpt lat="43.34083" lon="-1.47434">
        <ele>65</ele>
        <time>2026-03-06T18:25:19.000Z</time>
      </trkpt>
      <trkpt lat="43.3407" lon="-1.47328">
        <ele>67</ele>
        <time>2026-03-06T18:25:33.000Z</time>
      </trkpt>
      <trkpt lat="43.34071" lon="-1.47314">
        <ele>66</ele>
        <time>2026-03-06T18:25:35.000Z</time>
      </trkpt>
      <trkpt lat="43.34068" lon="-1.473">
        <ele>66</ele>
        <time>2026-03-06T18:25:36.000Z</time>
      </trkpt>
      <trkpt lat="43.34063" lon="-1.47293">
        <ele>66</ele>
        <time>2026-03-06T18:25:38.000Z</time>
      </trkpt>
      <trkpt lat="43.34062" lon="-1.47282">
        <ele>66</ele>
        <time>2026-03-06T18:25:39.000Z</time>
      </trkpt>
      <trkpt lat="43.34064" lon="-1.47274">
        <ele>65</ele>
        <time>2026-03-06T18:25:40.000Z</time>
      </trkpt>
      <trkpt lat="43.34061" lon="-1.47249">
        <ele>65</ele>
        <time>2026-03-06T18:25:44.000Z</time>
      </trkpt>
      <trkpt lat="43.34043" lon="-1.47206">
        <ele>65</ele>
        <time>2026-03-06T18:25:50.000Z</time>
      </trkpt>
      <trkpt lat="43.33978" lon="-1.47069">
        <ele>64</ele>
        <time>2026-03-06T18:26:11.000Z</time>
      </trkpt>
      <trkpt lat="43.3396" lon="-1.47043">
        <ele>63</ele>
        <time>2026-03-06T18:26:16.000Z</time>
      </trkpt>
      <trkpt lat="43.33897" lon="-1.46973">
        <ele>64</ele>
        <time>2026-03-06T18:26:30.000Z</time>
      </trkpt>
      <trkpt lat="43.33876" lon="-1.46955">
        <ele>65</ele>
        <time>2026-03-06T18:26:35.000Z</time>
      </trkpt>
      <trkpt lat="43.33788" lon="-1.46898">
        <ele>67</ele>
        <time>2026-03-06T18:26:52.000Z</time>
      </trkpt>
      <trkpt lat="43.33765" lon="-1.46879">
        <ele>67</ele>
        <time>2026-03-06T18:26:57.000Z</time>
      </trkpt>
      <trkpt lat="43.3374" lon="-1.46847">
        <ele>67</ele>
        <time>2026-03-06T18:27:03.000Z</time>
      </trkpt>
      <trkpt lat="43.33729" lon="-1.46825">
        <ele>67</ele>
        <time>2026-03-06T18:27:06.000Z</time>
      </trkpt>
      <trkpt lat="43.33719" lon="-1.46803">
        <ele>67</ele>
        <time>2026-03-06T18:27:10.000Z</time>
      </trkpt>
      <trkpt lat="43.33702" lon="-1.46745">
        <ele>66</ele>
        <time>2026-03-06T18:27:18.000Z</time>
      </trkpt>
      <trkpt lat="43.33697" lon="-1.46717">
        <ele>66</ele>
        <time>2026-03-06T18:27:21.000Z</time>
      </trkpt>
      <trkpt lat="43.33695" lon="-1.46682">
        <ele>65</ele>
        <time>2026-03-06T18:27:26.000Z</time>
      </trkpt>
      <trkpt lat="43.33699" lon="-1.46592">
        <ele>64</ele>
        <time>2026-03-06T18:27:38.000Z</time>
      </trkpt>
      <trkpt lat="43.33698" lon="-1.46555">
        <ele>64</ele>
        <time>2026-03-06T18:27:42.000Z</time>
      </trkpt>
      <trkpt lat="43.33681" lon="-1.46453">
        <ele>61</ele>
        <time>2026-03-06T18:27:56.000Z</time>
      </trkpt>
      <trkpt lat="43.33649" lon="-1.46259">
        <ele>56</ele>
        <time>2026-03-06T18:28:22.000Z</time>
      </trkpt>
      <trkpt lat="43.33637" lon="-1.46212">
        <ele>56</ele>
        <time>2026-03-06T18:28:28.000Z</time>
      </trkpt>
      <trkpt lat="43.33623" lon="-1.46179">
        <ele>56</ele>
        <time>2026-03-06T18:28:33.000Z</time>
      </trkpt>
      <trkpt lat="43.33583" lon="-1.46106">
        <ele>57</ele>
        <time>2026-03-06T18:28:45.000Z</time>
      </trkpt>
      <trkpt lat="43.33575" lon="-1.46087">
        <ele>57</ele>
        <time>2026-03-06T18:28:48.000Z</time>
      </trkpt>
      <trkpt lat="43.33557" lon="-1.46026">
        <ele>58</ele>
        <time>2026-03-06T18:28:56.000Z</time>
      </trkpt>
      <trkpt lat="43.33551" lon="-1.45999">
        <ele>58</ele>
        <time>2026-03-06T18:29:00.000Z</time>
      </trkpt>
      <trkpt lat="43.33547" lon="-1.45974">
        <ele>61</ele>
        <time>2026-03-06T18:29:03.000Z</time>
      </trkpt>
      <trkpt lat="43.33546" lon="-1.45957">
        <ele>62</ele>
        <time>2026-03-06T18:29:05.000Z</time>
      </trkpt>
      <trkpt lat="43.33549" lon="-1.45924">
        <ele>65</ele>
        <time>2026-03-06T18:29:10.000Z</time>
      </trkpt>
      <trkpt lat="43.33557" lon="-1.45894">
        <ele>67</ele>
        <time>2026-03-06T18:29:14.000Z</time>
      </trkpt>
      <trkpt lat="43.33573" lon="-1.45862">
        <ele>67</ele>
        <time>2026-03-06T18:29:19.000Z</time>
      </trkpt>
      <trkpt lat="43.33733" lon="-1.45627">
        <ele>63</ele>
        <time>2026-03-06T18:30:01.000Z</time>
      </trkpt>
      <trkpt lat="43.33767" lon="-1.45574">
        <ele>62</ele>
        <time>2026-03-06T18:30:10.000Z</time>
      </trkpt>
      <trkpt lat="43.33792" lon="-1.45523">
        <ele>63</ele>
        <time>2026-03-06T18:30:18.000Z</time>
      </trkpt>
      <trkpt lat="43.33826" lon="-1.45431">
        <ele>60</ele>
        <time>2026-03-06T18:30:31.000Z</time>
      </trkpt>
      <trkpt lat="43.33838" lon="-1.45406">
        <ele>59</ele>
        <time>2026-03-06T18:30:35.000Z</time>
      </trkpt>
      <trkpt lat="43.33858" lon="-1.45379">
        <ele>59</ele>
        <time>2026-03-06T18:30:40.000Z</time>
      </trkpt>
      <trkpt lat="43.33876" lon="-1.45358">
        <ele>60</ele>
        <time>2026-03-06T18:30:44.000Z</time>
      </trkpt>
      <trkpt lat="43.33958" lon="-1.45277">
        <ele>60</ele>
        <time>2026-03-06T18:31:02.000Z</time>
      </trkpt>
      <trkpt lat="43.33973" lon="-1.45255">
        <ele>60</ele>
        <time>2026-03-06T18:31:06.000Z</time>
      </trkpt>
      <trkpt lat="43.33983" lon="-1.4523">
        <ele>60</ele>
        <time>2026-03-06T18:31:10.000Z</time>
      </trkpt>
      <trkpt lat="43.33989" lon="-1.45195">
        <ele>60</ele>
        <time>2026-03-06T18:31:14.000Z</time>
      </trkpt>
      <trkpt lat="43.33992" lon="-1.45166">
        <ele>61</ele>
        <time>2026-03-06T18:31:18.000Z</time>
      </trkpt>
      <trkpt lat="43.33989" lon="-1.45157">
        <ele>61</ele>
        <time>2026-03-06T18:31:19.000Z</time>
      </trkpt>
      <trkpt lat="43.3399" lon="-1.45147">
        <ele>62</ele>
        <time>2026-03-06T18:31:21.000Z</time>
      </trkpt>
      <trkpt lat="43.33984" lon="-1.45122">
        <ele>63</ele>
        <time>2026-03-06T18:31:24.000Z</time>
      </trkpt>
      <trkpt lat="43.33866" lon="-1.44918">
        <ele>72</ele>
        <time>2026-03-06T18:31:58.000Z</time>
      </trkpt>
      <trkpt lat="43.33848" lon="-1.44879">
        <ele>73</ele>
        <time>2026-03-06T18:32:04.000Z</time>
      </trkpt>
      <trkpt lat="43.33842" lon="-1.44857">
        <ele>73</ele>
        <time>2026-03-06T18:32:07.000Z</time>
      </trkpt>
      <trkpt lat="43.33839" lon="-1.44838">
        <ele>73</ele>
        <time>2026-03-06T18:32:09.000Z</time>
      </trkpt>
      <trkpt lat="43.33838" lon="-1.44749">
        <ele>77</ele>
        <time>2026-03-06T18:32:21.000Z</time>
      </trkpt>
      <trkpt lat="43.33836" lon="-1.44705">
        <ele>78</ele>
        <time>2026-03-06T18:32:27.000Z</time>
      </trkpt>
      <trkpt lat="43.33828" lon="-1.44676">
        <ele>79</ele>
        <time>2026-03-06T18:32:31.000Z</time>
      </trkpt>
      <trkpt lat="43.33824" lon="-1.4467">
        <ele>79</ele>
        <time>2026-03-06T18:32:32.000Z</time>
      </trkpt>
      <trkpt lat="43.33823" lon="-1.44662">
        <ele>79</ele>
        <time>2026-03-06T18:32:33.000Z</time>
      </trkpt>
      <trkpt lat="43.33816" lon="-1.44647">
        <ele>79</ele>
        <time>2026-03-06T18:32:35.000Z</time>
      </trkpt>
      <trkpt lat="43.33809" lon="-1.4464">
        <ele>79</ele>
        <time>2026-03-06T18:32:36.000Z</time>
      </trkpt>
      <trkpt lat="43.33784" lon="-1.44625">
        <ele>78</ele>
        <time>2026-03-06T18:32:41.000Z</time>
      </trkpt>
      <trkpt lat="43.33753" lon="-1.44617">
        <ele>78</ele>
        <time>2026-03-06T18:32:47.000Z</time>
      </trkpt>
      <trkpt lat="43.33657" lon="-1.44618">
        <ele>79</ele>
        <time>2026-03-06T18:33:04.000Z</time>
      </trkpt>
      <trkpt lat="43.33634" lon="-1.44621">
        <ele>80</ele>
        <time>2026-03-06T18:33:08.000Z</time>
      </trkpt>
      <trkpt lat="43.33614" lon="-1.44622">
        <ele>81</ele>
        <time>2026-03-06T18:33:12.000Z</time>
      </trkpt>
      <trkpt lat="43.33584" lon="-1.44614">
        <ele>81</ele>
        <time>2026-03-06T18:33:17.000Z</time>
      </trkpt>
      <trkpt lat="43.33563" lon="-1.44603">
        <ele>82</ele>
        <time>2026-03-06T18:33:21.000Z</time>
      </trkpt>
      <trkpt lat="43.33502" lon="-1.44556">
        <ele>80</ele>
        <time>2026-03-06T18:33:34.000Z</time>
      </trkpt>
      <trkpt lat="43.33472" lon="-1.44539">
        <ele>78</ele>
        <time>2026-03-06T18:33:39.000Z</time>
      </trkpt>
      <trkpt lat="43.3345" lon="-1.44533">
        <ele>78</ele>
        <time>2026-03-06T18:33:43.000Z</time>
      </trkpt>
      <trkpt lat="43.33429" lon="-1.44535">
        <ele>78</ele>
        <time>2026-03-06T18:33:47.000Z</time>
      </trkpt>
      <trkpt lat="43.33413" lon="-1.44543">
        <ele>79</ele>
        <time>2026-03-06T18:33:50.000Z</time>
      </trkpt>
      <trkpt lat="43.33401" lon="-1.44558">
        <ele>80</ele>
        <time>2026-03-06T18:33:53.000Z</time>
      </trkpt>
      <trkpt lat="43.33389" lon="-1.44583">
        <ele>81</ele>
        <time>2026-03-06T18:33:57.000Z</time>
      </trkpt>
      <trkpt lat="43.33358" lon="-1.44672">
        <ele>83</ele>
        <time>2026-03-06T18:34:10.000Z</time>
      </trkpt>
      <trkpt lat="43.33341" lon="-1.44695">
        <ele>80</ele>
        <time>2026-03-06T18:34:14.000Z</time>
      </trkpt>
      <trkpt lat="43.33323" lon="-1.44707">
        <ele>79</ele>
        <time>2026-03-06T18:34:17.000Z</time>
      </trkpt>
      <trkpt lat="43.3326" lon="-1.44726">
        <ele>81</ele>
        <time>2026-03-06T18:34:29.000Z</time>
      </trkpt>
      <trkpt lat="43.33198" lon="-1.44736">
        <ele>89</ele>
        <time>2026-03-06T18:34:40.000Z</time>
      </trkpt>
      <trkpt lat="43.33167" lon="-1.44768">
        <ele>89</ele>
        <time>2026-03-06T18:34:47.000Z</time>
      </trkpt>
      <trkpt lat="43.33148" lon="-1.44813">
        <ele>87</ele>
        <time>2026-03-06T18:34:54.000Z</time>
      </trkpt>
      <trkpt lat="43.33135" lon="-1.44896">
        <ele>93</ele>
        <time>2026-03-06T18:35:05.000Z</time>
      </trkpt>
      <trkpt lat="43.33114" lon="-1.44947">
        <ele>94</ele>
        <time>2026-03-06T18:35:12.000Z</time>
      </trkpt>
      <trkpt lat="43.33095" lon="-1.44975">
        <ele>91</ele>
        <time>2026-03-06T18:35:17.000Z</time>
      </trkpt>
      <trkpt lat="43.33078" lon="-1.44982">
        <ele>88</ele>
        <time>2026-03-06T18:35:20.000Z</time>
      </trkpt>
      <trkpt lat="43.33061" lon="-1.44981">
        <ele>89</ele>
        <time>2026-03-06T18:35:23.000Z</time>
      </trkpt>
      <trkpt lat="43.32988" lon="-1.44939">
        <ele>86</ele>
        <time>2026-03-06T18:35:37.000Z</time>
      </trkpt>
      <trkpt lat="43.32929" lon="-1.44924">
        <ele>89</ele>
        <time>2026-03-06T18:35:48.000Z</time>
      </trkpt>
      <trkpt lat="43.32898" lon="-1.44929">
        <ele>92</ele>
        <time>2026-03-06T18:35:54.000Z</time>
      </trkpt>
      <trkpt lat="43.32876" lon="-1.44923">
        <ele>91</ele>
        <time>2026-03-06T18:35:58.000Z</time>
      </trkpt>
      <trkpt lat="43.32852" lon="-1.44936">
        <ele>97</ele>
        <time>2026-03-06T18:36:02.000Z</time>
      </trkpt>
      <trkpt lat="43.32833" lon="-1.44941">
        <ele>99</ele>
        <time>2026-03-06T18:36:06.000Z</time>
      </trkpt>
      <trkpt lat="43.32803" lon="-1.44942">
        <ele>103</ele>
        <time>2026-03-06T18:36:11.000Z</time>
      </trkpt>
      <trkpt lat="43.32788" lon="-1.44939">
        <ele>103</ele>
        <time>2026-03-06T18:36:14.000Z</time>
      </trkpt>
      <trkpt lat="43.32774" lon="-1.44931">
        <ele>102</ele>
        <time>2026-03-06T18:36:16.000Z</time>
      </trkpt>
      <trkpt lat="43.32751" lon="-1.44909">
        <ele>99</ele>
        <time>2026-03-06T18:36:21.000Z</time>
      </trkpt>
      <trkpt lat="43.32722" lon="-1.44887">
        <ele>107</ele>
        <time>2026-03-06T18:36:27.000Z</time>
      </trkpt>
      <trkpt lat="43.32666" lon="-1.4481">
        <ele>101</ele>
        <time>2026-03-06T18:36:41.000Z</time>
      </trkpt>
      <trkpt lat="43.32654" lon="-1.44801">
        <ele>101</ele>
        <time>2026-03-06T18:36:44.000Z</time>
      </trkpt>
      <trkpt lat="43.32607" lon="-1.44782">
        <ele>98</ele>
        <time>2026-03-06T18:36:53.000Z</time>
      </trkpt>
      <trkpt lat="43.32598" lon="-1.44773">
        <ele>97</ele>
        <time>2026-03-06T18:36:55.000Z</time>
      </trkpt>
      <trkpt lat="43.32591" lon="-1.44759">
        <ele>93</ele>
        <time>2026-03-06T18:36:57.000Z</time>
      </trkpt>
      <trkpt lat="43.3255" lon="-1.44575">
        <ele>103</ele>
        <time>2026-03-06T18:37:22.000Z</time>
      </trkpt>
      <trkpt lat="43.3254" lon="-1.44495">
        <ele>109</ele>
        <time>2026-03-06T18:37:32.000Z</time>
      </trkpt>
      <trkpt lat="43.3253" lon="-1.44437">
        <ele>109</ele>
        <time>2026-03-06T18:37:40.000Z</time>
      </trkpt>
      <trkpt lat="43.32499" lon="-1.44346">
        <ele>107</ele>
        <time>2026-03-06T18:37:53.000Z</time>
      </trkpt>
      <trkpt lat="43.32498" lon="-1.44333">
        <ele>106</ele>
        <time>2026-03-06T18:37:55.000Z</time>
      </trkpt>
      <trkpt lat="43.325" lon="-1.44321">
        <ele>106</ele>
        <time>2026-03-06T18:37:56.000Z</time>
      </trkpt>
      <trkpt lat="43.32508" lon="-1.44299">
        <ele>106</ele>
        <time>2026-03-06T18:37:59.000Z</time>
      </trkpt>
      <trkpt lat="43.32514" lon="-1.44272">
        <ele>107</ele>
        <time>2026-03-06T18:38:03.000Z</time>
      </trkpt>
      <trkpt lat="43.32515" lon="-1.44206">
        <ele>110</ele>
        <time>2026-03-06T18:38:12.000Z</time>
      </trkpt>
      <trkpt lat="43.32519" lon="-1.44179">
        <ele>112</ele>
        <time>2026-03-06T18:38:15.000Z</time>
      </trkpt>
      <trkpt lat="43.32541" lon="-1.44103">
        <ele>118</ele>
        <time>2026-03-06T18:38:26.000Z</time>
      </trkpt>
      <trkpt lat="43.32551" lon="-1.44021">
        <ele>123</ele>
        <time>2026-03-06T18:38:36.000Z</time>
      </trkpt>
      <trkpt lat="43.32566" lon="-1.43939">
        <ele>121</ele>
        <time>2026-03-06T18:38:47.000Z</time>
      </trkpt>
      <trkpt lat="43.32573" lon="-1.43916">
        <ele>119</ele>
        <time>2026-03-06T18:38:51.000Z</time>
      </trkpt>
      <trkpt lat="43.32581" lon="-1.43899">
        <ele>119</ele>
        <time>2026-03-06T18:38:53.000Z</time>
      </trkpt>
      <trkpt lat="43.32601" lon="-1.43873">
        <ele>122</ele>
        <time>2026-03-06T18:38:58.000Z</time>
      </trkpt>
      <trkpt lat="43.32667" lon="-1.43816">
        <ele>127</ele>
        <time>2026-03-06T18:39:12.000Z</time>
      </trkpt>
      <trkpt lat="43.32684" lon="-1.43792">
        <ele>130</ele>
        <time>2026-03-06T18:39:16.000Z</time>
      </trkpt>
      <trkpt lat="43.32697" lon="-1.43765">
        <ele>133</ele>
        <time>2026-03-06T18:39:21.000Z</time>
      </trkpt>
      <trkpt lat="43.32709" lon="-1.43721">
        <ele>134</ele>
        <time>2026-03-06T18:39:27.000Z</time>
      </trkpt>
      <trkpt lat="43.32717" lon="-1.43706">
        <ele>134</ele>
        <time>2026-03-06T18:39:29.000Z</time>
      </trkpt>
      <trkpt lat="43.32773" lon="-1.43645">
        <ele>134</ele>
        <time>2026-03-06T18:39:42.000Z</time>
      </trkpt>
      <trkpt lat="43.32816" lon="-1.4361">
        <ele>132</ele>
        <time>2026-03-06T18:39:51.000Z</time>
      </trkpt>
      <trkpt lat="43.32823" lon="-1.43597">
        <ele>131</ele>
        <time>2026-03-06T18:39:53.000Z</time>
      </trkpt>
      <trkpt lat="43.32827" lon="-1.43572">
        <ele>129</ele>
        <time>2026-03-06T18:39:56.000Z</time>
      </trkpt>
      <trkpt lat="43.32825" lon="-1.43539">
        <ele>127</ele>
        <time>2026-03-06T18:40:00.000Z</time>
      </trkpt>
      <trkpt lat="43.3282" lon="-1.43514">
        <ele>125</ele>
        <time>2026-03-06T18:40:04.000Z</time>
      </trkpt>
      <trkpt lat="43.32809" lon="-1.43471">
        <ele>123</ele>
        <time>2026-03-06T18:40:10.000Z</time>
      </trkpt>
      <trkpt lat="43.32805" lon="-1.43442">
        <ele>121</ele>
        <time>2026-03-06T18:40:13.000Z</time>
      </trkpt>
      <trkpt lat="43.32808" lon="-1.4341">
        <ele>120</ele>
        <time>2026-03-06T18:40:18.000Z</time>
      </trkpt>
      <trkpt lat="43.32822" lon="-1.43333">
        <ele>117</ele>
        <time>2026-03-06T18:40:28.000Z</time>
      </trkpt>
      <trkpt lat="43.3283" lon="-1.43269">
        <ele>117</ele>
        <time>2026-03-06T18:40:36.000Z</time>
      </trkpt>
      <trkpt lat="43.32838" lon="-1.43202">
        <ele>115</ele>
        <time>2026-03-06T18:40:45.000Z</time>
      </trkpt>
      <trkpt lat="43.32851" lon="-1.43164">
        <ele>113</ele>
        <time>2026-03-06T18:40:51.000Z</time>
      </trkpt>
      <trkpt lat="43.32871" lon="-1.43121">
        <ele>114</ele>
        <time>2026-03-06T18:40:57.000Z</time>
      </trkpt>
      <trkpt lat="43.32889" lon="-1.43096">
        <ele>114</ele>
        <time>2026-03-06T18:41:02.000Z</time>
      </trkpt>
      <trkpt lat="43.329" lon="-1.43074">
        <ele>114</ele>
        <time>2026-03-06T18:41:05.000Z</time>
      </trkpt>
      <trkpt lat="43.329" lon="-1.43057">
        <ele>113</ele>
        <time>2026-03-06T18:41:07.000Z</time>
      </trkpt>
      <trkpt lat="43.32893" lon="-1.43006">
        <ele>111</ele>
        <time>2026-03-06T18:41:14.000Z</time>
      </trkpt>
      <trkpt lat="43.32893" lon="-1.42942">
        <ele>109</ele>
        <time>2026-03-06T18:41:22.000Z</time>
      </trkpt>
      <trkpt lat="43.32897" lon="-1.42922">
        <ele>108</ele>
        <time>2026-03-06T18:41:25.000Z</time>
      </trkpt>
      <trkpt lat="43.32903" lon="-1.42909">
        <ele>108</ele>
        <time>2026-03-06T18:41:27.000Z</time>
      </trkpt>
      <trkpt lat="43.32927" lon="-1.42874">
        <ele>107</ele>
        <time>2026-03-06T18:41:33.000Z</time>
      </trkpt>
      <trkpt lat="43.32944" lon="-1.42845">
        <ele>106</ele>
        <time>2026-03-06T18:41:38.000Z</time>
      </trkpt>
      <trkpt lat="43.32985" lon="-1.42757">
        <ele>103</ele>
        <time>2026-03-06T18:41:52.000Z</time>
      </trkpt>
      <trkpt lat="43.32994" lon="-1.42742">
        <ele>102</ele>
        <time>2026-03-06T18:41:54.000Z</time>
      </trkpt>
      <trkpt lat="43.33005" lon="-1.42733">
        <ele>102</ele>
        <time>2026-03-06T18:41:56.000Z</time>
      </trkpt>
      <trkpt lat="43.33047" lon="-1.4271">
        <ele>107</ele>
        <time>2026-03-06T18:42:04.000Z</time>
      </trkpt>
      <trkpt lat="43.33056" lon="-1.427">
        <ele>107</ele>
        <time>2026-03-06T18:42:06.000Z</time>
      </trkpt>
      <trkpt lat="43.33073" lon="-1.42668">
        <ele>107</ele>
        <time>2026-03-06T18:42:12.000Z</time>
      </trkpt>
      <trkpt lat="43.33086" lon="-1.42631">
        <ele>104</ele>
        <time>2026-03-06T18:42:17.000Z</time>
      </trkpt>
      <trkpt lat="43.331" lon="-1.4256">
        <ele>100</ele>
        <time>2026-03-06T18:42:26.000Z</time>
      </trkpt>
      <trkpt lat="43.33108" lon="-1.42541">
        <ele>100</ele>
        <time>2026-03-06T18:42:29.000Z</time>
      </trkpt>
      <trkpt lat="43.3313" lon="-1.42498">
        <ele>102</ele>
        <time>2026-03-06T18:42:36.000Z</time>
      </trkpt>
      <trkpt lat="43.33135" lon="-1.4248">
        <ele>102</ele>
        <time>2026-03-06T18:42:39.000Z</time>
      </trkpt>
      <trkpt lat="43.33137" lon="-1.42425">
        <ele>103</ele>
        <time>2026-03-06T18:42:46.000Z</time>
      </trkpt>
      <trkpt lat="43.33138" lon="-1.42312">
        <ele>102</ele>
        <time>2026-03-06T18:43:00.000Z</time>
      </trkpt>
      <trkpt lat="43.33146" lon="-1.42249">
        <ele>100</ele>
        <time>2026-03-06T18:43:09.000Z</time>
      </trkpt>
      <trkpt lat="43.33145" lon="-1.42202">
        <ele>98</ele>
        <time>2026-03-06T18:43:15.000Z</time>
      </trkpt>
      <trkpt lat="43.33145" lon="-1.42181">
        <ele>96</ele>
        <time>2026-03-06T18:43:17.000Z</time>
      </trkpt>
      <trkpt lat="43.33149" lon="-1.42152">
        <ele>96</ele>
        <time>2026-03-06T18:43:21.000Z</time>
      </trkpt>
      <trkpt lat="43.33155" lon="-1.42124">
        <ele>95</ele>
        <time>2026-03-06T18:43:25.000Z</time>
      </trkpt>
      <trkpt lat="43.33162" lon="-1.42102">
        <ele>95</ele>
        <time>2026-03-06T18:43:28.000Z</time>
      </trkpt>
      <trkpt lat="43.33258" lon="-1.41944">
        <ele>103</ele>
        <time>2026-03-06T18:43:55.000Z</time>
      </trkpt>
      <trkpt lat="43.33265" lon="-1.41922">
        <ele>104</ele>
        <time>2026-03-06T18:43:58.000Z</time>
      </trkpt>
      <trkpt lat="43.33274" lon="-1.41869">
        <ele>102</ele>
        <time>2026-03-06T18:44:05.000Z</time>
      </trkpt>
      <trkpt lat="43.33275" lon="-1.41827">
        <ele>100</ele>
        <time>2026-03-06T18:44:10.000Z</time>
      </trkpt>
      <trkpt lat="43.33272" lon="-1.41797">
        <ele>99</ele>
        <time>2026-03-06T18:44:14.000Z</time>
      </trkpt>
      <trkpt lat="43.3327" lon="-1.41786">
        <ele>98</ele>
        <time>2026-03-06T18:44:16.000Z</time>
      </trkpt>
      <trkpt lat="43.33263" lon="-1.41774">
        <ele>98</ele>
        <time>2026-03-06T18:44:18.000Z</time>
      </trkpt>
      <trkpt lat="43.33219" lon="-1.41732">
        <ele>96</ele>
        <time>2026-03-06T18:44:27.000Z</time>
      </trkpt>
      <trkpt lat="43.33209" lon="-1.41716">
        <ele>95</ele>
        <time>2026-03-06T18:44:30.000Z</time>
      </trkpt>
      <trkpt lat="43.33205" lon="-1.41705">
        <ele>95</ele>
        <time>2026-03-06T18:44:32.000Z</time>
      </trkpt>
      <trkpt lat="43.33202" lon="-1.41691">
        <ele>95</ele>
        <time>2026-03-06T18:44:33.000Z</time>
      </trkpt>
      <trkpt lat="43.332" lon="-1.41675">
        <ele>94</ele>
        <time>2026-03-06T18:44:36.000Z</time>
      </trkpt>
      <trkpt lat="43.332" lon="-1.41637">
        <ele>93</ele>
        <time>2026-03-06T18:44:40.000Z</time>
      </trkpt>
      <trkpt lat="43.33204" lon="-1.41602">
        <ele>91</ele>
        <time>2026-03-06T18:44:45.000Z</time>
      </trkpt>
      <trkpt lat="43.33218" lon="-1.41529">
        <ele>88</ele>
        <time>2026-03-06T18:44:55.000Z</time>
      </trkpt>
      <trkpt lat="43.3322" lon="-1.41509">
        <ele>87</ele>
        <time>2026-03-06T18:44:57.000Z</time>
      </trkpt>
      <trkpt lat="43.33227" lon="-1.41368">
        <ele>86</ele>
        <time>2026-03-06T18:45:16.000Z</time>
      </trkpt>
      <trkpt lat="43.33231" lon="-1.41351">
        <ele>87</ele>
        <time>2026-03-06T18:45:18.000Z</time>
      </trkpt>
      <trkpt lat="43.33235" lon="-1.41337">
        <ele>88</ele>
        <time>2026-03-06T18:45:20.000Z</time>
      </trkpt>
      <trkpt lat="43.33243" lon="-1.41322">
        <ele>90</ele>
        <time>2026-03-06T18:45:22.000Z</time>
      </trkpt>
      <trkpt lat="43.33272" lon="-1.4128">
        <ele>93</ele>
        <time>2026-03-06T18:45:30.000Z</time>
      </trkpt>
      <trkpt lat="43.33277" lon="-1.41265">
        <ele>93</ele>
        <time>2026-03-06T18:45:32.000Z</time>
      </trkpt>
      <trkpt lat="43.3328" lon="-1.41251">
        <ele>94</ele>
        <time>2026-03-06T18:45:34.000Z</time>
      </trkpt>
      <trkpt lat="43.3328" lon="-1.41225">
        <ele>93</ele>
        <time>2026-03-06T18:45:37.000Z</time>
      </trkpt>
      <trkpt lat="43.33276" lon="-1.41196">
        <ele>93</ele>
        <time>2026-03-06T18:45:41.000Z</time>
      </trkpt>
      <trkpt lat="43.33288" lon="-1.41199">
        <ele>92</ele>
        <time>2026-03-06T18:45:43.000Z</time>
      </trkpt>
      <trkpt lat="43.33297" lon="-1.41214">
        <ele>93</ele>
        <time>2026-03-06T18:45:46.000Z</time>
      </trkpt>
      <trkpt lat="43.33345" lon="-1.41281">
        <ele>93</ele>
        <time>2026-03-06T18:45:58.000Z</time>
      </trkpt>
      <trkpt lat="43.33356" lon="-1.413">
        <ele>93</ele>
        <time>2026-03-06T18:46:01.000Z</time>
      </trkpt>
      <trkpt lat="43.33614" lon="-1.41213">
        <ele>95</ele>
        <time>2026-03-06T18:46:48.000Z</time>
      </trkpt>
      <trkpt lat="43.33648" lon="-1.41192">
        <ele>97</ele>
        <time>2026-03-06T18:46:55.000Z</time>
      </trkpt>
      <trkpt lat="43.33694" lon="-1.41144">
        <ele>98</ele>
        <time>2026-03-06T18:47:05.000Z</time>
      </trkpt>
      <trkpt lat="43.33722" lon="-1.41111">
        <ele>100</ele>
        <time>2026-03-06T18:47:12.000Z</time>
      </trkpt>
      <trkpt lat="43.33741" lon="-1.41072">
        <ele>100</ele>
        <time>2026-03-06T18:47:18.000Z</time>
      </trkpt>
      <trkpt lat="43.33749" lon="-1.41038">
        <ele>101</ele>
        <time>2026-03-06T18:47:23.000Z</time>
      </trkpt>
      <trkpt lat="43.33771" lon="-1.40912">
        <ele>100</ele>
        <time>2026-03-06T18:47:39.000Z</time>
      </trkpt>
      <trkpt lat="43.33777" lon="-1.4086">
        <ele>97</ele>
        <time>2026-03-06T18:47:46.000Z</time>
      </trkpt>
      <trkpt lat="43.33777" lon="-1.40851">
        <ele>96</ele>
        <time>2026-03-06T18:47:47.000Z</time>
      </trkpt>
      <trkpt lat="43.33764" lon="-1.40851">
        <ele>96</ele>
        <time>2026-03-06T18:47:50.000Z</time>
      </trkpt>
      <trkpt lat="43.33738" lon="-1.40846">
        <ele>94</ele>
        <time>2026-03-06T18:47:54.000Z</time>
      </trkpt>
      <trkpt lat="43.33716" lon="-1.4084">
        <ele>92</ele>
        <time>2026-03-06T18:47:58.000Z</time>
      </trkpt>
      <trkpt lat="43.33717" lon="-1.40831">
        <ele>92</ele>
        <time>2026-03-06T18:47:59.000Z</time>
      </trkpt>
      <trkpt lat="43.33731" lon="-1.40792">
        <ele>91</ele>
        <time>2026-03-06T18:48:05.000Z</time>
      </trkpt>
      <trkpt lat="43.33752" lon="-1.40712">
        <ele>89</ele>
        <time>2026-03-06T18:48:16.000Z</time>
      </trkpt>
      <trkpt lat="43.33773" lon="-1.4068">
        <ele>88</ele>
        <time>2026-03-06T18:48:22.000Z</time>
      </trkpt>
      <trkpt lat="43.33802" lon="-1.40604">
        <ele>88</ele>
        <time>2026-03-06T18:48:33.000Z</time>
      </trkpt>
      <trkpt lat="43.33821" lon="-1.40571">
        <ele>87</ele>
        <time>2026-03-06T18:48:38.000Z</time>
      </trkpt>
      <trkpt lat="43.33833" lon="-1.40543">
        <ele>86</ele>
        <time>2026-03-06T18:48:42.000Z</time>
      </trkpt>
      <trkpt lat="43.33837" lon="-1.40531">
        <ele>86</ele>
        <time>2026-03-06T18:48:44.000Z</time>
      </trkpt>
      <trkpt lat="43.33844" lon="-1.40492">
        <ele>84</ele>
        <time>2026-03-06T18:48:49.000Z</time>
      </trkpt>
      <trkpt lat="43.33852" lon="-1.40495">
        <ele>85</ele>
        <time>2026-03-06T18:48:51.000Z</time>
      </trkpt>
      <trkpt lat="43.33977" lon="-1.40472">
        <ele>87</ele>
        <time>2026-03-06T18:49:13.000Z</time>
      </trkpt>
      <trkpt lat="43.33982" lon="-1.40466">
        <ele>87</ele>
        <time>2026-03-06T18:49:14.000Z</time>
      </trkpt>
      <trkpt lat="43.33989" lon="-1.40433">
        <ele>85</ele>
        <time>2026-03-06T18:49:19.000Z</time>
      </trkpt>
      <trkpt lat="43.33994" lon="-1.40423">
        <ele>85</ele>
        <time>2026-03-06T18:49:20.000Z</time>
      </trkpt>
      <trkpt lat="43.34013" lon="-1.40401">
        <ele>85</ele>
        <time>2026-03-06T18:49:25.000Z</time>
      </trkpt>
      <trkpt lat="43.34037" lon="-1.40384">
        <ele>85</ele>
        <time>2026-03-06T18:49:30.000Z</time>
      </trkpt>
      <trkpt lat="43.34065" lon="-1.4037">
        <ele>84</ele>
        <time>2026-03-06T18:49:35.000Z</time>
      </trkpt>
      <trkpt lat="43.34099" lon="-1.40357">
        <ele>84</ele>
        <time>2026-03-06T18:49:41.000Z</time>
      </trkpt>
      <trkpt lat="43.34106" lon="-1.40351">
        <ele>84</ele>
        <time>2026-03-06T18:49:43.000Z</time>
      </trkpt>
      <trkpt lat="43.3413" lon="-1.4031">
        <ele>85</ele>
        <time>2026-03-06T18:49:50.000Z</time>
      </trkpt>
      <trkpt lat="43.34138" lon="-1.40292">
        <ele>85</ele>
        <time>2026-03-06T18:49:52.000Z</time>
      </trkpt>
      <trkpt lat="43.3414" lon="-1.40281">
        <ele>86</ele>
        <time>2026-03-06T18:49:54.000Z</time>
      </trkpt>
      <trkpt lat="43.34139" lon="-1.40237">
        <ele>86</ele>
        <time>2026-03-06T18:49:59.000Z</time>
      </trkpt>
      <trkpt lat="43.3414" lon="-1.4022">
        <ele>86</ele>
        <time>2026-03-06T18:50:02.000Z</time>
      </trkpt>
      <trkpt lat="43.34143" lon="-1.40204">
        <ele>86</ele>
        <time>2026-03-06T18:50:04.000Z</time>
      </trkpt>
      <trkpt lat="43.34194" lon="-1.40232">
        <ele>87</ele>
        <time>2026-03-06T18:50:14.000Z</time>
      </trkpt>
      <trkpt lat="43.3423" lon="-1.40247">
        <ele>87</ele>
        <time>2026-03-06T18:50:20.000Z</time>
      </trkpt>
      <trkpt lat="43.34258" lon="-1.4025">
        <ele>86</ele>
        <time>2026-03-06T18:50:25.000Z</time>
      </trkpt>
      <trkpt lat="43.34298" lon="-1.40245">
        <ele>87</ele>
        <time>2026-03-06T18:50:32.000Z</time>
      </trkpt>
      <trkpt lat="43.34401" lon="-1.40221">
        <ele>86</ele>
        <time>2026-03-06T18:50:51.000Z</time>
      </trkpt>
      <trkpt lat="43.34431" lon="-1.40218">
        <ele>86</ele>
        <time>2026-03-06T18:50:56.000Z</time>
      </trkpt>
      <trkpt lat="43.34456" lon="-1.40218">
        <ele>86</ele>
        <time>2026-03-06T18:51:01.000Z</time>
      </trkpt>
      <trkpt lat="43.34459" lon="-1.40206">
        <ele>86</ele>
        <time>2026-03-06T18:51:02.000Z</time>
      </trkpt>
      <trkpt lat="43.34462" lon="-1.40201">
        <ele>86</ele>
        <time>2026-03-06T18:51:03.000Z</time>
      </trkpt>
      <trkpt lat="43.34471" lon="-1.40197">
        <ele>86</ele>
        <time>2026-03-06T18:51:05.000Z</time>
      </trkpt>
      <trkpt lat="43.34476" lon="-1.40198">
        <ele>86</ele>
        <time>2026-03-06T18:51:06.000Z</time>
      </trkpt>
      <trkpt lat="43.34484" lon="-1.40177">
        <ele>86</ele>
        <time>2026-03-06T18:51:09.000Z</time>
      </trkpt>
      <trkpt lat="43.34495" lon="-1.40154">
        <ele>87</ele>
        <time>2026-03-06T18:51:12.000Z</time>
      </trkpt>
      <trkpt lat="43.34511" lon="-1.40133">
        <ele>88</ele>
        <time>2026-03-06T18:51:16.000Z</time>
      </trkpt>
      <trkpt lat="43.34583" lon="-1.40071">
        <ele>89</ele>
        <time>2026-03-06T18:51:32.000Z</time>
      </trkpt>
      <trkpt lat="43.3457" lon="-1.40068">
        <ele>89</ele>
        <time>2026-03-06T18:51:34.000Z</time>
      </trkpt>
      <trkpt lat="43.34557" lon="-1.40072">
        <ele>90</ele>
        <time>2026-03-06T18:51:36.000Z</time>
      </trkpt>
      <trkpt lat="43.3457" lon="-1.40068">
        <ele>89</ele>
        <time>2026-03-06T18:51:39.000Z</time>
      </trkpt>
      <trkpt lat="43.34583" lon="-1.40071">
        <ele>89</ele>
        <time>2026-03-06T18:51:41.000Z</time>
      </trkpt>
      <trkpt lat="43.34655" lon="-1.40008">
        <ele>87</ele>
        <time>2026-03-06T18:51:56.000Z</time>
      </trkpt>
      <trkpt lat="43.34672" lon="-1.39997">
        <ele>86</ele>
        <time>2026-03-06T18:51:59.000Z</time>
      </trkpt>
      <trkpt lat="43.34699" lon="-1.39984">
        <ele>88</ele>
        <time>2026-03-06T18:52:05.000Z</time>
      </trkpt>
      <trkpt lat="43.34754" lon="-1.39962">
        <ele>90</ele>
        <time>2026-03-06T18:52:15.000Z</time>
      </trkpt>
      <trkpt lat="43.34937" lon="-1.39916">
        <ele>99</ele>
        <time>2026-03-06T18:52:48.000Z</time>
      </trkpt>
      <trkpt lat="43.35188" lon="-1.3984">
        <ele>74</ele>
        <time>2026-03-06T18:53:34.000Z</time>
      </trkpt>
      <trkpt lat="43.35229" lon="-1.39831">
        <ele>70</ele>
        <time>2026-03-06T18:53:41.000Z</time>
      </trkpt>
      <trkpt lat="43.35261" lon="-1.39831">
        <ele>68</ele>
        <time>2026-03-06T18:53:47.000Z</time>
      </trkpt>
      <trkpt lat="43.35263" lon="-1.39825">
        <ele>68</ele>
        <time>2026-03-06T18:53:48.000Z</time>
      </trkpt>
      <trkpt lat="43.35271" lon="-1.3982">
        <ele>68</ele>
        <time>2026-03-06T18:53:49.000Z</time>
      </trkpt>
      <trkpt lat="43.35269" lon="-1.39794">
        <ele>69</ele>
        <time>2026-03-06T18:53:52.000Z</time>
      </trkpt>
      <trkpt lat="43.35268" lon="-1.39776">
        <ele>69</ele>
        <time>2026-03-06T18:53:55.000Z</time>
      </trkpt>
      <trkpt lat="43.35274" lon="-1.39743">
        <ele>69</ele>
        <time>2026-03-06T18:53:59.000Z</time>
      </trkpt>
      <trkpt lat="43.35279" lon="-1.39727">
        <ele>70</ele>
        <time>2026-03-06T18:54:01.000Z</time>
      </trkpt>
      <trkpt lat="43.35304" lon="-1.3968">
        <ele>70</ele>
        <time>2026-03-06T18:54:09.000Z</time>
      </trkpt>
      <trkpt lat="43.35322" lon="-1.39636">
        <ele>69</ele>
        <time>2026-03-06T18:54:16.000Z</time>
      </trkpt>
      <trkpt lat="43.35332" lon="-1.39607">
        <ele>68</ele>
        <time>2026-03-06T18:54:20.000Z</time>
      </trkpt>
      <trkpt lat="43.35341" lon="-1.39581">
        <ele>68</ele>
        <time>2026-03-06T18:54:23.000Z</time>
      </trkpt>
      <trkpt lat="43.35351" lon="-1.3954">
        <ele>70</ele>
        <time>2026-03-06T18:54:29.000Z</time>
      </trkpt>
      <trkpt lat="43.35358" lon="-1.39508">
        <ele>72</ele>
        <time>2026-03-06T18:54:33.000Z</time>
      </trkpt>
      <trkpt lat="43.35367" lon="-1.3946">
        <ele>74</ele>
        <time>2026-03-06T18:54:40.000Z</time>
      </trkpt>
      <trkpt lat="43.35386" lon="-1.3938">
        <ele>73</ele>
        <time>2026-03-06T18:54:51.000Z</time>
      </trkpt>
      <trkpt lat="43.35414" lon="-1.39306">
        <ele>64</ele>
        <time>2026-03-06T18:55:01.000Z</time>
      </trkpt>
      <trkpt lat="43.35438" lon="-1.39258">
        <ele>57</ele>
        <time>2026-03-06T18:55:09.000Z</time>
      </trkpt>
      <trkpt lat="43.35444" lon="-1.3923">
        <ele>55</ele>
        <time>2026-03-06T18:55:13.000Z</time>
      </trkpt>
      <trkpt lat="43.35442" lon="-1.39222">
        <ele>55</ele>
        <time>2026-03-06T18:55:14.000Z</time>
      </trkpt>
      <trkpt lat="43.35444" lon="-1.39212">
        <ele>55</ele>
        <time>2026-03-06T18:55:15.000Z</time>
      </trkpt>
      <trkpt lat="43.35448" lon="-1.39206">
        <ele>54</ele>
        <time>2026-03-06T18:55:16.000Z</time>
      </trkpt>
      <trkpt lat="43.35453" lon="-1.39202">
        <ele>53</ele>
        <time>2026-03-06T18:55:17.000Z</time>
      </trkpt>
      <trkpt lat="43.35461" lon="-1.39203">
        <ele>52</ele>
        <time>2026-03-06T18:55:19.000Z</time>
      </trkpt>
      <trkpt lat="43.35468" lon="-1.39198">
        <ele>50</ele>
        <time>2026-03-06T18:55:20.000Z</time>
      </trkpt>
      <trkpt lat="43.35474" lon="-1.39191">
        <ele>49</ele>
        <time>2026-03-06T18:55:21.000Z</time>
      </trkpt>
      <trkpt lat="43.35483" lon="-1.39168">
        <ele>44</ele>
        <time>2026-03-06T18:55:25.000Z</time>
      </trkpt>
      <trkpt lat="43.35501" lon="-1.39144">
        <ele>39</ele>
        <time>2026-03-06T18:55:29.000Z</time>
      </trkpt>
      <trkpt lat="43.35539" lon="-1.39101">
        <ele>35</ele>
        <time>2026-03-06T18:55:38.000Z</time>
      </trkpt>
      <trkpt lat="43.35557" lon="-1.39086">
        <ele>32</ele>
        <time>2026-03-06T18:55:42.000Z</time>
      </trkpt>
      <trkpt lat="43.35583" lon="-1.39071">
        <ele>28</ele>
        <time>2026-03-06T18:55:47.000Z</time>
      </trkpt>
      <trkpt lat="43.35614" lon="-1.3906">
        <ele>25</ele>
        <time>2026-03-06T18:55:53.000Z</time>
      </trkpt>
      <trkpt lat="43.35674" lon="-1.39037">
        <ele>22</ele>
        <time>2026-03-06T18:56:04.000Z</time>
      </trkpt>
      <trkpt lat="43.35687" lon="-1.39033">
        <ele>24</ele>
        <time>2026-03-06T18:56:06.000Z</time>
      </trkpt>
      <trkpt lat="43.35702" lon="-1.39032">
        <ele>26</ele>
        <time>2026-03-06T18:56:09.000Z</time>
      </trkpt>
      <trkpt lat="43.35714" lon="-1.39038">
        <ele>28</ele>
        <time>2026-03-06T18:56:11.000Z</time>
      </trkpt>
      <trkpt lat="43.3573" lon="-1.39055">
        <ele>29</ele>
        <time>2026-03-06T18:56:15.000Z</time>
      </trkpt>
      <trkpt lat="43.35746" lon="-1.39088">
        <ele>28</ele>
        <time>2026-03-06T18:56:20.000Z</time>
      </trkpt>
      <trkpt lat="43.35766" lon="-1.39108">
        <ele>28</ele>
        <time>2026-03-06T18:56:24.000Z</time>
      </trkpt>
      <trkpt lat="43.35784" lon="-1.39115">
        <ele>27</ele>
        <time>2026-03-06T18:56:27.000Z</time>
      </trkpt>
      <trkpt lat="43.3581" lon="-1.39112">
        <ele>28</ele>
        <time>2026-03-06T18:56:32.000Z</time>
      </trkpt>
      <trkpt lat="43.35824" lon="-1.39102">
        <ele>29</ele>
        <time>2026-03-06T18:56:35.000Z</time>
      </trkpt>
      <trkpt lat="43.35834" lon="-1.39088">
        <ele>30</ele>
        <time>2026-03-06T18:56:37.000Z</time>
      </trkpt>
      <trkpt lat="43.35841" lon="-1.39072">
        <ele>31</ele>
        <time>2026-03-06T18:56:40.000Z</time>
      </trkpt>
      <trkpt lat="43.35874" lon="-1.38952">
        <ele>39</ele>
        <time>2026-03-06T18:56:56.000Z</time>
      </trkpt>
      <trkpt lat="43.35922" lon="-1.38824">
        <ele>40</ele>
        <time>2026-03-06T18:57:15.000Z</time>
      </trkpt>
      <trkpt lat="43.35998" lon="-1.38691">
        <ele>48</ele>
        <time>2026-03-06T18:57:37.000Z</time>
      </trkpt>
      <trkpt lat="43.36016" lon="-1.38645">
        <ele>55</ele>
        <time>2026-03-06T18:57:44.000Z</time>
      </trkpt>
      <trkpt lat="43.36022" lon="-1.3861">
        <ele>56</ele>
        <time>2026-03-06T18:57:48.000Z</time>
      </trkpt>
      <trkpt lat="43.36022" lon="-1.3857">
        <ele>58</ele>
        <time>2026-03-06T18:57:53.000Z</time>
      </trkpt>
      <trkpt lat="43.36027" lon="-1.38515">
        <ele>60</ele>
        <time>2026-03-06T18:58:01.000Z</time>
      </trkpt>
      <trkpt lat="43.36048" lon="-1.38447">
        <ele>61</ele>
        <time>2026-03-06T18:58:10.000Z</time>
      </trkpt>
      <trkpt lat="43.3605" lon="-1.38434">
        <ele>62</ele>
        <time>2026-03-06T18:58:12.000Z</time>
      </trkpt>
      <trkpt lat="43.36049" lon="-1.38378">
        <ele>63</ele>
        <time>2026-03-06T18:58:19.000Z</time>
      </trkpt>
      <trkpt lat="43.36029" lon="-1.38025">
        <ele>77</ele>
        <time>2026-03-06T18:59:05.000Z</time>
      </trkpt>
      <trkpt lat="43.3603" lon="-1.37989">
        <ele>79</ele>
        <time>2026-03-06T18:59:10.000Z</time>
      </trkpt>
      <trkpt lat="43.36094" lon="-1.37832">
        <ele>79</ele>
        <time>2026-03-06T18:59:33.000Z</time>
      </trkpt>
      <trkpt lat="43.36114" lon="-1.37774">
        <ele>75</ele>
        <time>2026-03-06T18:59:41.000Z</time>
      </trkpt>
      <trkpt lat="43.36117" lon="-1.37728">
        <ele>72</ele>
        <time>2026-03-06T18:59:47.000Z</time>
      </trkpt>
      <trkpt lat="43.36112" lon="-1.3768">
        <ele>70</ele>
        <time>2026-03-06T18:59:53.000Z</time>
      </trkpt>
      <trkpt lat="43.36114" lon="-1.37656">
        <ele>69</ele>
        <time>2026-03-06T18:59:57.000Z</time>
      </trkpt>
      <trkpt lat="43.3612" lon="-1.37629">
        <ele>68</ele>
        <time>2026-03-06T19:00:00.000Z</time>
      </trkpt>
      <trkpt lat="43.36163" lon="-1.37549">
        <ele>70</ele>
        <time>2026-03-06T19:00:13.000Z</time>
      </trkpt>
      <trkpt lat="43.36176" lon="-1.37509">
        <ele>72</ele>
        <time>2026-03-06T19:00:19.000Z</time>
      </trkpt>
      <trkpt lat="43.36182" lon="-1.37481">
        <ele>72</ele>
        <time>2026-03-06T19:00:23.000Z</time>
      </trkpt>
      <trkpt lat="43.36185" lon="-1.37455">
        <ele>71</ele>
        <time>2026-03-06T19:00:26.000Z</time>
      </trkpt>
      <trkpt lat="43.36182" lon="-1.37384">
        <ele>69</ele>
        <time>2026-03-06T19:00:35.000Z</time>
      </trkpt>
      <trkpt lat="43.36186" lon="-1.37341">
        <ele>69</ele>
        <time>2026-03-06T19:00:41.000Z</time>
      </trkpt>
      <trkpt lat="43.36193" lon="-1.37309">
        <ele>70</ele>
        <time>2026-03-06T19:00:45.000Z</time>
      </trkpt>
      <trkpt lat="43.36235" lon="-1.37182">
        <ele>71</ele>
        <time>2026-03-06T19:01:03.000Z</time>
      </trkpt>
      <trkpt lat="43.36244" lon="-1.37146">
        <ele>71</ele>
        <time>2026-03-06T19:01:08.000Z</time>
      </trkpt>
      <trkpt lat="43.36257" lon="-1.3702">
        <ele>77</ele>
        <time>2026-03-06T19:01:25.000Z</time>
      </trkpt>
      <trkpt lat="43.36264" lon="-1.3699">
        <ele>78</ele>
        <time>2026-03-06T19:01:29.000Z</time>
      </trkpt>
      <trkpt lat="43.36275" lon="-1.36968">
        <ele>77</ele>
        <time>2026-03-06T19:01:32.000Z</time>
      </trkpt>
      <trkpt lat="43.36295" lon="-1.36947">
        <ele>75</ele>
        <time>2026-03-06T19:01:37.000Z</time>
      </trkpt>
      <trkpt lat="43.36317" lon="-1.36939">
        <ele>72</ele>
        <time>2026-03-06T19:01:41.000Z</time>
      </trkpt>
      <trkpt lat="43.36346" lon="-1.36937">
        <ele>70</ele>
        <time>2026-03-06T19:01:46.000Z</time>
      </trkpt>
      <trkpt lat="43.36399" lon="-1.3694">
        <ele>71</ele>
        <time>2026-03-06T19:01:55.000Z</time>
      </trkpt>
      <trkpt lat="43.36419" lon="-1.36932">
        <ele>71</ele>
        <time>2026-03-06T19:01:59.000Z</time>
      </trkpt>
      <trkpt lat="43.36443" lon="-1.36913">
        <ele>72</ele>
        <time>2026-03-06T19:02:04.000Z</time>
      </trkpt>
      <trkpt lat="43.36465" lon="-1.36881">
        <ele>72</ele>
        <time>2026-03-06T19:02:10.000Z</time>
      </trkpt>
      <trkpt lat="43.36486" lon="-1.3683">
        <ele>69</ele>
        <time>2026-03-06T19:02:17.000Z</time>
      </trkpt>
      <trkpt lat="43.36514" lon="-1.36772">
        <ele>66</ele>
        <time>2026-03-06T19:02:26.000Z</time>
      </trkpt>
      <trkpt lat="43.36625" lon="-1.36555">
        <ele>70</ele>
        <time>2026-03-06T19:03:00.000Z</time>
      </trkpt>
      <trkpt lat="43.36654" lon="-1.36497">
        <ele>72</ele>
        <time>2026-03-06T19:03:10.000Z</time>
      </trkpt>
      <trkpt lat="43.36662" lon="-1.36478">
        <ele>72</ele>
        <time>2026-03-06T19:03:12.000Z</time>
      </trkpt>
      <trkpt lat="43.36669" lon="-1.36456">
        <ele>73</ele>
        <time>2026-03-06T19:03:15.000Z</time>
      </trkpt>
      <trkpt lat="43.36675" lon="-1.36418">
        <ele>73</ele>
        <time>2026-03-06T19:03:21.000Z</time>
      </trkpt>
      <trkpt lat="43.36677" lon="-1.36374">
        <ele>73</ele>
        <time>2026-03-06T19:03:26.000Z</time>
      </trkpt>
      <trkpt lat="43.36671" lon="-1.36329">
        <ele>72</ele>
        <time>2026-03-06T19:03:32.000Z</time>
      </trkpt>
      <trkpt lat="43.36649" lon="-1.36254">
        <ele>71</ele>
        <time>2026-03-06T19:03:43.000Z</time>
      </trkpt>
      <trkpt lat="43.36642" lon="-1.36212">
        <ele>73</ele>
        <time>2026-03-06T19:03:48.000Z</time>
      </trkpt>
      <trkpt lat="43.36641" lon="-1.36169">
        <ele>74</ele>
        <time>2026-03-06T19:03:54.000Z</time>
      </trkpt>
      <trkpt lat="43.36648" lon="-1.36084">
        <ele>77</ele>
        <time>2026-03-06T19:04:05.000Z</time>
      </trkpt>
      <trkpt lat="43.3666" lon="-1.36026">
        <ele>78</ele>
        <time>2026-03-06T19:04:13.000Z</time>
      </trkpt>
      <trkpt lat="43.36675" lon="-1.35984">
        <ele>80</ele>
        <time>2026-03-06T19:04:19.000Z</time>
      </trkpt>
      <trkpt lat="43.36689" lon="-1.35957">
        <ele>83</ele>
        <time>2026-03-06T19:04:23.000Z</time>
      </trkpt>
      <trkpt lat="43.36702" lon="-1.35926">
        <ele>85</ele>
        <time>2026-03-06T19:04:28.000Z</time>
      </trkpt>
      <trkpt lat="43.36765" lon="-1.35673">
        <ele>87</ele>
        <time>2026-03-06T19:05:02.000Z</time>
      </trkpt>
      <trkpt lat="43.36774" lon="-1.35603">
        <ele>86</ele>
        <time>2026-03-06T19:05:11.000Z</time>
      </trkpt>
      <trkpt lat="43.36794" lon="-1.35358">
        <ele>92</ele>
        <time>2026-03-06T19:05:43.000Z</time>
      </trkpt>
      <trkpt lat="43.36816" lon="-1.35271">
        <ele>93</ele>
        <time>2026-03-06T19:05:55.000Z</time>
      </trkpt>
      <trkpt lat="43.36823" lon="-1.35251">
        <ele>92</ele>
        <time>2026-03-06T19:05:58.000Z</time>
      </trkpt>
      <trkpt lat="43.36827" lon="-1.35242">
        <ele>92</ele>
        <time>2026-03-06T19:05:59.000Z</time>
      </trkpt>
      <trkpt lat="43.36846" lon="-1.35222">
        <ele>92</ele>
        <time>2026-03-06T19:06:04.000Z</time>
      </trkpt>
      <trkpt lat="43.36854" lon="-1.35215">
        <ele>93</ele>
        <time>2026-03-06T19:06:05.000Z</time>
      </trkpt>
      <trkpt lat="43.3691" lon="-1.3517">
        <ele>96</ele>
        <time>2026-03-06T19:06:17.000Z</time>
      </trkpt>
      <trkpt lat="43.36937" lon="-1.35156">
        <ele>98</ele>
        <time>2026-03-06T19:06:22.000Z</time>
      </trkpt>
      <trkpt lat="43.36947" lon="-1.35154">
        <ele>100</ele>
        <time>2026-03-06T19:06:24.000Z</time>
      </trkpt>
      <trkpt lat="43.36972" lon="-1.35153">
        <ele>102</ele>
        <time>2026-03-06T19:06:28.000Z</time>
      </trkpt>
      <trkpt lat="43.3709" lon="-1.35168">
        <ele>112</ele>
        <time>2026-03-06T19:06:49.000Z</time>
      </trkpt>
      <trkpt lat="43.37112" lon="-1.35166">
        <ele>113</ele>
        <time>2026-03-06T19:06:53.000Z</time>
      </trkpt>
      <trkpt lat="43.3713" lon="-1.35162">
        <ele>114</ele>
        <time>2026-03-06T19:06:57.000Z</time>
      </trkpt>
      <trkpt lat="43.37143" lon="-1.35153">
        <ele>116</ele>
        <time>2026-03-06T19:06:59.000Z</time>
      </trkpt>
      <trkpt lat="43.37155" lon="-1.35143">
        <ele>118</ele>
        <time>2026-03-06T19:07:02.000Z</time>
      </trkpt>
      <trkpt lat="43.37191" lon="-1.35103">
        <ele>123</ele>
        <time>2026-03-06T19:07:10.000Z</time>
      </trkpt>
      <trkpt lat="43.37254" lon="-1.35008">
        <ele>129</ele>
        <time>2026-03-06T19:07:26.000Z</time>
      </trkpt>
      <trkpt lat="43.37317" lon="-1.34904">
        <ele>137</ele>
        <time>2026-03-06T19:07:44.000Z</time>
      </trkpt>
      <trkpt lat="43.3734" lon="-1.34878">
        <ele>138</ele>
        <time>2026-03-06T19:07:49.000Z</time>
      </trkpt>
      <trkpt lat="43.37369" lon="-1.34851">
        <ele>141</ele>
        <time>2026-03-06T19:07:56.000Z</time>
      </trkpt>
      <trkpt lat="43.37378" lon="-1.3484">
        <ele>141</ele>
        <time>2026-03-06T19:07:58.000Z</time>
      </trkpt>
      <trkpt lat="43.37384" lon="-1.34832">
        <ele>141</ele>
        <time>2026-03-06T19:07:59.000Z</time>
      </trkpt>
      <trkpt lat="43.37389" lon="-1.34821">
        <ele>141</ele>
        <time>2026-03-06T19:08:01.000Z</time>
      </trkpt>
      <trkpt lat="43.37392" lon="-1.34809">
        <ele>141</ele>
        <time>2026-03-06T19:08:02.000Z</time>
      </trkpt>
      <trkpt lat="43.37406" lon="-1.34814">
        <ele>141</ele>
        <time>2026-03-06T19:08:05.000Z</time>
      </trkpt>
      <trkpt lat="43.37419" lon="-1.34826">
        <ele>141</ele>
        <time>2026-03-06T19:08:08.000Z</time>
      </trkpt>
      <trkpt lat="43.3744" lon="-1.3485">
        <ele>144</ele>
        <time>2026-03-06T19:08:13.000Z</time>
      </trkpt>
      <trkpt lat="43.37457" lon="-1.34868">
        <ele>148</ele>
        <time>2026-03-06T19:08:16.000Z</time>
      </trkpt>
      <trkpt lat="43.37465" lon="-1.34873">
        <ele>149</ele>
        <time>2026-03-06T19:08:18.000Z</time>
      </trkpt>
      <trkpt lat="43.37473" lon="-1.34874">
        <ele>150</ele>
        <time>2026-03-06T19:08:19.000Z</time>
      </trkpt>
      <trkpt lat="43.37508" lon="-1.34865">
        <ele>153</ele>
        <time>2026-03-06T19:08:26.000Z</time>
      </trkpt>
      <trkpt lat="43.37521" lon="-1.34858">
        <ele>153</ele>
        <time>2026-03-06T19:08:28.000Z</time>
      </trkpt>
      <trkpt lat="43.37544" lon="-1.34836">
        <ele>151</ele>
        <time>2026-03-06T19:08:33.000Z</time>
      </trkpt>
      <trkpt lat="43.37552" lon="-1.34831">
        <ele>151</ele>
        <time>2026-03-06T19:08:35.000Z</time>
      </trkpt>
      <trkpt lat="43.37565" lon="-1.34833">
        <ele>152</ele>
        <time>2026-03-06T19:08:37.000Z</time>
      </trkpt>
      <trkpt lat="43.37573" lon="-1.34841">
        <ele>153</ele>
        <time>2026-03-06T19:08:39.000Z</time>
      </trkpt>
      <trkpt lat="43.37578" lon="-1.34851">
        <ele>154</ele>
        <time>2026-03-06T19:08:41.000Z</time>
      </trkpt>
      <trkpt lat="43.3758" lon="-1.3486">
        <ele>155</ele>
        <time>2026-03-06T19:08:42.000Z</time>
      </trkpt>
      <trkpt lat="43.37579" lon="-1.34881">
        <ele>156</ele>
        <time>2026-03-06T19:08:44.000Z</time>
      </trkpt>
      <trkpt lat="43.37555" lon="-1.34962">
        <ele>164</ele>
        <time>2026-03-06T19:08:56.000Z</time>
      </trkpt>
      <trkpt lat="43.37554" lon="-1.34979">
        <ele>165</ele>
        <time>2026-03-06T19:08:58.000Z</time>
      </trkpt>
      <trkpt lat="43.37555" lon="-1.35004">
        <ele>168</ele>
        <time>2026-03-06T19:09:01.000Z</time>
      </trkpt>
      <trkpt lat="43.37562" lon="-1.35034">
        <ele>171</ele>
        <time>2026-03-06T19:09:05.000Z</time>
      </trkpt>
      <trkpt lat="43.37569" lon="-1.3505">
        <ele>174</ele>
        <time>2026-03-06T19:09:08.000Z</time>
      </trkpt>
      <trkpt lat="43.37587" lon="-1.35071">
        <ele>178</ele>
        <time>2026-03-06T19:09:12.000Z</time>
      </trkpt>
      <trkpt lat="43.37682" lon="-1.35156">
        <ele>179</ele>
        <time>2026-03-06T19:09:32.000Z</time>
      </trkpt>
      <trkpt lat="43.37695" lon="-1.35171">
        <ele>180</ele>
        <time>2026-03-06T19:09:35.000Z</time>
      </trkpt>
      <trkpt lat="43.37725" lon="-1.35212">
        <ele>179</ele>
        <time>2026-03-06T19:09:43.000Z</time>
      </trkpt>
      <trkpt lat="43.37747" lon="-1.35233">
        <ele>180</ele>
        <time>2026-03-06T19:09:47.000Z</time>
      </trkpt>
      <trkpt lat="43.37778" lon="-1.35254">
        <ele>181</ele>
        <time>2026-03-06T19:09:54.000Z</time>
      </trkpt>
      <trkpt lat="43.3782" lon="-1.35268">
        <ele>183</ele>
        <time>2026-03-06T19:10:01.000Z</time>
      </trkpt>
      <trkpt lat="43.37842" lon="-1.35273">
        <ele>183</ele>
        <time>2026-03-06T19:10:05.000Z</time>
      </trkpt>
      <trkpt lat="43.37855" lon="-1.35273">
        <ele>182</ele>
        <time>2026-03-06T19:10:07.000Z</time>
      </trkpt>
      <trkpt lat="43.37856" lon="-1.35264">
        <ele>183</ele>
        <time>2026-03-06T19:10:09.000Z</time>
      </trkpt>
      <trkpt lat="43.37918" lon="-1.35256">
        <ele>179</ele>
        <time>2026-03-06T19:10:20.000Z</time>
      </trkpt>
      <trkpt lat="43.37956" lon="-1.35255">
        <ele>175</ele>
        <time>2026-03-06T19:10:26.000Z</time>
      </trkpt>
      <trkpt lat="43.37977" lon="-1.3526">
        <ele>173</ele>
        <time>2026-03-06T19:10:30.000Z</time>
      </trkpt>
      <trkpt lat="43.37997" lon="-1.35271">
        <ele>170</ele>
        <time>2026-03-06T19:10:34.000Z</time>
      </trkpt>
      <trkpt lat="43.38018" lon="-1.35276">
        <ele>169</ele>
        <time>2026-03-06T19:10:38.000Z</time>
      </trkpt>
      <trkpt lat="43.38066" lon="-1.35278">
        <ele>168</ele>
        <time>2026-03-06T19:10:46.000Z</time>
      </trkpt>
      <trkpt lat="43.38076" lon="-1.35264">
        <ele>170</ele>
        <time>2026-03-06T19:10:49.000Z</time>
      </trkpt>
      <trkpt lat="43.38088" lon="-1.35253">
        <ele>171</ele>
        <time>2026-03-06T19:10:52.000Z</time>
      </trkpt>
      <trkpt lat="43.38102" lon="-1.35247">
        <ele>171</ele>
        <time>2026-03-06T19:10:54.000Z</time>
      </trkpt>
      <trkpt lat="43.38142" lon="-1.35241">
        <ele>173</ele>
        <time>2026-03-06T19:11:01.000Z</time>
      </trkpt>
      <trkpt lat="43.38175" lon="-1.35223">
        <ele>174</ele>
        <time>2026-03-06T19:11:08.000Z</time>
      </trkpt>
      <trkpt lat="43.38201" lon="-1.35215">
        <ele>176</ele>
        <time>2026-03-06T19:11:12.000Z</time>
      </trkpt>
      <trkpt lat="43.38215" lon="-1.35214">
        <ele>177</ele>
        <time>2026-03-06T19:11:15.000Z</time>
      </trkpt>
      <trkpt lat="43.38248" lon="-1.35221">
        <ele>180</ele>
        <time>2026-03-06T19:11:21.000Z</time>
      </trkpt>
      <trkpt lat="43.38261" lon="-1.35218">
        <ele>180</ele>
        <time>2026-03-06T19:11:23.000Z</time>
      </trkpt>
      <trkpt lat="43.38299" lon="-1.35197">
        <ele>178</ele>
        <time>2026-03-06T19:11:30.000Z</time>
      </trkpt>
      <trkpt lat="43.38324" lon="-1.35172">
        <ele>176</ele>
        <time>2026-03-06T19:11:36.000Z</time>
      </trkpt>
      <trkpt lat="43.38369" lon="-1.351">
        <ele>166</ele>
        <time>2026-03-06T19:11:48.000Z</time>
      </trkpt>
      <trkpt lat="43.38406" lon="-1.35069">
        <ele>164</ele>
        <time>2026-03-06T19:11:56.000Z</time>
      </trkpt>
      <trkpt lat="43.38447" lon="-1.35043">
        <ele>162</ele>
        <time>2026-03-06T19:12:04.000Z</time>
      </trkpt>
      <trkpt lat="43.38479" lon="-1.35016">
        <ele>161</ele>
        <time>2026-03-06T19:12:11.000Z</time>
      </trkpt>
      <trkpt lat="43.38515" lon="-1.34969">
        <ele>161</ele>
        <time>2026-03-06T19:12:19.000Z</time>
      </trkpt>
      <trkpt lat="43.38557" lon="-1.3493">
        <ele>164</ele>
        <time>2026-03-06T19:12:28.000Z</time>
      </trkpt>
      <trkpt lat="43.38588" lon="-1.34885">
        <ele>165</ele>
        <time>2026-03-06T19:12:37.000Z</time>
      </trkpt>
      <trkpt lat="43.38655" lon="-1.34829">
        <ele>158</ele>
        <time>2026-03-06T19:12:50.000Z</time>
      </trkpt>
      <trkpt lat="43.38687" lon="-1.34856">
        <ele>156</ele>
        <time>2026-03-06T19:12:57.000Z</time>
      </trkpt>
      <trkpt lat="43.38708" lon="-1.3486">
        <ele>154</ele>
        <time>2026-03-06T19:13:01.000Z</time>
      </trkpt>
      <trkpt lat="43.38742" lon="-1.34854">
        <ele>151</ele>
        <time>2026-03-06T19:13:07.000Z</time>
      </trkpt>
      <trkpt lat="43.38816" lon="-1.34871">
        <ele>154</ele>
        <time>2026-03-06T19:13:20.000Z</time>
      </trkpt>
      <trkpt lat="43.3886" lon="-1.34889">
        <ele>153</ele>
        <time>2026-03-06T19:13:29.000Z</time>
      </trkpt>
      <trkpt lat="43.38906" lon="-1.34822">
        <ele>153</ele>
        <time>2026-03-06T19:13:40.000Z</time>
      </trkpt>
      <trkpt lat="43.3892" lon="-1.3481">
        <ele>152</ele>
        <time>2026-03-06T19:13:43.000Z</time>
      </trkpt>
      <trkpt lat="43.38933" lon="-1.34798">
        <ele>150</ele>
        <time>2026-03-06T19:13:46.000Z</time>
      </trkpt>
      <trkpt lat="43.38979" lon="-1.34766">
        <ele>146</ele>
        <time>2026-03-06T19:13:55.000Z</time>
      </trkpt>
      <trkpt lat="43.39011" lon="-1.34753">
        <ele>146</ele>
        <time>2026-03-06T19:14:01.000Z</time>
      </trkpt>
      <trkpt lat="43.39025" lon="-1.3475">
        <ele>147</ele>
        <time>2026-03-06T19:14:04.000Z</time>
      </trkpt>
      <trkpt lat="43.3905" lon="-1.34764">
        <ele>148</ele>
        <time>2026-03-06T19:14:09.000Z</time>
      </trkpt>
      <trkpt lat="43.39074" lon="-1.3479">
        <ele>149</ele>
        <time>2026-03-06T19:14:14.000Z</time>
      </trkpt>
      <trkpt lat="43.39095" lon="-1.348">
        <ele>151</ele>
        <time>2026-03-06T19:14:18.000Z</time>
      </trkpt>
      <trkpt lat="43.39127" lon="-1.34796">
        <ele>154</ele>
        <time>2026-03-06T19:14:24.000Z</time>
      </trkpt>
      <trkpt lat="43.39164" lon="-1.34801">
        <ele>156</ele>
        <time>2026-03-06T19:14:30.000Z</time>
      </trkpt>
      <trkpt lat="43.39226" lon="-1.34796">
        <ele>156</ele>
        <time>2026-03-06T19:14:41.000Z</time>
      </trkpt>
      <trkpt lat="43.39241" lon="-1.34787">
        <ele>156</ele>
        <time>2026-03-06T19:14:44.000Z</time>
      </trkpt>
      <trkpt lat="43.39267" lon="-1.34729">
        <ele>151</ele>
        <time>2026-03-06T19:14:53.000Z</time>
      </trkpt>
      <trkpt lat="43.39293" lon="-1.34696">
        <ele>147</ele>
        <time>2026-03-06T19:14:59.000Z</time>
      </trkpt>
      <trkpt lat="43.39318" lon="-1.3467">
        <ele>146</ele>
        <time>2026-03-06T19:15:05.000Z</time>
      </trkpt>
      <trkpt lat="43.39347" lon="-1.34667">
        <ele>143</ele>
        <time>2026-03-06T19:15:10.000Z</time>
      </trkpt>
      <trkpt lat="43.39401" lon="-1.34646">
        <ele>138</ele>
        <time>2026-03-06T19:15:20.000Z</time>
      </trkpt>
      <trkpt lat="43.39441" lon="-1.34626">
        <ele>135</ele>
        <time>2026-03-06T19:15:28.000Z</time>
      </trkpt>
      <trkpt lat="43.39469" lon="-1.34603">
        <ele>136</ele>
        <time>2026-03-06T19:15:33.000Z</time>
      </trkpt>
      <trkpt lat="43.39482" lon="-1.34577">
        <ele>138</ele>
        <time>2026-03-06T19:15:38.000Z</time>
      </trkpt>
      <trkpt lat="43.39487" lon="-1.34536">
        <ele>139</ele>
        <time>2026-03-06T19:15:43.000Z</time>
      </trkpt>
      <trkpt lat="43.39495" lon="-1.34514">
        <ele>140</ele>
        <time>2026-03-06T19:15:46.000Z</time>
      </trkpt>
      <trkpt lat="43.39513" lon="-1.34479">
        <ele>143</ele>
        <time>2026-03-06T19:15:52.000Z</time>
      </trkpt>
      <trkpt lat="43.39593" lon="-1.34463">
        <ele>147</ele>
        <time>2026-03-06T19:16:06.000Z</time>
      </trkpt>
      <trkpt lat="43.39604" lon="-1.34468">
        <ele>148</ele>
        <time>2026-03-06T19:16:08.000Z</time>
      </trkpt>
      <trkpt lat="43.39632" lon="-1.34492">
        <ele>148</ele>
        <time>2026-03-06T19:16:14.000Z</time>
      </trkpt>
      <trkpt lat="43.39659" lon="-1.34497">
        <ele>150</ele>
        <time>2026-03-06T19:16:19.000Z</time>
      </trkpt>
      <trkpt lat="43.39674" lon="-1.34503">
        <ele>151</ele>
        <time>2026-03-06T19:16:22.000Z</time>
      </trkpt>
      <trkpt lat="43.39693" lon="-1.3452">
        <ele>149</ele>
        <time>2026-03-06T19:16:26.000Z</time>
      </trkpt>
      <trkpt lat="43.39721" lon="-1.34551">
        <ele>146</ele>
        <time>2026-03-06T19:16:32.000Z</time>
      </trkpt>
      <trkpt lat="43.39738" lon="-1.34565">
        <ele>145</ele>
        <time>2026-03-06T19:16:36.000Z</time>
      </trkpt>
      <trkpt lat="43.39749" lon="-1.34564">
        <ele>147</ele>
        <time>2026-03-06T19:16:38.000Z</time>
      </trkpt>
      <trkpt lat="43.39759" lon="-1.34562">
        <ele>146</ele>
        <time>2026-03-06T19:16:39.000Z</time>
      </trkpt>
      <trkpt lat="43.39814" lon="-1.34503">
        <ele>149</ele>
        <time>2026-03-06T19:16:52.000Z</time>
      </trkpt>
      <trkpt lat="43.39843" lon="-1.3448">
        <ele>147</ele>
        <time>2026-03-06T19:16:58.000Z</time>
      </trkpt>
      <trkpt lat="43.39876" lon="-1.34498">
        <ele>147</ele>
        <time>2026-03-06T19:17:04.000Z</time>
      </trkpt>
      <trkpt lat="43.39903" lon="-1.3452">
        <ele>146</ele>
        <time>2026-03-06T19:17:10.000Z</time>
      </trkpt>
      <trkpt lat="43.39949" lon="-1.34574">
        <ele>144</ele>
        <time>2026-03-06T19:17:20.000Z</time>
      </trkpt>
      <trkpt lat="43.3998" lon="-1.34602">
        <ele>145</ele>
        <time>2026-03-06T19:17:27.000Z</time>
      </trkpt>
      <trkpt lat="43.40014" lon="-1.3464">
        <ele>145</ele>
        <time>2026-03-06T19:17:35.000Z</time>
      </trkpt>
      <trkpt lat="43.40069" lon="-1.34741">
        <ele>142</ele>
        <time>2026-03-06T19:17:51.000Z</time>
      </trkpt>
      <trkpt lat="43.4012" lon="-1.34805">
        <ele>140</ele>
        <time>2026-03-06T19:18:03.000Z</time>
      </trkpt>
      <trkpt lat="43.40154" lon="-1.34865">
        <ele>144</ele>
        <time>2026-03-06T19:18:13.000Z</time>
      </trkpt>
      <trkpt lat="43.4018" lon="-1.3488">
        <ele>145</ele>
        <time>2026-03-06T19:18:18.000Z</time>
      </trkpt>
      <trkpt lat="43.40199" lon="-1.34904">
        <ele>144</ele>
        <time>2026-03-06T19:18:23.000Z</time>
      </trkpt>
      <trkpt lat="43.40214" lon="-1.34937">
        <ele>145</ele>
        <time>2026-03-06T19:18:28.000Z</time>
      </trkpt>
      <trkpt lat="43.4024" lon="-1.34964">
        <ele>146</ele>
        <time>2026-03-06T19:18:34.000Z</time>
      </trkpt>
      <trkpt lat="43.40286" lon="-1.35037">
        <ele>144</ele>
        <time>2026-03-06T19:18:46.000Z</time>
      </trkpt>
      <trkpt lat="43.40359" lon="-1.35105">
        <ele>141</ele>
        <time>2026-03-06T19:19:02.000Z</time>
      </trkpt>
      <trkpt lat="43.40404" lon="-1.35114">
        <ele>140</ele>
        <time>2026-03-06T19:19:10.000Z</time>
      </trkpt>
      <trkpt lat="43.40427" lon="-1.35105">
        <ele>140</ele>
        <time>2026-03-06T19:19:14.000Z</time>
      </trkpt>
      <trkpt lat="43.40501" lon="-1.35057">
        <ele>140</ele>
        <time>2026-03-06T19:19:29.000Z</time>
      </trkpt>
      <trkpt lat="43.40536" lon="-1.35032">
        <ele>139</ele>
        <time>2026-03-06T19:19:36.000Z</time>
      </trkpt>
      <trkpt lat="43.40622" lon="-1.34998">
        <ele>140</ele>
        <time>2026-03-06T19:19:52.000Z</time>
      </trkpt>
      <trkpt lat="43.4075" lon="-1.34983">
        <ele>131</ele>
        <time>2026-03-06T19:20:14.000Z</time>
      </trkpt>
      <trkpt lat="43.40815" lon="-1.35004">
        <ele>134</ele>
        <time>2026-03-06T19:20:26.000Z</time>
      </trkpt>
      <trkpt lat="43.40874" lon="-1.35019">
        <ele>138</ele>
        <time>2026-03-06T19:20:37.000Z</time>
      </trkpt>
      <trkpt lat="43.40916" lon="-1.35013">
        <ele>140</ele>
        <time>2026-03-06T19:20:45.000Z</time>
      </trkpt>
      <trkpt lat="43.40982" lon="-1.34992">
        <ele>151</ele>
        <time>2026-03-06T19:20:57.000Z</time>
      </trkpt>
      <trkpt lat="43.41004" lon="-1.34988">
        <ele>153</ele>
        <time>2026-03-06T19:21:01.000Z</time>
      </trkpt>
      <trkpt lat="43.41021" lon="-1.34988">
        <ele>153</ele>
        <time>2026-03-06T19:21:04.000Z</time>
      </trkpt>
      <trkpt lat="43.4104" lon="-1.34995">
        <ele>155</ele>
        <time>2026-03-06T19:21:07.000Z</time>
      </trkpt>
      <trkpt lat="43.41085" lon="-1.35017">
        <ele>159</ele>
        <time>2026-03-06T19:21:16.000Z</time>
      </trkpt>
      <trkpt lat="43.41092" lon="-1.35021">
        <ele>159</ele>
        <time>2026-03-06T19:21:17.000Z</time>
      </trkpt>
      <trkpt lat="43.411" lon="-1.35035">
        <ele>160</ele>
        <time>2026-03-06T19:21:19.000Z</time>
      </trkpt>
      <trkpt lat="43.41101" lon="-1.35049">
        <ele>161</ele>
        <time>2026-03-06T19:21:21.000Z</time>
      </trkpt>
      <trkpt lat="43.411" lon="-1.35063">
        <ele>163</ele>
        <time>2026-03-06T19:21:23.000Z</time>
      </trkpt>
      <trkpt lat="43.41091" lon="-1.35092">
        <ele>166</ele>
        <time>2026-03-06T19:21:27.000Z</time>
      </trkpt>
      <trkpt lat="43.41071" lon="-1.35136">
        <ele>164</ele>
        <time>2026-03-06T19:21:34.000Z</time>
      </trkpt>
      <trkpt lat="43.41064" lon="-1.35157">
        <ele>162</ele>
        <time>2026-03-06T19:21:37.000Z</time>
      </trkpt>
      <trkpt lat="43.41055" lon="-1.35253">
        <ele>157</ele>
        <time>2026-03-06T19:21:49.000Z</time>
      </trkpt>
      <trkpt lat="43.41051" lon="-1.35316">
        <ele>155</ele>
        <time>2026-03-06T19:21:57.000Z</time>
      </trkpt>
      <trkpt lat="43.4105" lon="-1.35454">
        <ele>150</ele>
        <time>2026-03-06T19:22:15.000Z</time>
      </trkpt>
      <trkpt lat="43.41056" lon="-1.35473">
        <ele>151</ele>
        <time>2026-03-06T19:22:18.000Z</time>
      </trkpt>
      <trkpt lat="43.41073" lon="-1.355">
        <ele>150</ele>
        <time>2026-03-06T19:22:22.000Z</time>
      </trkpt>
      <trkpt lat="43.41096" lon="-1.35531">
        <ele>144</ele>
        <time>2026-03-06T19:22:28.000Z</time>
      </trkpt>
      <trkpt lat="43.41115" lon="-1.35549">
        <ele>142</ele>
        <time>2026-03-06T19:22:32.000Z</time>
      </trkpt>
      <trkpt lat="43.41172" lon="-1.35574">
        <ele>142</ele>
        <time>2026-03-06T19:22:43.000Z</time>
      </trkpt>
      <trkpt lat="43.41205" lon="-1.35605">
        <ele>142</ele>
        <time>2026-03-06T19:22:50.000Z</time>
      </trkpt>
      <trkpt lat="43.41221" lon="-1.35615">
        <ele>143</ele>
        <time>2026-03-06T19:22:53.000Z</time>
      </trkpt>
      <trkpt lat="43.41244" lon="-1.35624">
        <ele>144</ele>
        <time>2026-03-06T19:22:57.000Z</time>
      </trkpt>
      <trkpt lat="43.41262" lon="-1.35627">
        <ele>146</ele>
        <time>2026-03-06T19:23:01.000Z</time>
      </trkpt>
      <trkpt lat="43.41284" lon="-1.35628">
        <ele>149</ele>
        <time>2026-03-06T19:23:05.000Z</time>
      </trkpt>
      <trkpt lat="43.41348" lon="-1.35621">
        <ele>155</ele>
        <time>2026-03-06T19:23:16.000Z</time>
      </trkpt>
      <trkpt lat="43.41371" lon="-1.35616">
        <ele>157</ele>
        <time>2026-03-06T19:23:20.000Z</time>
      </trkpt>
      <trkpt lat="43.41464" lon="-1.35583">
        <ele>155</ele>
        <time>2026-03-06T19:23:37.000Z</time>
      </trkpt>
      <trkpt lat="43.41552" lon="-1.35554">
        <ele>147</ele>
        <time>2026-03-06T19:23:53.000Z</time>
      </trkpt>
      <trkpt lat="43.41573" lon="-1.35548">
        <ele>145</ele>
        <time>2026-03-06T19:23:57.000Z</time>
      </trkpt>
      <trkpt lat="43.41622" lon="-1.35551">
        <ele>144</ele>
        <time>2026-03-06T19:24:06.000Z</time>
      </trkpt>
      <trkpt lat="43.41702" lon="-1.35568">
        <ele>147</ele>
        <time>2026-03-06T19:24:20.000Z</time>
      </trkpt>
      <trkpt lat="43.41769" lon="-1.3555">
        <ele>151</ele>
        <time>2026-03-06T19:24:32.000Z</time>
      </trkpt>
      <trkpt lat="43.41787" lon="-1.35547">
        <ele>152</ele>
        <time>2026-03-06T19:24:36.000Z</time>
      </trkpt>
      <trkpt lat="43.41812" lon="-1.35547">
        <ele>154</ele>
        <time>2026-03-06T19:24:40.000Z</time>
      </trkpt>
      <trkpt lat="43.41834" lon="-1.3555">
        <ele>155</ele>
        <time>2026-03-06T19:24:44.000Z</time>
      </trkpt>
      <trkpt lat="43.41865" lon="-1.3556">
        <ele>155</ele>
        <time>2026-03-06T19:24:50.000Z</time>
      </trkpt>
      <trkpt lat="43.419" lon="-1.35579">
        <ele>156</ele>
        <time>2026-03-06T19:24:56.000Z</time>
      </trkpt>
      <trkpt lat="43.41921" lon="-1.35594">
        <ele>157</ele>
        <time>2026-03-06T19:25:01.000Z</time>
      </trkpt>
      <trkpt lat="43.4197" lon="-1.35634">
        <ele>161</ele>
        <time>2026-03-06T19:25:11.000Z</time>
      </trkpt>
      <trkpt lat="43.4202" lon="-1.35668">
        <ele>166</ele>
        <time>2026-03-06T19:25:21.000Z</time>
      </trkpt>
      <trkpt lat="43.42036" lon="-1.35674">
        <ele>166</ele>
        <time>2026-03-06T19:25:24.000Z</time>
      </trkpt>
      <trkpt lat="43.42134" lon="-1.357">
        <ele>166</ele>
        <time>2026-03-06T19:25:41.000Z</time>
      </trkpt>
      <trkpt lat="43.42236" lon="-1.35738">
        <ele>162</ele>
        <time>2026-03-06T19:26:00.000Z</time>
      </trkpt>
      <trkpt lat="43.42301" lon="-1.35751">
        <ele>164</ele>
        <time>2026-03-06T19:26:12.000Z</time>
      </trkpt>
      <trkpt lat="43.423" lon="-1.35765">
        <ele>163</ele>
        <time>2026-03-06T19:26:14.000Z</time>
      </trkpt>
      <trkpt lat="43.42291" lon="-1.35783">
        <ele>162</ele>
        <time>2026-03-06T19:26:16.000Z</time>
      </trkpt>
      <trkpt lat="43.42269" lon="-1.35819">
        <ele>161</ele>
        <time>2026-03-06T19:26:23.000Z</time>
      </trkpt>
      <trkpt lat="43.42264" lon="-1.35833">
        <ele>161</ele>
        <time>2026-03-06T19:26:25.000Z</time>
      </trkpt>
      <trkpt lat="43.42262" lon="-1.35847">
        <ele>160</ele>
        <time>2026-03-06T19:26:26.000Z</time>
      </trkpt>
      <trkpt lat="43.42262" lon="-1.35873">
        <ele>159</ele>
        <time>2026-03-06T19:26:30.000Z</time>
      </trkpt>
      <trkpt lat="43.42264" lon="-1.35915">
        <ele>157</ele>
        <time>2026-03-06T19:26:35.000Z</time>
      </trkpt>
      <trkpt lat="43.42272" lon="-1.36001">
        <ele>155</ele>
        <time>2026-03-06T19:26:46.000Z</time>
      </trkpt>
      <trkpt lat="43.42269" lon="-1.36073">
        <ele>155</ele>
        <time>2026-03-06T19:26:56.000Z</time>
      </trkpt>
      <trkpt lat="43.42274" lon="-1.36227">
        <ele>149</ele>
        <time>2026-03-06T19:27:16.000Z</time>
      </trkpt>
      <trkpt lat="43.42274" lon="-1.36264">
        <ele>149</ele>
        <time>2026-03-06T19:27:20.000Z</time>
      </trkpt>
      <trkpt lat="43.42266" lon="-1.36344">
        <ele>148</ele>
        <time>2026-03-06T19:27:31.000Z</time>
      </trkpt>
      <trkpt lat="43.42261" lon="-1.3637">
        <ele>149</ele>
        <time>2026-03-06T19:27:34.000Z</time>
      </trkpt>
      <trkpt lat="43.42235" lon="-1.36457">
        <ele>150</ele>
        <time>2026-03-06T19:27:47.000Z</time>
      </trkpt>
      <trkpt lat="43.42234" lon="-1.36488">
        <ele>150</ele>
        <time>2026-03-06T19:27:51.000Z</time>
      </trkpt>
      <trkpt lat="43.42238" lon="-1.36515">
        <ele>150</ele>
        <time>2026-03-06T19:27:54.000Z</time>
      </trkpt>
      <trkpt lat="43.42249" lon="-1.36565">
        <ele>149</ele>
        <time>2026-03-06T19:28:01.000Z</time>
      </trkpt>
      <trkpt lat="43.42264" lon="-1.3661">
        <ele>147</ele>
        <time>2026-03-06T19:28:07.000Z</time>
      </trkpt>
      <trkpt lat="43.42295" lon="-1.36727">
        <ele>148</ele>
        <time>2026-03-06T19:28:23.000Z</time>
      </trkpt>
      <trkpt lat="43.42309" lon="-1.36765">
        <ele>150</ele>
        <time>2026-03-06T19:28:29.000Z</time>
      </trkpt>
      <trkpt lat="43.42342" lon="-1.36817">
        <ele>153</ele>
        <time>2026-03-06T19:28:38.000Z</time>
      </trkpt>
      <trkpt lat="43.42366" lon="-1.36847">
        <ele>152</ele>
        <time>2026-03-06T19:28:44.000Z</time>
      </trkpt>
      <trkpt lat="43.42422" lon="-1.36905">
        <ele>151</ele>
        <time>2026-03-06T19:28:56.000Z</time>
      </trkpt>
      <trkpt lat="43.4254" lon="-1.37039">
        <ele>142</ele>
        <time>2026-03-06T19:29:23.000Z</time>
      </trkpt>
      <trkpt lat="43.42677" lon="-1.37195">
        <ele>135</ele>
        <time>2026-03-06T19:29:55.000Z</time>
      </trkpt>
      <trkpt lat="43.42702" lon="-1.37227">
        <ele>136</ele>
        <time>2026-03-06T19:30:01.000Z</time>
      </trkpt>
      <trkpt lat="43.42737" lon="-1.3728">
        <ele>141</ele>
        <time>2026-03-06T19:30:10.000Z</time>
      </trkpt>
      <trkpt lat="43.42747" lon="-1.37303">
        <ele>144</ele>
        <time>2026-03-06T19:30:14.000Z</time>
      </trkpt>
      <trkpt lat="43.42755" lon="-1.37345">
        <ele>147</ele>
        <time>2026-03-06T19:30:19.000Z</time>
      </trkpt>
      <trkpt lat="43.42755" lon="-1.37393">
        <ele>151</ele>
        <time>2026-03-06T19:30:25.000Z</time>
      </trkpt>
      <trkpt lat="43.42751" lon="-1.3742">
        <ele>153</ele>
        <time>2026-03-06T19:30:29.000Z</time>
      </trkpt>
      <trkpt lat="43.42739" lon="-1.37472">
        <ele>155</ele>
        <time>2026-03-06T19:30:36.000Z</time>
      </trkpt>
      <trkpt lat="43.42739" lon="-1.37489">
        <ele>157</ele>
        <time>2026-03-06T19:30:38.000Z</time>
      </trkpt>
      <trkpt lat="43.42745" lon="-1.37516">
        <ele>157</ele>
        <time>2026-03-06T19:30:42.000Z</time>
      </trkpt>
      <trkpt lat="43.42785" lon="-1.37536">
        <ele>156</ele>
        <time>2026-03-06T19:30:49.000Z</time>
      </trkpt>
      <trkpt lat="43.42837" lon="-1.37552">
        <ele>156</ele>
        <time>2026-03-06T19:30:59.000Z</time>
      </trkpt>
      <trkpt lat="43.42849" lon="-1.37559">
        <ele>155</ele>
        <time>2026-03-06T19:31:01.000Z</time>
      </trkpt>
      <trkpt lat="43.42867" lon="-1.37559">
        <ele>153</ele>
        <time>2026-03-06T19:31:04.000Z</time>
      </trkpt>
      <trkpt lat="43.42894" lon="-1.37568">
        <ele>151</ele>
        <time>2026-03-06T19:31:09.000Z</time>
      </trkpt>
      <trkpt lat="43.42963" lon="-1.37587">
        <ele>147</ele>
        <time>2026-03-06T19:31:22.000Z</time>
      </trkpt>
      <trkpt lat="43.43004" lon="-1.37606">
        <ele>143</ele>
        <time>2026-03-06T19:31:30.000Z</time>
      </trkpt>
      <trkpt lat="43.43036" lon="-1.37623">
        <ele>139</ele>
        <time>2026-03-06T19:31:36.000Z</time>
      </trkpt>
      <trkpt lat="43.43051" lon="-1.37635">
        <ele>137</ele>
        <time>2026-03-06T19:31:39.000Z</time>
      </trkpt>
      <trkpt lat="43.43066" lon="-1.37651">
        <ele>136</ele>
        <time>2026-03-06T19:31:42.000Z</time>
      </trkpt>
      <trkpt lat="43.43078" lon="-1.37668">
        <ele>137</ele>
        <time>2026-03-06T19:31:45.000Z</time>
      </trkpt>
      <trkpt lat="43.43087" lon="-1.37685">
        <ele>136</ele>
        <time>2026-03-06T19:31:48.000Z</time>
      </trkpt>
      <trkpt lat="43.43095" lon="-1.3771">
        <ele>135</ele>
        <time>2026-03-06T19:31:52.000Z</time>
      </trkpt>
      <trkpt lat="43.43101" lon="-1.37733">
        <ele>135</ele>
        <time>2026-03-06T19:31:55.000Z</time>
      </trkpt>
      <trkpt lat="43.43105" lon="-1.3778">
        <ele>133</ele>
        <time>2026-03-06T19:32:01.000Z</time>
      </trkpt>
      <trkpt lat="43.43104" lon="-1.37793">
        <ele>132</ele>
        <time>2026-03-06T19:32:02.000Z</time>
      </trkpt>
      <trkpt lat="43.43097" lon="-1.37823">
        <ele>130</ele>
        <time>2026-03-06T19:32:07.000Z</time>
      </trkpt>
      <trkpt lat="43.43091" lon="-1.37838">
        <ele>129</ele>
        <time>2026-03-06T19:32:09.000Z</time>
      </trkpt>
      <trkpt lat="43.43084" lon="-1.37849">
        <ele>128</ele>
        <time>2026-03-06T19:32:11.000Z</time>
      </trkpt>
      <trkpt lat="43.43064" lon="-1.37872">
        <ele>126</ele>
        <time>2026-03-06T19:32:15.000Z</time>
      </trkpt>
      <trkpt lat="43.42996" lon="-1.37916">
        <ele>121</ele>
        <time>2026-03-06T19:32:29.000Z</time>
      </trkpt>
      <trkpt lat="43.4299" lon="-1.37924">
        <ele>120</ele>
        <time>2026-03-06T19:32:30.000Z</time>
      </trkpt>
      <trkpt lat="43.42983" lon="-1.37938">
        <ele>118</ele>
        <time>2026-03-06T19:32:32.000Z</time>
      </trkpt>
      <trkpt lat="43.42979" lon="-1.37957">
        <ele>115</ele>
        <time>2026-03-06T19:32:35.000Z</time>
      </trkpt>
      <trkpt lat="43.4298" lon="-1.37992">
        <ele>111</ele>
        <time>2026-03-06T19:32:39.000Z</time>
      </trkpt>
      <trkpt lat="43.42983" lon="-1.38007">
        <ele>111</ele>
        <time>2026-03-06T19:32:41.000Z</time>
      </trkpt>
      <trkpt lat="43.42991" lon="-1.38029">
        <ele>111</ele>
        <time>2026-03-06T19:32:45.000Z</time>
      </trkpt>
      <trkpt lat="43.43006" lon="-1.38053">
        <ele>112</ele>
        <time>2026-03-06T19:32:49.000Z</time>
      </trkpt>
      <trkpt lat="43.4304" lon="-1.38092">
        <ele>113</ele>
        <time>2026-03-06T19:32:57.000Z</time>
      </trkpt>
      <trkpt lat="43.43054" lon="-1.38104">
        <ele>115</ele>
        <time>2026-03-06T19:33:00.000Z</time>
      </trkpt>
      <trkpt lat="43.43139" lon="-1.38162">
        <ele>124</ele>
        <time>2026-03-06T19:33:16.000Z</time>
      </trkpt>
      <trkpt lat="43.43159" lon="-1.3817">
        <ele>126</ele>
        <time>2026-03-06T19:33:20.000Z</time>
      </trkpt>
      <trkpt lat="43.43181" lon="-1.38176">
        <ele>125</ele>
        <time>2026-03-06T19:33:24.000Z</time>
      </trkpt>
      <trkpt lat="43.43293" lon="-1.38189">
        <ele>120</ele>
        <time>2026-03-06T19:33:44.000Z</time>
      </trkpt>
      <trkpt lat="43.4332" lon="-1.38191">
        <ele>119</ele>
        <time>2026-03-06T19:33:49.000Z</time>
      </trkpt>
      <trkpt lat="43.43334" lon="-1.38187">
        <ele>118</ele>
        <time>2026-03-06T19:33:51.000Z</time>
      </trkpt>
      <trkpt lat="43.43356" lon="-1.3817">
        <ele>118</ele>
        <time>2026-03-06T19:33:56.000Z</time>
      </trkpt>
      <trkpt lat="43.43366" lon="-1.3816">
        <ele>117</ele>
        <time>2026-03-06T19:33:58.000Z</time>
      </trkpt>
      <trkpt lat="43.43401" lon="-1.38099">
        <ele>114</ele>
        <time>2026-03-06T19:34:08.000Z</time>
      </trkpt>
      <trkpt lat="43.4343" lon="-1.38055">
        <ele>112</ele>
        <time>2026-03-06T19:34:16.000Z</time>
      </trkpt>
      <trkpt lat="43.43575" lon="-1.37871">
        <ele>115</ele>
        <time>2026-03-06T19:34:51.000Z</time>
      </trkpt>
      <trkpt lat="43.43635" lon="-1.37802">
        <ele>118</ele>
        <time>2026-03-06T19:35:05.000Z</time>
      </trkpt>
      <trkpt lat="43.4367" lon="-1.37773">
        <ele>118</ele>
        <time>2026-03-06T19:35:12.000Z</time>
      </trkpt>
      <trkpt lat="43.43883" lon="-1.3753">
        <ele>109</ele>
        <time>2026-03-06T19:36:01.000Z</time>
      </trkpt>
      <trkpt lat="43.43943" lon="-1.3748">
        <ele>107</ele>
        <time>2026-03-06T19:36:14.000Z</time>
      </trkpt>
      <trkpt lat="43.43955" lon="-1.3747">
        <ele>106</ele>
        <time>2026-03-06T19:36:16.000Z</time>
      </trkpt>
      <trkpt lat="43.43965" lon="-1.37456">
        <ele>104</ele>
        <time>2026-03-06T19:36:19.000Z</time>
      </trkpt>
      <trkpt lat="43.43999" lon="-1.37387">
        <ele>96</ele>
        <time>2026-03-06T19:36:30.000Z</time>
      </trkpt>
      <trkpt lat="43.44041" lon="-1.37315">
        <ele>88</ele>
        <time>2026-03-06T19:36:42.000Z</time>
      </trkpt>
      <trkpt lat="43.4412" lon="-1.37169">
        <ele>82</ele>
        <time>2026-03-06T19:37:05.000Z</time>
      </trkpt>
      <trkpt lat="43.44178" lon="-1.37072">
        <ele>76</ele>
        <time>2026-03-06T19:37:21.000Z</time>
      </trkpt>
      <trkpt lat="43.44192" lon="-1.37053">
        <ele>73</ele>
        <time>2026-03-06T19:37:25.000Z</time>
      </trkpt>
      <trkpt lat="43.44205" lon="-1.37041">
        <ele>71</ele>
        <time>2026-03-06T19:37:28.000Z</time>
      </trkpt>
      <trkpt lat="43.44218" lon="-1.37033">
        <ele>69</ele>
        <time>2026-03-06T19:37:30.000Z</time>
      </trkpt>
      <trkpt lat="43.44245" lon="-1.37026">
        <ele>67</ele>
        <time>2026-03-06T19:37:35.000Z</time>
      </trkpt>
      <trkpt lat="43.44316" lon="-1.37017">
        <ele>63</ele>
        <time>2026-03-06T19:37:48.000Z</time>
      </trkpt>
      <trkpt lat="43.44334" lon="-1.37012">
        <ele>62</ele>
        <time>2026-03-06T19:37:51.000Z</time>
      </trkpt>
      <trkpt lat="43.44418" lon="-1.3698">
        <ele>61</ele>
        <time>2026-03-06T19:38:06.000Z</time>
      </trkpt>
      <trkpt lat="43.44458" lon="-1.36973">
        <ele>62</ele>
        <time>2026-03-06T19:38:14.000Z</time>
      </trkpt>
      <trkpt lat="43.44481" lon="-1.36973">
        <ele>62</ele>
        <time>2026-03-06T19:38:18.000Z</time>
      </trkpt>
      <trkpt lat="43.44519" lon="-1.36984">
        <ele>63</ele>
        <time>2026-03-06T19:38:25.000Z</time>
      </trkpt>
      <trkpt lat="43.44582" lon="-1.36985">
        <ele>63</ele>
        <time>2026-03-06T19:38:36.000Z</time>
      </trkpt>
      <trkpt lat="43.44621" lon="-1.36989">
        <ele>58</ele>
        <time>2026-03-06T19:38:43.000Z</time>
      </trkpt>
      <trkpt lat="43.44694" lon="-1.36994">
        <ele>52</ele>
        <time>2026-03-06T19:38:56.000Z</time>
      </trkpt>
      <trkpt lat="43.44706" lon="-1.36997">
        <ele>52</ele>
        <time>2026-03-06T19:38:58.000Z</time>
      </trkpt>
      <trkpt lat="43.44714" lon="-1.37003">
        <ele>51</ele>
        <time>2026-03-06T19:39:00.000Z</time>
      </trkpt>
      <trkpt lat="43.44727" lon="-1.37018">
        <ele>51</ele>
        <time>2026-03-06T19:39:03.000Z</time>
      </trkpt>
      <trkpt lat="43.44738" lon="-1.37043">
        <ele>51</ele>
        <time>2026-03-06T19:39:06.000Z</time>
      </trkpt>
      <trkpt lat="43.44749" lon="-1.37082">
        <ele>51</ele>
        <time>2026-03-06T19:39:12.000Z</time>
      </trkpt>
      <trkpt lat="43.4476" lon="-1.37103">
        <ele>51</ele>
        <time>2026-03-06T19:39:15.000Z</time>
      </trkpt>
      <trkpt lat="43.44769" lon="-1.37113">
        <ele>51</ele>
        <time>2026-03-06T19:39:17.000Z</time>
      </trkpt>
      <trkpt lat="43.44781" lon="-1.37121">
        <ele>51</ele>
        <time>2026-03-06T19:39:20.000Z</time>
      </trkpt>
      <trkpt lat="43.44793" lon="-1.37125">
        <ele>52</ele>
        <time>2026-03-06T19:39:22.000Z</time>
      </trkpt>
      <trkpt lat="43.44891" lon="-1.37114">
        <ele>54</ele>
        <time>2026-03-06T19:39:39.000Z</time>
      </trkpt>
      <trkpt lat="43.44936" lon="-1.37106">
        <ele>54</ele>
        <time>2026-03-06T19:39:47.000Z</time>
      </trkpt>
      <trkpt lat="43.44952" lon="-1.37099">
        <ele>53</ele>
        <time>2026-03-06T19:39:50.000Z</time>
      </trkpt>
      <trkpt lat="43.44962" lon="-1.37087">
        <ele>52</ele>
        <time>2026-03-06T19:39:53.000Z</time>
      </trkpt>
      <trkpt lat="43.44998" lon="-1.37002">
        <ele>51</ele>
        <time>2026-03-06T19:40:05.000Z</time>
      </trkpt>
      <trkpt lat="43.45007" lon="-1.3699">
        <ele>51</ele>
        <time>2026-03-06T19:40:08.000Z</time>
      </trkpt>
      <trkpt lat="43.45024" lon="-1.36984">
        <ele>51</ele>
        <time>2026-03-06T19:40:11.000Z</time>
      </trkpt>
      <trkpt lat="43.45042" lon="-1.36988">
        <ele>51</ele>
        <time>2026-03-06T19:40:14.000Z</time>
      </trkpt>
      <trkpt lat="43.45063" lon="-1.37005">
        <ele>51</ele>
        <time>2026-03-06T19:40:18.000Z</time>
      </trkpt>
      <trkpt lat="43.45091" lon="-1.37024">
        <ele>49</ele>
        <time>2026-03-06T19:40:24.000Z</time>
      </trkpt>
      <trkpt lat="43.45141" lon="-1.37064">
        <ele>43</ele>
        <time>2026-03-06T19:40:34.000Z</time>
      </trkpt>
      <trkpt lat="43.4523" lon="-1.37085">
        <ele>29</ele>
        <time>2026-03-06T19:40:50.000Z</time>
      </trkpt>
      <trkpt lat="43.45274" lon="-1.37101">
        <ele>23</ele>
        <time>2026-03-06T19:40:58.000Z</time>
      </trkpt>
      <trkpt lat="43.45295" lon="-1.37123">
        <ele>21</ele>
        <time>2026-03-06T19:41:03.000Z</time>
      </trkpt>
      <trkpt lat="43.45317" lon="-1.37155">
        <ele>18</ele>
        <time>2026-03-06T19:41:09.000Z</time>
      </trkpt>
      <trkpt lat="43.4531" lon="-1.37178">
        <ele>18</ele>
        <time>2026-03-06T19:41:12.000Z</time>
      </trkpt>
      <trkpt lat="43.45272" lon="-1.3734">
        <ele>19</ele>
        <time>2026-03-06T19:41:34.000Z</time>
      </trkpt>
      <trkpt lat="43.45272" lon="-1.3741">
        <ele>18</ele>
        <time>2026-03-06T19:41:43.000Z</time>
      </trkpt>
      <trkpt lat="43.45266" lon="-1.37436">
        <ele>17</ele>
        <time>2026-03-06T19:41:46.000Z</time>
      </trkpt>
      <trkpt lat="43.45259" lon="-1.37449">
        <ele>17</ele>
        <time>2026-03-06T19:41:49.000Z</time>
      </trkpt>
      <trkpt lat="43.45193" lon="-1.3757">
        <ele>20</ele>
        <time>2026-03-06T19:42:08.000Z</time>
      </trkpt>
      <trkpt lat="43.45186" lon="-1.37589">
        <ele>19</ele>
        <time>2026-03-06T19:42:11.000Z</time>
      </trkpt>
      <trkpt lat="43.45183" lon="-1.37605">
        <ele>18</ele>
        <time>2026-03-06T19:42:13.000Z</time>
      </trkpt>
      <trkpt lat="43.45181" lon="-1.37641">
        <ele>16</ele>
        <time>2026-03-06T19:42:18.000Z</time>
      </trkpt>
      <trkpt lat="43.45181" lon="-1.37659">
        <ele>15</ele>
        <time>2026-03-06T19:42:20.000Z</time>
      </trkpt>
      <trkpt lat="43.45175" lon="-1.37869">
        <ele>15</ele>
        <time>2026-03-06T19:42:47.000Z</time>
      </trkpt>
      <trkpt lat="43.45177" lon="-1.37902">
        <ele>17</ele>
        <time>2026-03-06T19:42:51.000Z</time>
      </trkpt>
      <trkpt lat="43.45184" lon="-1.37922">
        <ele>18</ele>
        <time>2026-03-06T19:42:54.000Z</time>
      </trkpt>
      <trkpt lat="43.45198" lon="-1.37942">
        <ele>18</ele>
        <time>2026-03-06T19:42:58.000Z</time>
      </trkpt>
      <trkpt lat="43.45211" lon="-1.37958">
        <ele>17</ele>
        <time>2026-03-06T19:43:01.000Z</time>
      </trkpt>
      <trkpt lat="43.45178" lon="-1.38048">
        <ele>19</ele>
        <time>2026-03-06T19:43:14.000Z</time>
      </trkpt>
      <trkpt lat="43.45148" lon="-1.38109">
        <ele>19</ele>
        <time>2026-03-06T19:43:24.000Z</time>
      </trkpt>
      <trkpt lat="43.45123" lon="-1.38145">
        <ele>20</ele>
        <time>2026-03-06T19:43:30.000Z</time>
      </trkpt>
      <trkpt lat="43.45089" lon="-1.38193">
        <ele>20</ele>
        <time>2026-03-06T19:43:39.000Z</time>
      </trkpt>
      <trkpt lat="43.45079" lon="-1.38208">
        <ele>20</ele>
        <time>2026-03-06T19:43:41.000Z</time>
      </trkpt>
      <trkpt lat="43.45034" lon="-1.38269">
        <ele>19</ele>
        <time>2026-03-06T19:43:52.000Z</time>
      </trkpt>
      <trkpt lat="43.45013" lon="-1.38293">
        <ele>20</ele>
        <time>2026-03-06T19:43:57.000Z</time>
      </trkpt>
      <trkpt lat="43.44975" lon="-1.38319">
        <ele>21</ele>
        <time>2026-03-06T19:44:05.000Z</time>
      </trkpt>
      <trkpt lat="43.44943" lon="-1.3833">
        <ele>22</ele>
        <time>2026-03-06T19:44:11.000Z</time>
      </trkpt>
      <trkpt lat="43.44869" lon="-1.38345">
        <ele>24</ele>
        <time>2026-03-06T19:44:24.000Z</time>
      </trkpt>
      <trkpt lat="43.44787" lon="-1.38343">
        <ele>25</ele>
        <time>2026-03-06T19:44:39.000Z</time>
      </trkpt>
      <trkpt lat="43.44758" lon="-1.3835">
        <ele>26</ele>
        <time>2026-03-06T19:44:44.000Z</time>
      </trkpt>
      <trkpt lat="43.44732" lon="-1.38356">
        <ele>27</ele>
        <time>2026-03-06T19:44:49.000Z</time>
      </trkpt>
      <trkpt lat="43.44706" lon="-1.3837">
        <ele>28</ele>
        <time>2026-03-06T19:44:54.000Z</time>
      </trkpt>
      <trkpt lat="43.44694" lon="-1.3838">
        <ele>29</ele>
        <time>2026-03-06T19:44:56.000Z</time>
      </trkpt>
      <trkpt lat="43.44647" lon="-1.38466">
        <ele>31</ele>
        <time>2026-03-06T19:45:10.000Z</time>
      </trkpt>
      <trkpt lat="43.44591" lon="-1.38523">
        <ele>26</ele>
        <time>2026-03-06T19:45:22.000Z</time>
      </trkpt>
      <trkpt lat="43.44584" lon="-1.38525">
        <ele>25</ele>
        <time>2026-03-06T19:45:24.000Z</time>
      </trkpt>
      <trkpt lat="43.44556" lon="-1.38526">
        <ele>24</ele>
        <time>2026-03-06T19:45:29.000Z</time>
      </trkpt>
      <trkpt lat="43.44537" lon="-1.38522">
        <ele>23</ele>
        <time>2026-03-06T19:45:32.000Z</time>
      </trkpt>
      <trkpt lat="43.44524" lon="-1.38515">
        <ele>22</ele>
        <time>2026-03-06T19:45:35.000Z</time>
      </trkpt>
      <trkpt lat="43.44475" lon="-1.38463">
        <ele>21</ele>
        <time>2026-03-06T19:45:46.000Z</time>
      </trkpt>
      <trkpt lat="43.44463" lon="-1.38454">
        <ele>21</ele>
        <time>2026-03-06T19:45:48.000Z</time>
      </trkpt>
      <trkpt lat="43.44429" lon="-1.38445">
        <ele>20</ele>
        <time>2026-03-06T19:45:54.000Z</time>
      </trkpt>
      <trkpt lat="43.44409" lon="-1.38446">
        <ele>20</ele>
        <time>2026-03-06T19:45:58.000Z</time>
      </trkpt>
      <trkpt lat="43.44387" lon="-1.38452">
        <ele>20</ele>
        <time>2026-03-06T19:46:02.000Z</time>
      </trkpt>
      <trkpt lat="43.44363" lon="-1.38469">
        <ele>20</ele>
        <time>2026-03-06T19:46:06.000Z</time>
      </trkpt>
      <trkpt lat="43.44312" lon="-1.38517">
        <ele>23</ele>
        <time>2026-03-06T19:46:17.000Z</time>
      </trkpt>
      <trkpt lat="43.44307" lon="-1.38539">
        <ele>25</ele>
        <time>2026-03-06T19:46:20.000Z</time>
      </trkpt>
      <trkpt lat="43.44305" lon="-1.38669">
        <ele>32</ele>
        <time>2026-03-06T19:46:37.000Z</time>
      </trkpt>
      <trkpt lat="43.44287" lon="-1.38723">
        <ele>36</ele>
        <time>2026-03-06T19:46:45.000Z</time>
      </trkpt>
      <trkpt lat="43.44223" lon="-1.38799">
        <ele>44</ele>
        <time>2026-03-06T19:47:00.000Z</time>
      </trkpt>
      <trkpt lat="43.44217" lon="-1.38816">
        <ele>45</ele>
        <time>2026-03-06T19:47:02.000Z</time>
      </trkpt>
      <trkpt lat="43.44217" lon="-1.38845">
        <ele>45</ele>
        <time>2026-03-06T19:47:06.000Z</time>
      </trkpt>
      <trkpt lat="43.44222" lon="-1.38883">
        <ele>43</ele>
        <time>2026-03-06T19:47:11.000Z</time>
      </trkpt>
      <trkpt lat="43.44257" lon="-1.39001">
        <ele>34</ele>
        <time>2026-03-06T19:47:28.000Z</time>
      </trkpt>
      <trkpt lat="43.44267" lon="-1.39058">
        <ele>32</ele>
        <time>2026-03-06T19:47:35.000Z</time>
      </trkpt>
      <trkpt lat="43.44267" lon="-1.39078">
        <ele>32</ele>
        <time>2026-03-06T19:47:38.000Z</time>
      </trkpt>
      <trkpt lat="43.44264" lon="-1.39093">
        <ele>32</ele>
        <time>2026-03-06T19:47:40.000Z</time>
      </trkpt>
      <trkpt lat="43.44254" lon="-1.39128">
        <ele>31</ele>
        <time>2026-03-06T19:47:45.000Z</time>
      </trkpt>
      <trkpt lat="43.44251" lon="-1.39151">
        <ele>29</ele>
        <time>2026-03-06T19:47:48.000Z</time>
      </trkpt>
      <trkpt lat="43.44261" lon="-1.39208">
        <ele>27</ele>
        <time>2026-03-06T19:47:55.000Z</time>
      </trkpt>
      <trkpt lat="43.44264" lon="-1.39233">
        <ele>27</ele>
        <time>2026-03-06T19:47:58.000Z</time>
      </trkpt>
      <trkpt lat="43.44264" lon="-1.39304">
        <ele>31</ele>
        <time>2026-03-06T19:48:08.000Z</time>
      </trkpt>
      <trkpt lat="43.44261" lon="-1.39322">
        <ele>33</ele>
        <time>2026-03-06T19:48:10.000Z</time>
      </trkpt>
      <trkpt lat="43.44253" lon="-1.39337">
        <ele>34</ele>
        <time>2026-03-06T19:48:12.000Z</time>
      </trkpt>
      <trkpt lat="43.44222" lon="-1.3937">
        <ele>35</ele>
        <time>2026-03-06T19:48:19.000Z</time>
      </trkpt>
      <trkpt lat="43.44216" lon="-1.39383">
        <ele>36</ele>
        <time>2026-03-06T19:48:21.000Z</time>
      </trkpt>
      <trkpt lat="43.44202" lon="-1.39465">
        <ele>39</ele>
        <time>2026-03-06T19:48:32.000Z</time>
      </trkpt>
      <trkpt lat="43.44197" lon="-1.39586">
        <ele>42</ele>
        <time>2026-03-06T19:48:48.000Z</time>
      </trkpt>
      <trkpt lat="43.44194" lon="-1.39625">
        <ele>43</ele>
        <time>2026-03-06T19:48:53.000Z</time>
      </trkpt>
      <trkpt lat="43.44177" lon="-1.39687">
        <ele>46</ele>
        <time>2026-03-06T19:49:02.000Z</time>
      </trkpt>
      <trkpt lat="43.44127" lon="-1.39783">
        <ele>47</ele>
        <time>2026-03-06T19:49:17.000Z</time>
      </trkpt>
      <trkpt lat="43.44111" lon="-1.398">
        <ele>46</ele>
        <time>2026-03-06T19:49:20.000Z</time>
      </trkpt>
      <trkpt lat="43.44102" lon="-1.39815">
        <ele>47</ele>
        <time>2026-03-06T19:49:23.000Z</time>
      </trkpt>
      <trkpt lat="43.44097" lon="-1.3983">
        <ele>47</ele>
        <time>2026-03-06T19:49:25.000Z</time>
      </trkpt>
      <trkpt lat="43.44095" lon="-1.39855">
        <ele>48</ele>
        <time>2026-03-06T19:49:28.000Z</time>
      </trkpt>
      <trkpt lat="43.44095" lon="-1.39879">
        <ele>48</ele>
        <time>2026-03-06T19:49:31.000Z</time>
      </trkpt>
      <trkpt lat="43.44099" lon="-1.39906">
        <ele>48</ele>
        <time>2026-03-06T19:49:35.000Z</time>
      </trkpt>
      <trkpt lat="43.44143" lon="-1.40037">
        <ele>51</ele>
        <time>2026-03-06T19:49:54.000Z</time>
      </trkpt>
      <trkpt lat="43.44141" lon="-1.40058">
        <ele>52</ele>
        <time>2026-03-06T19:49:56.000Z</time>
      </trkpt>
      <trkpt lat="43.44133" lon="-1.40084">
        <ele>52</ele>
        <time>2026-03-06T19:50:00.000Z</time>
      </trkpt>
      <trkpt lat="43.4413" lon="-1.401">
        <ele>52</ele>
        <time>2026-03-06T19:50:02.000Z</time>
      </trkpt>
      <trkpt lat="43.44116" lon="-1.40148">
        <ele>52</ele>
        <time>2026-03-06T19:50:09.000Z</time>
      </trkpt>
      <trkpt lat="43.44106" lon="-1.40199">
        <ele>52</ele>
        <time>2026-03-06T19:50:16.000Z</time>
      </trkpt>
      <trkpt lat="43.44103" lon="-1.40247">
        <ele>51</ele>
        <time>2026-03-06T19:50:22.000Z</time>
      </trkpt>
      <trkpt lat="43.4408" lon="-1.40414">
        <ele>53</ele>
        <time>2026-03-06T19:50:44.000Z</time>
      </trkpt>
      <trkpt lat="43.44077" lon="-1.40494">
        <ele>52</ele>
        <time>2026-03-06T19:50:54.000Z</time>
      </trkpt>
      <trkpt lat="43.4408" lon="-1.40613">
        <ele>54</ele>
        <time>2026-03-06T19:51:10.000Z</time>
      </trkpt>
      <trkpt lat="43.44075" lon="-1.407">
        <ele>54</ele>
        <time>2026-03-06T19:51:21.000Z</time>
      </trkpt>
      <trkpt lat="43.44074" lon="-1.40745">
        <ele>55</ele>
        <time>2026-03-06T19:51:27.000Z</time>
      </trkpt>
      <trkpt lat="43.44077" lon="-1.40797">
        <ele>56</ele>
        <time>2026-03-06T19:51:33.000Z</time>
      </trkpt>
      <trkpt lat="43.44118" lon="-1.41071">
        <ele>61</ele>
        <time>2026-03-06T19:52:10.000Z</time>
      </trkpt>
      <trkpt lat="43.44131" lon="-1.41113">
        <ele>61</ele>
        <time>2026-03-06T19:52:15.000Z</time>
      </trkpt>
      <trkpt lat="43.44158" lon="-1.41167">
        <ele>63</ele>
        <time>2026-03-06T19:52:24.000Z</time>
      </trkpt>
      <trkpt lat="43.44171" lon="-1.41191">
        <ele>63</ele>
        <time>2026-03-06T19:52:28.000Z</time>
      </trkpt>
      <trkpt lat="43.44215" lon="-1.41257">
        <ele>65</ele>
        <time>2026-03-06T19:52:39.000Z</time>
      </trkpt>
      <trkpt lat="43.44224" lon="-1.41277">
        <ele>65</ele>
        <time>2026-03-06T19:52:42.000Z</time>
      </trkpt>
      <trkpt lat="43.4425" lon="-1.41387">
        <ele>70</ele>
        <time>2026-03-06T19:52:57.000Z</time>
      </trkpt>
      <trkpt lat="43.44258" lon="-1.41413">
        <ele>71</ele>
        <time>2026-03-06T19:53:01.000Z</time>
      </trkpt>
      <trkpt lat="43.44271" lon="-1.41444">
        <ele>71</ele>
        <time>2026-03-06T19:53:06.000Z</time>
      </trkpt>
      <trkpt lat="43.44306" lon="-1.41516">
        <ele>75</ele>
        <time>2026-03-06T19:53:17.000Z</time>
      </trkpt>
      <trkpt lat="43.44316" lon="-1.41534">
        <ele>75</ele>
        <time>2026-03-06T19:53:20.000Z</time>
      </trkpt>
      <trkpt lat="43.44368" lon="-1.41586">
        <ele>78</ele>
        <time>2026-03-06T19:53:31.000Z</time>
      </trkpt>
      <trkpt lat="43.44381" lon="-1.41595">
        <ele>79</ele>
        <time>2026-03-06T19:53:34.000Z</time>
      </trkpt>
      <trkpt lat="43.44405" lon="-1.41605">
        <ele>80</ele>
        <time>2026-03-06T19:53:38.000Z</time>
      </trkpt>
      <trkpt lat="43.44417" lon="-1.41605">
        <ele>81</ele>
        <time>2026-03-06T19:53:40.000Z</time>
      </trkpt>
      <trkpt lat="43.44436" lon="-1.416">
        <ele>83</ele>
        <time>2026-03-06T19:53:44.000Z</time>
      </trkpt>
      <trkpt lat="43.4448" lon="-1.4157">
        <ele>86</ele>
        <time>2026-03-06T19:53:53.000Z</time>
      </trkpt>
      <trkpt lat="43.44523" lon="-1.4153">
        <ele>88</ele>
        <time>2026-03-06T19:54:02.000Z</time>
      </trkpt>
      <trkpt lat="43.44537" lon="-1.41515">
        <ele>88</ele>
        <time>2026-03-06T19:54:05.000Z</time>
      </trkpt>
      <trkpt lat="43.44563" lon="-1.41475">
        <ele>87</ele>
        <time>2026-03-06T19:54:12.000Z</time>
      </trkpt>
      <trkpt lat="43.44571" lon="-1.41466">
        <ele>87</ele>
        <time>2026-03-06T19:54:14.000Z</time>
      </trkpt>
      <trkpt lat="43.4458" lon="-1.41462">
        <ele>88</ele>
        <time>2026-03-06T19:54:15.000Z</time>
      </trkpt>
      <trkpt lat="43.4459" lon="-1.4146">
        <ele>88</ele>
        <time>2026-03-06T19:54:17.000Z</time>
      </trkpt>
      <trkpt lat="43.44623" lon="-1.41462">
        <ele>88</ele>
        <time>2026-03-06T19:54:23.000Z</time>
      </trkpt>
      <trkpt lat="43.44636" lon="-1.41467">
        <ele>88</ele>
        <time>2026-03-06T19:54:25.000Z</time>
      </trkpt>
      <trkpt lat="43.44645" lon="-1.41473">
        <ele>89</ele>
        <time>2026-03-06T19:54:27.000Z</time>
      </trkpt>
      <trkpt lat="43.44652" lon="-1.41482">
        <ele>89</ele>
        <time>2026-03-06T19:54:29.000Z</time>
      </trkpt>
      <trkpt lat="43.44656" lon="-1.41491">
        <ele>90</ele>
        <time>2026-03-06T19:54:30.000Z</time>
      </trkpt>
      <trkpt lat="43.44668" lon="-1.41554">
        <ele>96</ele>
        <time>2026-03-06T19:54:39.000Z</time>
      </trkpt>
      <trkpt lat="43.44682" lon="-1.41674">
        <ele>101</ele>
        <time>2026-03-06T19:54:54.000Z</time>
      </trkpt>
      <trkpt lat="43.44672" lon="-1.41751">
        <ele>109</ele>
        <time>2026-03-06T19:55:05.000Z</time>
      </trkpt>
      <trkpt lat="43.44671" lon="-1.41788">
        <ele>114</ele>
        <time>2026-03-06T19:55:09.000Z</time>
      </trkpt>
      <trkpt lat="43.44675" lon="-1.418">
        <ele>114</ele>
        <time>2026-03-06T19:55:11.000Z</time>
      </trkpt>
      <trkpt lat="43.44683" lon="-1.41812">
        <ele>115</ele>
        <time>2026-03-06T19:55:13.000Z</time>
      </trkpt>
      <trkpt lat="43.44688" lon="-1.41816">
        <ele>115</ele>
        <time>2026-03-06T19:55:14.000Z</time>
      </trkpt>
      <trkpt lat="43.44705" lon="-1.41822">
        <ele>114</ele>
        <time>2026-03-06T19:55:17.000Z</time>
      </trkpt>
      <trkpt lat="43.44713" lon="-1.41829">
        <ele>114</ele>
        <time>2026-03-06T19:55:19.000Z</time>
      </trkpt>
      <trkpt lat="43.44718" lon="-1.41836">
        <ele>115</ele>
        <time>2026-03-06T19:55:20.000Z</time>
      </trkpt>
      <trkpt lat="43.44726" lon="-1.41856">
        <ele>118</ele>
        <time>2026-03-06T19:55:23.000Z</time>
      </trkpt>
      <trkpt lat="43.44736" lon="-1.41871">
        <ele>120</ele>
        <time>2026-03-06T19:55:26.000Z</time>
      </trkpt>
      <trkpt lat="43.44747" lon="-1.41879">
        <ele>121</ele>
        <time>2026-03-06T19:55:28.000Z</time>
      </trkpt>
      <trkpt lat="43.44771" lon="-1.41891">
        <ele>122</ele>
        <time>2026-03-06T19:55:33.000Z</time>
      </trkpt>
      <trkpt lat="43.44785" lon="-1.41907">
        <ele>125</ele>
        <time>2026-03-06T19:55:36.000Z</time>
      </trkpt>
      <trkpt lat="43.4482" lon="-1.41958">
        <ele>126</ele>
        <time>2026-03-06T19:55:45.000Z</time>
      </trkpt>
      <trkpt lat="43.44817" lon="-1.4198">
        <ele>127</ele>
        <time>2026-03-06T19:55:48.000Z</time>
      </trkpt>
      <trkpt lat="43.44768" lon="-1.41991">
        <ele>131</ele>
        <time>2026-03-06T19:55:57.000Z</time>
      </trkpt>
      <trkpt lat="43.44727" lon="-1.42">
        <ele>132</ele>
        <time>2026-03-06T19:56:04.000Z</time>
      </trkpt>
      <trkpt lat="43.44693" lon="-1.42014">
        <ele>130</ele>
        <time>2026-03-06T19:56:10.000Z</time>
      </trkpt>
      <trkpt lat="43.44642" lon="-1.42051">
        <ele>123</ele>
        <time>2026-03-06T19:56:21.000Z</time>
      </trkpt>
      <trkpt lat="43.44609" lon="-1.42079">
        <ele>120</ele>
        <time>2026-03-06T19:56:27.000Z</time>
      </trkpt>
      <trkpt lat="43.4456" lon="-1.42133">
        <ele>118</ele>
        <time>2026-03-06T19:56:39.000Z</time>
      </trkpt>
      <trkpt lat="43.44521" lon="-1.42169">
        <ele>122</ele>
        <time>2026-03-06T19:56:47.000Z</time>
      </trkpt>
      <trkpt lat="43.44361" lon="-1.4229">
        <ele>123</ele>
        <time>2026-03-06T19:57:19.000Z</time>
      </trkpt>
      <trkpt lat="43.44331" lon="-1.42306">
        <ele>122</ele>
        <time>2026-03-06T19:57:25.000Z</time>
      </trkpt>
      <trkpt lat="43.43988" lon="-1.42397">
        <ele>108</ele>
        <time>2026-03-06T19:58:27.000Z</time>
      </trkpt>
      <trkpt lat="43.43972" lon="-1.42395">
        <ele>109</ele>
        <time>2026-03-06T19:58:30.000Z</time>
      </trkpt>
      <trkpt lat="43.43964" lon="-1.42392">
        <ele>109</ele>
        <time>2026-03-06T19:58:32.000Z</time>
      </trkpt>
      <trkpt lat="43.43946" lon="-1.42379">
        <ele>110</ele>
        <time>2026-03-06T19:58:35.000Z</time>
      </trkpt>
      <trkpt lat="43.43755" lon="-1.42176">
        <ele>116</ele>
        <time>2026-03-06T19:59:18.000Z</time>
      </trkpt>
      <trkpt lat="43.43737" lon="-1.42162">
        <ele>116</ele>
        <time>2026-03-06T19:59:22.000Z</time>
      </trkpt>
      <trkpt lat="43.43722" lon="-1.42155">
        <ele>115</ele>
        <time>2026-03-06T19:59:25.000Z</time>
      </trkpt>
      <trkpt lat="43.4368" lon="-1.42146">
        <ele>113</ele>
        <time>2026-03-06T19:59:32.000Z</time>
      </trkpt>
      <trkpt lat="43.43666" lon="-1.42139">
        <ele>111</ele>
        <time>2026-03-06T19:59:35.000Z</time>
      </trkpt>
      <trkpt lat="43.43654" lon="-1.42129">
        <ele>109</ele>
        <time>2026-03-06T19:59:37.000Z</time>
      </trkpt>
      <trkpt lat="43.43626" lon="-1.42086">
        <ele>105</ele>
        <time>2026-03-06T19:59:45.000Z</time>
      </trkpt>
      <trkpt lat="43.43529" lon="-1.4198">
        <ele>98</ele>
        <time>2026-03-06T20:00:07.000Z</time>
      </trkpt>
      <trkpt lat="43.4341" lon="-1.42105">
        <ele>86</ele>
        <time>2026-03-06T20:00:34.000Z</time>
      </trkpt>
      <trkpt lat="43.43401" lon="-1.42118">
        <ele>85</ele>
        <time>2026-03-06T20:00:36.000Z</time>
      </trkpt>
      <trkpt lat="43.43396" lon="-1.42129">
        <ele>85</ele>
        <time>2026-03-06T20:00:38.000Z</time>
      </trkpt>
      <trkpt lat="43.43391" lon="-1.42142">
        <ele>84</ele>
        <time>2026-03-06T20:00:39.000Z</time>
      </trkpt>
      <trkpt lat="43.43389" lon="-1.42157">
        <ele>84</ele>
        <time>2026-03-06T20:00:41.000Z</time>
      </trkpt>
      <trkpt lat="43.43379" lon="-1.42297">
        <ele>83</ele>
        <time>2026-03-06T20:01:00.000Z</time>
      </trkpt>
      <trkpt lat="43.43363" lon="-1.42356">
        <ele>82</ele>
        <time>2026-03-06T20:01:08.000Z</time>
      </trkpt>
      <trkpt lat="43.43353" lon="-1.42415">
        <ele>77</ele>
        <time>2026-03-06T20:01:16.000Z</time>
      </trkpt>
      <trkpt lat="43.43333" lon="-1.42452">
        <ele>73</ele>
        <time>2026-03-06T20:01:21.000Z</time>
      </trkpt>
      <trkpt lat="43.43321" lon="-1.42491">
        <ele>67</ele>
        <time>2026-03-06T20:01:27.000Z</time>
      </trkpt>
      <trkpt lat="43.4332" lon="-1.42517">
        <ele>64</ele>
        <time>2026-03-06T20:01:30.000Z</time>
      </trkpt>
      <trkpt lat="43.43321" lon="-1.42578">
        <ele>59</ele>
        <time>2026-03-06T20:01:38.000Z</time>
      </trkpt>
      <trkpt lat="43.43317" lon="-1.42712">
        <ele>50</ele>
        <time>2026-03-06T20:01:56.000Z</time>
      </trkpt>
      <trkpt lat="43.43335" lon="-1.42772">
        <ele>47</ele>
        <time>2026-03-06T20:02:04.000Z</time>
      </trkpt>
      <trkpt lat="43.43339" lon="-1.42793">
        <ele>46</ele>
        <time>2026-03-06T20:02:07.000Z</time>
      </trkpt>
      <trkpt lat="43.43361" lon="-1.43014">
        <ele>47</ele>
        <time>2026-03-06T20:02:36.000Z</time>
      </trkpt>
      <trkpt lat="43.43365" lon="-1.43043">
        <ele>48</ele>
        <time>2026-03-06T20:02:39.000Z</time>
      </trkpt>
      <trkpt lat="43.43374" lon="-1.43067">
        <ele>47</ele>
        <time>2026-03-06T20:02:43.000Z</time>
      </trkpt>
      <trkpt lat="43.43388" lon="-1.43115">
        <ele>46</ele>
        <time>2026-03-06T20:02:50.000Z</time>
      </trkpt>
      <trkpt lat="43.43395" lon="-1.43151">
        <ele>46</ele>
        <time>2026-03-06T20:02:54.000Z</time>
      </trkpt>
      <trkpt lat="43.43404" lon="-1.43226">
        <ele>50</ele>
        <time>2026-03-06T20:03:04.000Z</time>
      </trkpt>
      <trkpt lat="43.43411" lon="-1.43251">
        <ele>52</ele>
        <time>2026-03-06T20:03:08.000Z</time>
      </trkpt>
      <trkpt lat="43.4343" lon="-1.43284">
        <ele>53</ele>
        <time>2026-03-06T20:03:13.000Z</time>
      </trkpt>
      <trkpt lat="43.4344" lon="-1.43307">
        <ele>54</ele>
        <time>2026-03-06T20:03:17.000Z</time>
      </trkpt>
      <trkpt lat="43.43448" lon="-1.43333">
        <ele>55</ele>
        <time>2026-03-06T20:03:20.000Z</time>
      </trkpt>
      <trkpt lat="43.4345" lon="-1.43352">
        <ele>57</ele>
        <time>2026-03-06T20:03:23.000Z</time>
      </trkpt>
      <trkpt lat="43.43449" lon="-1.43378">
        <ele>59</ele>
        <time>2026-03-06T20:03:26.000Z</time>
      </trkpt>
      <trkpt lat="43.43444" lon="-1.43392">
        <ele>60</ele>
        <time>2026-03-06T20:03:28.000Z</time>
      </trkpt>
      <trkpt lat="43.43439" lon="-1.43405">
        <ele>61</ele>
        <time>2026-03-06T20:03:30.000Z</time>
      </trkpt>
      <trkpt lat="43.43404" lon="-1.43468">
        <ele>70</ele>
        <time>2026-03-06T20:03:40.000Z</time>
      </trkpt>
      <trkpt lat="43.43395" lon="-1.4349">
        <ele>74</ele>
        <time>2026-03-06T20:03:43.000Z</time>
      </trkpt>
      <trkpt lat="43.43392" lon="-1.43501">
        <ele>75</ele>
        <time>2026-03-06T20:03:45.000Z</time>
      </trkpt>
      <trkpt lat="43.43393" lon="-1.43512">
        <ele>76</ele>
        <time>2026-03-06T20:03:46.000Z</time>
      </trkpt>
      <trkpt lat="43.43395" lon="-1.43523">
        <ele>77</ele>
        <time>2026-03-06T20:03:48.000Z</time>
      </trkpt>
      <trkpt lat="43.43402" lon="-1.43531">
        <ele>77</ele>
        <time>2026-03-06T20:03:49.000Z</time>
      </trkpt>
      <trkpt lat="43.43418" lon="-1.43535">
        <ele>76</ele>
        <time>2026-03-06T20:03:52.000Z</time>
      </trkpt>
      <trkpt lat="43.43423" lon="-1.43533">
        <ele>75</ele>
        <time>2026-03-06T20:03:53.000Z</time>
      </trkpt>
      <trkpt lat="43.43443" lon="-1.43508">
        <ele>73</ele>
        <time>2026-03-06T20:03:58.000Z</time>
      </trkpt>
      <trkpt lat="43.43451" lon="-1.43502">
        <ele>72</ele>
        <time>2026-03-06T20:04:00.000Z</time>
      </trkpt>
      <trkpt lat="43.43462" lon="-1.43498">
        <ele>72</ele>
        <time>2026-03-06T20:04:02.000Z</time>
      </trkpt>
      <trkpt lat="43.43479" lon="-1.43498">
        <ele>72</ele>
        <time>2026-03-06T20:04:05.000Z</time>
      </trkpt>
      <trkpt lat="43.43505" lon="-1.43503">
        <ele>72</ele>
        <time>2026-03-06T20:04:09.000Z</time>
      </trkpt>
      <trkpt lat="43.43512" lon="-1.43509">
        <ele>71</ele>
        <time>2026-03-06T20:04:11.000Z</time>
      </trkpt>
      <trkpt lat="43.43521" lon="-1.43524">
        <ele>71</ele>
        <time>2026-03-06T20:04:13.000Z</time>
      </trkpt>
      <trkpt lat="43.43525" lon="-1.43539">
        <ele>72</ele>
        <time>2026-03-06T20:04:16.000Z</time>
      </trkpt>
      <trkpt lat="43.43527" lon="-1.43557">
        <ele>73</ele>
        <time>2026-03-06T20:04:18.000Z</time>
      </trkpt>
      <trkpt lat="43.43528" lon="-1.43595">
        <ele>75</ele>
        <time>2026-03-06T20:04:23.000Z</time>
      </trkpt>
      <trkpt lat="43.43518" lon="-1.43686">
        <ele>81</ele>
        <time>2026-03-06T20:04:35.000Z</time>
      </trkpt>
      <trkpt lat="43.43516" lon="-1.43715">
        <ele>84</ele>
        <time>2026-03-06T20:04:38.000Z</time>
      </trkpt>
      <trkpt lat="43.4352" lon="-1.43764">
        <ele>87</ele>
        <time>2026-03-06T20:04:45.000Z</time>
      </trkpt>
      <trkpt lat="43.43529" lon="-1.43839">
        <ele>89</ele>
        <time>2026-03-06T20:04:55.000Z</time>
      </trkpt>
      <trkpt lat="43.43528" lon="-1.43869">
        <ele>91</ele>
        <time>2026-03-06T20:04:59.000Z</time>
      </trkpt>
      <trkpt lat="43.43527" lon="-1.43895">
        <ele>92</ele>
        <time>2026-03-06T20:05:02.000Z</time>
      </trkpt>
      <trkpt lat="43.43521" lon="-1.43946">
        <ele>95</ele>
        <time>2026-03-06T20:05:09.000Z</time>
      </trkpt>
      <trkpt lat="43.43523" lon="-1.44017">
        <ele>94</ele>
        <time>2026-03-06T20:05:18.000Z</time>
      </trkpt>
      <trkpt lat="43.43521" lon="-1.4403">
        <ele>94</ele>
        <time>2026-03-06T20:05:19.000Z</time>
      </trkpt>
      <trkpt lat="43.4351" lon="-1.44073">
        <ele>96</ele>
        <time>2026-03-06T20:05:25.000Z</time>
      </trkpt>
      <trkpt lat="43.43503" lon="-1.44091">
        <ele>97</ele>
        <time>2026-03-06T20:05:28.000Z</time>
      </trkpt>
      <trkpt lat="43.43493" lon="-1.44124">
        <ele>96</ele>
        <time>2026-03-06T20:05:33.000Z</time>
      </trkpt>
      <trkpt lat="43.43485" lon="-1.44136">
        <ele>95</ele>
        <time>2026-03-06T20:05:35.000Z</time>
      </trkpt>
      <trkpt lat="43.43471" lon="-1.44145">
        <ele>95</ele>
        <time>2026-03-06T20:05:37.000Z</time>
      </trkpt>
      <trkpt lat="43.43476" lon="-1.44181">
        <ele>93</ele>
        <time>2026-03-06T20:05:42.000Z</time>
      </trkpt>
      <trkpt lat="43.4347" lon="-1.44233">
        <ele>89</ele>
        <time>2026-03-06T20:05:49.000Z</time>
      </trkpt>
      <trkpt lat="43.43475" lon="-1.44254">
        <ele>88</ele>
        <time>2026-03-06T20:05:52.000Z</time>
      </trkpt>
      <trkpt lat="43.43485" lon="-1.44269">
        <ele>88</ele>
        <time>2026-03-06T20:05:54.000Z</time>
      </trkpt>
      <trkpt lat="43.43528" lon="-1.44316">
        <ele>86</ele>
        <time>2026-03-06T20:06:04.000Z</time>
      </trkpt>
      <trkpt lat="43.43548" lon="-1.44348">
        <ele>83</ele>
        <time>2026-03-06T20:06:10.000Z</time>
      </trkpt>
      <trkpt lat="43.4357" lon="-1.44398">
        <ele>79</ele>
        <time>2026-03-06T20:06:17.000Z</time>
      </trkpt>
      <trkpt lat="43.43578" lon="-1.44424">
        <ele>77</ele>
        <time>2026-03-06T20:06:21.000Z</time>
      </trkpt>
      <trkpt lat="43.43594" lon="-1.44502">
        <ele>70</ele>
        <time>2026-03-06T20:06:31.000Z</time>
      </trkpt>
      <trkpt lat="43.43612" lon="-1.44562">
        <ele>66</ele>
        <time>2026-03-06T20:06:40.000Z</time>
      </trkpt>
      <trkpt lat="43.43621" lon="-1.44584">
        <ele>65</ele>
        <time>2026-03-06T20:06:43.000Z</time>
      </trkpt>
      <trkpt lat="43.43652" lon="-1.44644">
        <ele>68</ele>
        <time>2026-03-06T20:06:53.000Z</time>
      </trkpt>
      <trkpt lat="43.43659" lon="-1.44665">
        <ele>69</ele>
        <time>2026-03-06T20:06:56.000Z</time>
      </trkpt>
      <trkpt lat="43.43666" lon="-1.44701">
        <ele>68</ele>
        <time>2026-03-06T20:07:00.000Z</time>
      </trkpt>
      <trkpt lat="43.43669" lon="-1.44734">
        <ele>67</ele>
        <time>2026-03-06T20:07:05.000Z</time>
      </trkpt>
      <trkpt lat="43.4368" lon="-1.44778">
        <ele>65</ele>
        <time>2026-03-06T20:07:11.000Z</time>
      </trkpt>
      <trkpt lat="43.43682" lon="-1.44791">
        <ele>64</ele>
        <time>2026-03-06T20:07:12.000Z</time>
      </trkpt>
      <trkpt lat="43.43688" lon="-1.44907">
        <ele>59</ele>
        <time>2026-03-06T20:07:27.000Z</time>
      </trkpt>
      <trkpt lat="43.43687" lon="-1.44933">
        <ele>58</ele>
        <time>2026-03-06T20:07:31.000Z</time>
      </trkpt>
      <trkpt lat="43.4368" lon="-1.44971">
        <ele>57</ele>
        <time>2026-03-06T20:07:36.000Z</time>
      </trkpt>
      <trkpt lat="43.43689" lon="-1.45154">
        <ele>49</ele>
        <time>2026-03-06T20:08:00.000Z</time>
      </trkpt>
      <trkpt lat="43.43684" lon="-1.452">
        <ele>50</ele>
        <time>2026-03-06T20:08:06.000Z</time>
      </trkpt>
      <trkpt lat="43.43686" lon="-1.45231">
        <ele>51</ele>
        <time>2026-03-06T20:08:10.000Z</time>
      </trkpt>
      <trkpt lat="43.43684" lon="-1.45253">
        <ele>52</ele>
        <time>2026-03-06T20:08:12.000Z</time>
      </trkpt>
      <trkpt lat="43.43635" lon="-1.45241">
        <ele>50</ele>
        <time>2026-03-06T20:08:21.000Z</time>
      </trkpt>
      <trkpt lat="43.43587" lon="-1.45239">
        <ele>48</ele>
        <time>2026-03-06T20:08:30.000Z</time>
      </trkpt>
      <trkpt lat="43.43557" lon="-1.45235">
        <ele>48</ele>
        <time>2026-03-06T20:08:35.000Z</time>
      </trkpt>
      <trkpt lat="43.43544" lon="-1.45231">
        <ele>48</ele>
        <time>2026-03-06T20:08:38.000Z</time>
      </trkpt>
      <trkpt lat="43.43533" lon="-1.45224">
        <ele>48</ele>
        <time>2026-03-06T20:08:40.000Z</time>
      </trkpt>
      <trkpt lat="43.43513" lon="-1.452">
        <ele>47</ele>
        <time>2026-03-06T20:08:44.000Z</time>
      </trkpt>
      <trkpt lat="43.43504" lon="-1.45177">
        <ele>46</ele>
        <time>2026-03-06T20:08:48.000Z</time>
      </trkpt>
      <trkpt lat="43.43491" lon="-1.45157">
        <ele>45</ele>
        <time>2026-03-06T20:08:51.000Z</time>
      </trkpt>
      <trkpt lat="43.4348" lon="-1.45148">
        <ele>43</ele>
        <time>2026-03-06T20:08:54.000Z</time>
      </trkpt>
      <trkpt lat="43.43457" lon="-1.45134">
        <ele>40</ele>
        <time>2026-03-06T20:08:58.000Z</time>
      </trkpt>
      <trkpt lat="43.43439" lon="-1.45131">
        <ele>38</ele>
        <time>2026-03-06T20:09:01.000Z</time>
      </trkpt>
      <trkpt lat="43.43426" lon="-1.45131">
        <ele>37</ele>
        <time>2026-03-06T20:09:04.000Z</time>
      </trkpt>
      <trkpt lat="43.43413" lon="-1.45137">
        <ele>35</ele>
        <time>2026-03-06T20:09:06.000Z</time>
      </trkpt>
      <trkpt lat="43.43373" lon="-1.45192">
        <ele>30</ele>
        <time>2026-03-06T20:09:16.000Z</time>
      </trkpt>
      <trkpt lat="43.43336" lon="-1.4524">
        <ele>27</ele>
        <time>2026-03-06T20:09:25.000Z</time>
      </trkpt>
      <trkpt lat="43.43296" lon="-1.45284">
        <ele>24</ele>
        <time>2026-03-06T20:09:34.000Z</time>
      </trkpt>
      <trkpt lat="43.43244" lon="-1.45343">
        <ele>18</ele>
        <time>2026-03-06T20:09:46.000Z</time>
      </trkpt>
      <trkpt lat="43.43236" lon="-1.45361">
        <ele>18</ele>
        <time>2026-03-06T20:09:49.000Z</time>
      </trkpt>
      <trkpt lat="43.43231" lon="-1.45375">
        <ele>18</ele>
        <time>2026-03-06T20:09:51.000Z</time>
      </trkpt>
      <trkpt lat="43.43212" lon="-1.45466">
        <ele>16</ele>
        <time>2026-03-06T20:10:03.000Z</time>
      </trkpt>
      <trkpt lat="43.43202" lon="-1.45498">
        <ele>14</ele>
        <time>2026-03-06T20:10:08.000Z</time>
      </trkpt>
      <trkpt lat="43.43189" lon="-1.45517">
        <ele>10</ele>
        <time>2026-03-06T20:10:11.000Z</time>
      </trkpt>
      <trkpt lat="43.43177" lon="-1.45526">
        <ele>8</ele>
        <time>2026-03-06T20:10:13.000Z</time>
      </trkpt>
      <trkpt lat="43.43158" lon="-1.4553">
        <ele>7</ele>
        <time>2026-03-06T20:10:17.000Z</time>
      </trkpt>
      <trkpt lat="43.43146" lon="-1.45529">
        <ele>7</ele>
        <time>2026-03-06T20:10:19.000Z</time>
      </trkpt>
      <trkpt lat="43.4308" lon="-1.45508">
        <ele>6</ele>
        <time>2026-03-06T20:10:31.000Z</time>
      </trkpt>
      <trkpt lat="43.43036" lon="-1.45507">
        <ele>7</ele>
        <time>2026-03-06T20:10:39.000Z</time>
      </trkpt>
      <trkpt lat="43.42999" lon="-1.45498">
        <ele>8</ele>
        <time>2026-03-06T20:10:46.000Z</time>
      </trkpt>
      <trkpt lat="43.42896" lon="-1.45431">
        <ele>11</ele>
        <time>2026-03-06T20:11:06.000Z</time>
      </trkpt>
      <trkpt lat="43.42867" lon="-1.4541">
        <ele>11</ele>
        <time>2026-03-06T20:11:12.000Z</time>
      </trkpt>
      <trkpt lat="43.42856" lon="-1.454">
        <ele>12</ele>
        <time>2026-03-06T20:11:14.000Z</time>
      </trkpt>
      <trkpt lat="43.42778" lon="-1.45307">
        <ele>12</ele>
        <time>2026-03-06T20:11:32.000Z</time>
      </trkpt>
      <trkpt lat="43.42723" lon="-1.45247">
        <ele>14</ele>
        <time>2026-03-06T20:11:45.000Z</time>
      </trkpt>
      <trkpt lat="43.42707" lon="-1.45242">
        <ele>15</ele>
        <time>2026-03-06T20:11:48.000Z</time>
      </trkpt>
      <trkpt lat="43.42692" lon="-1.45246">
        <ele>15</ele>
        <time>2026-03-06T20:11:51.000Z</time>
      </trkpt>
      <trkpt lat="43.42666" lon="-1.45261">
        <ele>13</ele>
        <time>2026-03-06T20:11:56.000Z</time>
      </trkpt>
      <trkpt lat="43.42593" lon="-1.45327">
        <ele>10</ele>
        <time>2026-03-06T20:12:11.000Z</time>
      </trkpt>
      <trkpt lat="43.42488" lon="-1.45383">
        <ele>12</ele>
        <time>2026-03-06T20:12:31.000Z</time>
      </trkpt>
      <trkpt lat="43.42455" lon="-1.45389">
        <ele>12</ele>
        <time>2026-03-06T20:12:37.000Z</time>
      </trkpt>
      <trkpt lat="43.42388" lon="-1.45397">
        <ele>12</ele>
        <time>2026-03-06T20:12:49.000Z</time>
      </trkpt>
      <trkpt lat="43.42326" lon="-1.45413">
        <ele>10</ele>
        <time>2026-03-06T20:13:00.000Z</time>
      </trkpt>
      <trkpt lat="43.42312" lon="-1.45426">
        <ele>12</ele>
        <time>2026-03-06T20:13:03.000Z</time>
      </trkpt>
      <trkpt lat="43.42306" lon="-1.45435">
        <ele>13</ele>
        <time>2026-03-06T20:13:05.000Z</time>
      </trkpt>
      <trkpt lat="43.42295" lon="-1.45463">
        <ele>14</ele>
        <time>2026-03-06T20:13:09.000Z</time>
      </trkpt>
      <trkpt lat="43.42276" lon="-1.45526">
        <ele>13</ele>
        <time>2026-03-06T20:13:18.000Z</time>
      </trkpt>
      <trkpt lat="43.42261" lon="-1.45548">
        <ele>13</ele>
        <time>2026-03-06T20:13:22.000Z</time>
      </trkpt>
      <trkpt lat="43.42209" lon="-1.456">
        <ele>10</ele>
        <time>2026-03-06T20:13:33.000Z</time>
      </trkpt>
      <trkpt lat="43.42193" lon="-1.45608">
        <ele>11</ele>
        <time>2026-03-06T20:13:36.000Z</time>
      </trkpt>
      <trkpt lat="43.42153" lon="-1.45615">
        <ele>11</ele>
        <time>2026-03-06T20:13:43.000Z</time>
      </trkpt>
      <trkpt lat="43.42118" lon="-1.45599">
        <ele>11</ele>
        <time>2026-03-06T20:13:50.000Z</time>
      </trkpt>
      <trkpt lat="43.42105" lon="-1.45585">
        <ele>12</ele>
        <time>2026-03-06T20:13:53.000Z</time>
      </trkpt>
      <trkpt lat="43.42083" lon="-1.45553">
        <ele>14</ele>
        <time>2026-03-06T20:13:58.000Z</time>
      </trkpt>
      <trkpt lat="43.42064" lon="-1.45523">
        <ele>15</ele>
        <time>2026-03-06T20:14:04.000Z</time>
      </trkpt>
      <trkpt lat="43.42035" lon="-1.45469">
        <ele>16</ele>
        <time>2026-03-06T20:14:12.000Z</time>
      </trkpt>
      <trkpt lat="43.42027" lon="-1.45457">
        <ele>17</ele>
        <time>2026-03-06T20:14:14.000Z</time>
      </trkpt>
      <trkpt lat="43.42011" lon="-1.45445">
        <ele>17</ele>
        <time>2026-03-06T20:14:18.000Z</time>
      </trkpt>
      <trkpt lat="43.41848" lon="-1.45381">
        <ele>12</ele>
        <time>2026-03-06T20:14:48.000Z</time>
      </trkpt>
      <trkpt lat="43.41529" lon="-1.45267">
        <ele>16</ele>
        <time>2026-03-06T20:15:46.000Z</time>
      </trkpt>
      <trkpt lat="43.41513" lon="-1.45258">
        <ele>14</ele>
        <time>2026-03-06T20:15:50.000Z</time>
      </trkpt>
      <trkpt lat="43.4149" lon="-1.45234">
        <ele>14</ele>
        <time>2026-03-06T20:15:55.000Z</time>
      </trkpt>
      <trkpt lat="43.41472" lon="-1.45211">
        <ele>16</ele>
        <time>2026-03-06T20:15:59.000Z</time>
      </trkpt>
      <trkpt lat="43.41452" lon="-1.45193">
        <ele>16</ele>
        <time>2026-03-06T20:16:03.000Z</time>
      </trkpt>
      <trkpt lat="43.41435" lon="-1.45184">
        <ele>14</ele>
        <time>2026-03-06T20:16:07.000Z</time>
      </trkpt>
      <trkpt lat="43.4141" lon="-1.45181">
        <ele>12</ele>
        <time>2026-03-06T20:16:11.000Z</time>
      </trkpt>
      <trkpt lat="43.41385" lon="-1.45175">
        <ele>13</ele>
        <time>2026-03-06T20:16:15.000Z</time>
      </trkpt>
      <trkpt lat="43.41364" lon="-1.45166">
        <ele>15</ele>
        <time>2026-03-06T20:16:19.000Z</time>
      </trkpt>
      <trkpt lat="43.41349" lon="-1.45165">
        <ele>15</ele>
        <time>2026-03-06T20:16:22.000Z</time>
      </trkpt>
      <trkpt lat="43.41331" lon="-1.4517">
        <ele>15</ele>
        <time>2026-03-06T20:16:25.000Z</time>
      </trkpt>
      <trkpt lat="43.41268" lon="-1.45204">
        <ele>12</ele>
        <time>2026-03-06T20:16:37.000Z</time>
      </trkpt>
      <trkpt lat="43.41255" lon="-1.45205">
        <ele>12</ele>
        <time>2026-03-06T20:16:40.000Z</time>
      </trkpt>
      <trkpt lat="43.41245" lon="-1.45201">
        <ele>12</ele>
        <time>2026-03-06T20:16:42.000Z</time>
      </trkpt>
      <trkpt lat="43.41233" lon="-1.45192">
        <ele>12</ele>
        <time>2026-03-06T20:16:44.000Z</time>
      </trkpt>
      <trkpt lat="43.41099" lon="-1.45062">
        <ele>12</ele>
        <time>2026-03-06T20:17:13.000Z</time>
      </trkpt>
      <trkpt lat="43.41088" lon="-1.45055">
        <ele>10</ele>
        <time>2026-03-06T20:17:15.000Z</time>
      </trkpt>
      <trkpt lat="43.4108" lon="-1.45052">
        <ele>9</ele>
        <time>2026-03-06T20:17:17.000Z</time>
      </trkpt>
      <trkpt lat="43.4106" lon="-1.45054">
        <ele>8</ele>
        <time>2026-03-06T20:17:20.000Z</time>
      </trkpt>
      <trkpt lat="43.40965" lon="-1.45074">
        <ele>6</ele>
        <time>2026-03-06T20:17:37.000Z</time>
      </trkpt>
      <trkpt lat="43.40954" lon="-1.45073">
        <ele>6</ele>
        <time>2026-03-06T20:17:39.000Z</time>
      </trkpt>
      <trkpt lat="43.40881" lon="-1.45043">
        <ele>7</ele>
        <time>2026-03-06T20:17:53.000Z</time>
      </trkpt>
      <trkpt lat="43.40871" lon="-1.4504">
        <ele>8</ele>
        <time>2026-03-06T20:17:55.000Z</time>
      </trkpt>
      <trkpt lat="43.4086" lon="-1.45043">
        <ele>8</ele>
        <time>2026-03-06T20:17:57.000Z</time>
      </trkpt>
      <trkpt lat="43.40855" lon="-1.45046">
        <ele>8</ele>
        <time>2026-03-06T20:17:58.000Z</time>
      </trkpt>
      <trkpt lat="43.40822" lon="-1.45093">
        <ele>8</ele>
        <time>2026-03-06T20:18:06.000Z</time>
      </trkpt>
      <trkpt lat="43.40815" lon="-1.451">
        <ele>7</ele>
        <time>2026-03-06T20:18:08.000Z</time>
      </trkpt>
      <trkpt lat="43.40805" lon="-1.45107">
        <ele>7</ele>
        <time>2026-03-06T20:18:10.000Z</time>
      </trkpt>
      <trkpt lat="43.40795" lon="-1.45108">
        <ele>7</ele>
        <time>2026-03-06T20:18:12.000Z</time>
      </trkpt>
      <trkpt lat="43.40781" lon="-1.45106">
        <ele>7</ele>
        <time>2026-03-06T20:18:14.000Z</time>
      </trkpt>
      <trkpt lat="43.4076" lon="-1.45096">
        <ele>7</ele>
        <time>2026-03-06T20:18:18.000Z</time>
      </trkpt>
      <trkpt lat="43.40685" lon="-1.45041">
        <ele>7</ele>
        <time>2026-03-06T20:18:33.000Z</time>
      </trkpt>
      <trkpt lat="43.40674" lon="-1.45036">
        <ele>7</ele>
        <time>2026-03-06T20:18:35.000Z</time>
      </trkpt>
      <trkpt lat="43.40661" lon="-1.45032">
        <ele>7</ele>
        <time>2026-03-06T20:18:38.000Z</time>
      </trkpt>
      <trkpt lat="43.40602" lon="-1.45032">
        <ele>7</ele>
        <time>2026-03-06T20:18:48.000Z</time>
      </trkpt>
      <trkpt lat="43.40584" lon="-1.45027">
        <ele>7</ele>
        <time>2026-03-06T20:18:51.000Z</time>
      </trkpt>
      <trkpt lat="43.40565" lon="-1.45015">
        <ele>8</ele>
        <time>2026-03-06T20:18:55.000Z</time>
      </trkpt>
      <trkpt lat="43.40542" lon="-1.44995">
        <ele>8</ele>
        <time>2026-03-06T20:19:00.000Z</time>
      </trkpt>
      <trkpt lat="43.40528" lon="-1.44987">
        <ele>9</ele>
        <time>2026-03-06T20:19:03.000Z</time>
      </trkpt>
      <trkpt lat="43.40474" lon="-1.44959">
        <ele>8</ele>
        <time>2026-03-06T20:19:13.000Z</time>
      </trkpt>
      <trkpt lat="43.40453" lon="-1.44951">
        <ele>7</ele>
        <time>2026-03-06T20:19:17.000Z</time>
      </trkpt>
      <trkpt lat="43.40447" lon="-1.44953">
        <ele>7</ele>
        <time>2026-03-06T20:19:18.000Z</time>
      </trkpt>
      <trkpt lat="43.40438" lon="-1.4496">
        <ele>7</ele>
        <time>2026-03-06T20:19:20.000Z</time>
      </trkpt>
      <trkpt lat="43.40262" lon="-1.45202">
        <ele>5</ele>
        <time>2026-03-06T20:20:04.000Z</time>
      </trkpt>
      <trkpt lat="43.40141" lon="-1.45371">
        <ele>6</ele>
        <time>2026-03-06T20:20:35.000Z</time>
      </trkpt>
      <trkpt lat="43.40105" lon="-1.45422">
        <ele>8</ele>
        <time>2026-03-06T20:20:44.000Z</time>
      </trkpt>
      <trkpt lat="43.40078" lon="-1.45486">
        <ele>7</ele>
        <time>2026-03-06T20:20:53.000Z</time>
      </trkpt>
      <trkpt lat="43.40039" lon="-1.45575">
        <ele>8</ele>
        <time>2026-03-06T20:21:07.000Z</time>
      </trkpt>
      <trkpt lat="43.40005" lon="-1.45652">
        <ele>14</ele>
        <time>2026-03-06T20:21:18.000Z</time>
      </trkpt>
      <trkpt lat="43.40003" lon="-1.45663">
        <ele>15</ele>
        <time>2026-03-06T20:21:20.000Z</time>
      </trkpt>
      <trkpt lat="43.39955" lon="-1.45609">
        <ele>13</ele>
        <time>2026-03-06T20:21:31.000Z</time>
      </trkpt>
      <trkpt lat="43.39893" lon="-1.45534">
        <ele>12</ele>
        <time>2026-03-06T20:21:46.000Z</time>
      </trkpt>
      <trkpt lat="43.39883" lon="-1.45525">
        <ele>13</ele>
        <time>2026-03-06T20:21:48.000Z</time>
      </trkpt>
      <trkpt lat="43.39816" lon="-1.45479">
        <ele>14</ele>
        <time>2026-03-06T20:22:01.000Z</time>
      </trkpt>
      <trkpt lat="43.39734" lon="-1.45431">
        <ele>15</ele>
        <time>2026-03-06T20:22:17.000Z</time>
      </trkpt>
      <trkpt lat="43.39726" lon="-1.45427">
        <ele>15</ele>
        <time>2026-03-06T20:22:18.000Z</time>
      </trkpt>
      <trkpt lat="43.39714" lon="-1.45427">
        <ele>15</ele>
        <time>2026-03-06T20:22:21.000Z</time>
      </trkpt>
      <trkpt lat="43.39706" lon="-1.4543">
        <ele>15</ele>
        <time>2026-03-06T20:22:22.000Z</time>
      </trkpt>
      <trkpt lat="43.39704" lon="-1.45435">
        <ele>15</ele>
        <time>2026-03-06T20:22:23.000Z</time>
      </trkpt>
      <trkpt lat="43.39698" lon="-1.45438">
        <ele>15</ele>
        <time>2026-03-06T20:22:24.000Z</time>
      </trkpt>
      <trkpt lat="43.39694" lon="-1.45447">
        <ele>16</ele>
        <time>2026-03-06T20:22:25.000Z</time>
      </trkpt>
      <trkpt lat="43.39678" lon="-1.45502">
        <ele>18</ele>
        <time>2026-03-06T20:22:33.000Z</time>
      </trkpt>
      <trkpt lat="43.39677" lon="-1.45518">
        <ele>18</ele>
        <time>2026-03-06T20:22:35.000Z</time>
      </trkpt>
      <trkpt lat="43.39682" lon="-1.45544">
        <ele>18</ele>
        <time>2026-03-06T20:22:38.000Z</time>
      </trkpt>
      <trkpt lat="43.39681" lon="-1.4556">
        <ele>18</ele>
        <time>2026-03-06T20:22:41.000Z</time>
      </trkpt>
      <trkpt lat="43.39674" lon="-1.45575">
        <ele>19</ele>
        <time>2026-03-06T20:22:43.000Z</time>
      </trkpt>
      <trkpt lat="43.39664" lon="-1.45586">
        <ele>19</ele>
        <time>2026-03-06T20:22:45.000Z</time>
      </trkpt>
      <trkpt lat="43.39654" lon="-1.45588">
        <ele>19</ele>
        <time>2026-03-06T20:22:47.000Z</time>
      </trkpt>
      <trkpt lat="43.39601" lon="-1.45576">
        <ele>20</ele>
        <time>2026-03-06T20:22:56.000Z</time>
      </trkpt>
      <trkpt lat="43.39579" lon="-1.45579">
        <ele>21</ele>
        <time>2026-03-06T20:23:00.000Z</time>
      </trkpt>
      <trkpt lat="43.3952" lon="-1.45603">
        <ele>22</ele>
        <time>2026-03-06T20:23:11.000Z</time>
      </trkpt>
      <trkpt lat="43.39508" lon="-1.4561">
        <ele>22</ele>
        <time>2026-03-06T20:23:14.000Z</time>
      </trkpt>
      <trkpt lat="43.39497" lon="-1.45624">
        <ele>23</ele>
        <time>2026-03-06T20:23:16.000Z</time>
      </trkpt>
      <trkpt lat="43.39449" lon="-1.45727">
        <ele>24</ele>
        <time>2026-03-06T20:23:32.000Z</time>
      </trkpt>
      <trkpt lat="43.39417" lon="-1.45829">
        <ele>30</ele>
        <time>2026-03-06T20:23:47.000Z</time>
      </trkpt>
      <trkpt lat="43.39412" lon="-1.45851">
        <ele>32</ele>
        <time>2026-03-06T20:23:50.000Z</time>
      </trkpt>
      <trkpt lat="43.39409" lon="-1.45882">
        <ele>36</ele>
        <time>2026-03-06T20:23:54.000Z</time>
      </trkpt>
      <trkpt lat="43.39407" lon="-1.45882">
        <ele>36</ele>
        <time>2026-03-06T20:23:54.000Z</time>
      </trkpt>
      <trkpt lat="43.39402" lon="-1.45901">
        <ele>39</ele>
        <time>2026-03-06T20:23:57.000Z</time>
      </trkpt>
      <trkpt lat="43.39362" lon="-1.4584">
        <ele>36</ele>
        <time>2026-03-06T20:24:07.000Z</time>
      </trkpt>
      <trkpt lat="43.39328" lon="-1.45839">
        <ele>40</ele>
        <time>2026-03-06T20:24:13.000Z</time>
      </trkpt>
      <trkpt lat="43.39318" lon="-1.45835">
        <ele>41</ele>
        <time>2026-03-06T20:24:15.000Z</time>
      </trkpt>
      <trkpt lat="43.39305" lon="-1.45822">
        <ele>42</ele>
        <time>2026-03-06T20:24:18.000Z</time>
      </trkpt>
      <trkpt lat="43.39293" lon="-1.4582">
        <ele>44</ele>
        <time>2026-03-06T20:24:20.000Z</time>
      </trkpt>
      <trkpt lat="43.39279" lon="-1.45822">
        <ele>47</ele>
        <time>2026-03-06T20:24:23.000Z</time>
      </trkpt>
      <trkpt lat="43.39276" lon="-1.45805">
        <ele>46</ele>
        <time>2026-03-06T20:24:25.000Z</time>
      </trkpt>
      <trkpt lat="43.39269" lon="-1.45797">
        <ele>46</ele>
        <time>2026-03-06T20:24:26.000Z</time>
      </trkpt>
      <trkpt lat="43.39254" lon="-1.45788">
        <ele>47</ele>
        <time>2026-03-06T20:24:29.000Z</time>
      </trkpt>
      <trkpt lat="43.39245" lon="-1.45828">
        <ele>54</ele>
        <time>2026-03-06T20:24:35.000Z</time>
      </trkpt>
      <trkpt lat="43.39251" lon="-1.45933">
        <ele>55</ele>
        <time>2026-03-06T20:24:48.000Z</time>
      </trkpt>
      <trkpt lat="43.39246" lon="-1.45946">
        <ele>54</ele>
        <time>2026-03-06T20:24:50.000Z</time>
      </trkpt>
      <trkpt lat="43.39254" lon="-1.45955">
        <ele>54</ele>
        <time>2026-03-06T20:24:52.000Z</time>
      </trkpt>
      <trkpt lat="43.39246" lon="-1.45946">
        <ele>54</ele>
        <time>2026-03-06T20:24:54.000Z</time>
      </trkpt>
      <trkpt lat="43.39149" lon="-1.45954">
        <ele>56</ele>
        <time>2026-03-06T20:25:11.000Z</time>
      </trkpt>
      <trkpt lat="43.39134" lon="-1.45958">
        <ele>56</ele>
        <time>2026-03-06T20:25:14.000Z</time>
      </trkpt>
      <trkpt lat="43.39119" lon="-1.45965">
        <ele>57</ele>
        <time>2026-03-06T20:25:17.000Z</time>
      </trkpt>
      <trkpt lat="43.39088" lon="-1.45996">
        <ele>58</ele>
        <time>2026-03-06T20:25:24.000Z</time>
      </trkpt>
      <trkpt lat="43.39051" lon="-1.46055">
        <ele>55</ele>
        <time>2026-03-06T20:25:34.000Z</time>
      </trkpt>
      <trkpt lat="43.39025" lon="-1.46092">
        <ele>57</ele>
        <time>2026-03-06T20:25:40.000Z</time>
      </trkpt>
      <trkpt lat="43.38993" lon="-1.46164">
        <ele>52</ele>
        <time>2026-03-06T20:25:51.000Z</time>
      </trkpt>
      <trkpt lat="43.38963" lon="-1.46201">
        <ele>51</ele>
        <time>2026-03-06T20:25:58.000Z</time>
      </trkpt>
      <trkpt lat="43.38929" lon="-1.46219">
        <ele>53</ele>
        <time>2026-03-06T20:26:05.000Z</time>
      </trkpt>
      <trkpt lat="43.38906" lon="-1.46253">
        <ele>48</ele>
        <time>2026-03-06T20:26:11.000Z</time>
      </trkpt>
      <trkpt lat="43.3887" lon="-1.46281">
        <ele>48</ele>
        <time>2026-03-06T20:26:18.000Z</time>
      </trkpt>
      <trkpt lat="43.38761" lon="-1.46327">
        <ele>46</ele>
        <time>2026-03-06T20:26:39.000Z</time>
      </trkpt>
      <trkpt lat="43.38738" lon="-1.46328">
        <ele>44</ele>
        <time>2026-03-06T20:26:43.000Z</time>
      </trkpt>
      <trkpt lat="43.38684" lon="-1.46285">
        <ele>44</ele>
        <time>2026-03-06T20:26:54.000Z</time>
      </trkpt>
      <trkpt lat="43.38653" lon="-1.46266">
        <ele>45</ele>
        <time>2026-03-06T20:27:00.000Z</time>
      </trkpt>
      <trkpt lat="43.38628" lon="-1.46268">
        <ele>44</ele>
        <time>2026-03-06T20:27:04.000Z</time>
      </trkpt>
      <trkpt lat="43.38591" lon="-1.463">
        <ele>39</ele>
        <time>2026-03-06T20:27:12.000Z</time>
      </trkpt>
      <trkpt lat="43.38558" lon="-1.46346">
        <ele>35</ele>
        <time>2026-03-06T20:27:20.000Z</time>
      </trkpt>
      <trkpt lat="43.38545" lon="-1.4636">
        <ele>35</ele>
        <time>2026-03-06T20:27:23.000Z</time>
      </trkpt>
      <trkpt lat="43.3853" lon="-1.46369">
        <ele>34</ele>
        <time>2026-03-06T20:27:26.000Z</time>
      </trkpt>
      <trkpt lat="43.38513" lon="-1.46373">
        <ele>34</ele>
        <time>2026-03-06T20:27:29.000Z</time>
      </trkpt>
      <trkpt lat="43.38476" lon="-1.4637">
        <ele>35</ele>
        <time>2026-03-06T20:27:36.000Z</time>
      </trkpt>
      <trkpt lat="43.38461" lon="-1.46373">
        <ele>36</ele>
        <time>2026-03-06T20:27:39.000Z</time>
      </trkpt>
      <trkpt lat="43.38446" lon="-1.46384">
        <ele>37</ele>
        <time>2026-03-06T20:27:42.000Z</time>
      </trkpt>
      <trkpt lat="43.3841" lon="-1.46418">
        <ele>38</ele>
        <time>2026-03-06T20:27:49.000Z</time>
      </trkpt>
      <trkpt lat="43.3841" lon="-1.4643">
        <ele>38</ele>
        <time>2026-03-06T20:27:51.000Z</time>
      </trkpt>
      <trkpt lat="43.38408" lon="-1.46435">
        <ele>38</ele>
        <time>2026-03-06T20:27:52.000Z</time>
      </trkpt>
      <trkpt lat="43.38401" lon="-1.46438">
        <ele>39</ele>
        <time>2026-03-06T20:27:53.000Z</time>
      </trkpt>
      <trkpt lat="43.38394" lon="-1.46433">
        <ele>39</ele>
        <time>2026-03-06T20:27:54.000Z</time>
      </trkpt>
      <trkpt lat="43.38368" lon="-1.46483">
        <ele>41</ele>
        <time>2026-03-06T20:28:02.000Z</time>
      </trkpt>
      <trkpt lat="43.38359" lon="-1.46518">
        <ele>42</ele>
        <time>2026-03-06T20:28:07.000Z</time>
      </trkpt>
      <trkpt lat="43.38352" lon="-1.46552">
        <ele>43</ele>
        <time>2026-03-06T20:28:12.000Z</time>
      </trkpt>
      <trkpt lat="43.3835" lon="-1.46599">
        <ele>45</ele>
        <time>2026-03-06T20:28:18.000Z</time>
      </trkpt>
      <trkpt lat="43.38352" lon="-1.4663">
        <ele>45</ele>
        <time>2026-03-06T20:28:22.000Z</time>
      </trkpt>
      <trkpt lat="43.38358" lon="-1.46657">
        <ele>45</ele>
        <time>2026-03-06T20:28:25.000Z</time>
      </trkpt>
      <trkpt lat="43.3847" lon="-1.46856">
        <ele>54</ele>
        <time>2026-03-06T20:28:58.000Z</time>
      </trkpt>
      <trkpt lat="43.38527" lon="-1.4698">
        <ele>65</ele>
        <time>2026-03-06T20:29:17.000Z</time>
      </trkpt>
      <trkpt lat="43.38552" lon="-1.47046">
        <ele>70</ele>
        <time>2026-03-06T20:29:27.000Z</time>
      </trkpt>
      <trkpt lat="43.38578" lon="-1.47147">
        <ele>75</ele>
        <time>2026-03-06T20:29:40.000Z</time>
      </trkpt>
      <trkpt lat="43.38578" lon="-1.47162">
        <ele>75</ele>
        <time>2026-03-06T20:29:42.000Z</time>
      </trkpt>
      <trkpt lat="43.38574" lon="-1.47178">
        <ele>76</ele>
        <time>2026-03-06T20:29:45.000Z</time>
      </trkpt>
      <trkpt lat="43.38539" lon="-1.47212">
        <ele>76</ele>
        <time>2026-03-06T20:29:52.000Z</time>
      </trkpt>
      <trkpt lat="43.38534" lon="-1.47222">
        <ele>76</ele>
        <time>2026-03-06T20:29:54.000Z</time>
      </trkpt>
      <trkpt lat="43.38531" lon="-1.47234">
        <ele>77</ele>
        <time>2026-03-06T20:29:55.000Z</time>
      </trkpt>
      <trkpt lat="43.3853" lon="-1.47247">
        <ele>79</ele>
        <time>2026-03-06T20:29:57.000Z</time>
      </trkpt>
      <trkpt lat="43.38532" lon="-1.47259">
        <ele>79</ele>
        <time>2026-03-06T20:29:59.000Z</time>
      </trkpt>
      <trkpt lat="43.38581" lon="-1.4744">
        <ele>87</ele>
        <time>2026-03-06T20:30:24.000Z</time>
      </trkpt>
      <trkpt lat="43.38583" lon="-1.47472">
        <ele>86</ele>
        <time>2026-03-06T20:30:28.000Z</time>
      </trkpt>
      <trkpt lat="43.38574" lon="-1.47586">
        <ele>89</ele>
        <time>2026-03-06T20:30:43.000Z</time>
      </trkpt>
      <trkpt lat="43.38573" lon="-1.47605">
        <ele>90</ele>
        <time>2026-03-06T20:30:45.000Z</time>
      </trkpt>
      <trkpt lat="43.38576" lon="-1.4763">
        <ele>90</ele>
        <time>2026-03-06T20:30:48.000Z</time>
      </trkpt>
      <trkpt lat="43.3859" lon="-1.47707">
        <ele>92</ele>
        <time>2026-03-06T20:30:59.000Z</time>
      </trkpt>
      <trkpt lat="43.38599" lon="-1.47742">
        <ele>94</ele>
        <time>2026-03-06T20:31:03.000Z</time>
      </trkpt>
      <trkpt lat="43.3861" lon="-1.4777">
        <ele>95</ele>
        <time>2026-03-06T20:31:08.000Z</time>
      </trkpt>
      <trkpt lat="43.38651" lon="-1.4784">
        <ele>99</ele>
        <time>2026-03-06T20:31:19.000Z</time>
      </trkpt>
      <trkpt lat="43.3869" lon="-1.47921">
        <ele>104</ele>
        <time>2026-03-06T20:31:32.000Z</time>
      </trkpt>
      <trkpt lat="43.38712" lon="-1.47953">
        <ele>106</ele>
        <time>2026-03-06T20:31:37.000Z</time>
      </trkpt>
      <trkpt lat="43.38723" lon="-1.47963">
        <ele>107</ele>
        <time>2026-03-06T20:31:40.000Z</time>
      </trkpt>
      <trkpt lat="43.38784" lon="-1.48006">
        <ele>109</ele>
        <time>2026-03-06T20:31:52.000Z</time>
      </trkpt>
      <trkpt lat="43.38791" lon="-1.48017">
        <ele>110</ele>
        <time>2026-03-06T20:31:54.000Z</time>
      </trkpt>
      <trkpt lat="43.38795" lon="-1.48032">
        <ele>110</ele>
        <time>2026-03-06T20:31:56.000Z</time>
      </trkpt>
      <trkpt lat="43.38797" lon="-1.48047">
        <ele>111</ele>
        <time>2026-03-06T20:31:58.000Z</time>
      </trkpt>
      <trkpt lat="43.38806" lon="-1.48158">
        <ele>113</ele>
        <time>2026-03-06T20:32:12.000Z</time>
      </trkpt>
      <trkpt lat="43.38806" lon="-1.48177">
        <ele>112</ele>
        <time>2026-03-06T20:32:15.000Z</time>
      </trkpt>
      <trkpt lat="43.38785" lon="-1.48321">
        <ele>111</ele>
        <time>2026-03-06T20:32:34.000Z</time>
      </trkpt>
      <trkpt lat="43.38777" lon="-1.48351">
        <ele>111</ele>
        <time>2026-03-06T20:32:38.000Z</time>
      </trkpt>
      <trkpt lat="43.38767" lon="-1.48371">
        <ele>112</ele>
        <time>2026-03-06T20:32:41.000Z</time>
      </trkpt>
      <trkpt lat="43.38729" lon="-1.48433">
        <ele>114</ele>
        <time>2026-03-06T20:32:52.000Z</time>
      </trkpt>
      <trkpt lat="43.3871" lon="-1.48454">
        <ele>114</ele>
        <time>2026-03-06T20:32:56.000Z</time>
      </trkpt>
      <trkpt lat="43.38686" lon="-1.48472">
        <ele>116</ele>
        <time>2026-03-06T20:33:01.000Z</time>
      </trkpt>
      <trkpt lat="43.3866" lon="-1.48496">
        <ele>117</ele>
        <time>2026-03-06T20:33:06.000Z</time>
      </trkpt>
      <trkpt lat="43.38647" lon="-1.48516">
        <ele>116</ele>
        <time>2026-03-06T20:33:10.000Z</time>
      </trkpt>
      <trkpt lat="43.38636" lon="-1.48544">
        <ele>115</ele>
        <time>2026-03-06T20:33:14.000Z</time>
      </trkpt>
      <trkpt lat="43.38633" lon="-1.48568">
        <ele>114</ele>
        <time>2026-03-06T20:33:17.000Z</time>
      </trkpt>
      <trkpt lat="43.38642" lon="-1.48713">
        <ele>107</ele>
        <time>2026-03-06T20:33:36.000Z</time>
      </trkpt>
      <trkpt lat="43.38651" lon="-1.48743">
        <ele>108</ele>
        <time>2026-03-06T20:33:40.000Z</time>
      </trkpt>
      <trkpt lat="43.38696" lon="-1.4882">
        <ele>107</ele>
        <time>2026-03-06T20:33:53.000Z</time>
      </trkpt>
      <trkpt lat="43.38702" lon="-1.4886">
        <ele>107</ele>
        <time>2026-03-06T20:33:58.000Z</time>
      </trkpt>
      <trkpt lat="43.38734" lon="-1.49133">
        <ele>119</ele>
        <time>2026-03-06T20:34:34.000Z</time>
      </trkpt>
      <trkpt lat="43.38737" lon="-1.49263">
        <ele>126</ele>
        <time>2026-03-06T20:34:51.000Z</time>
      </trkpt>
      <trkpt lat="43.38706" lon="-1.49424">
        <ele>126</ele>
        <time>2026-03-06T20:35:12.000Z</time>
      </trkpt>
      <trkpt lat="43.38678" lon="-1.49501">
        <ele>133</ele>
        <time>2026-03-06T20:35:23.000Z</time>
      </trkpt>
      <trkpt lat="43.38685" lon="-1.49592">
        <ele>133</ele>
        <time>2026-03-06T20:35:35.000Z</time>
      </trkpt>
      <trkpt lat="43.3868" lon="-1.49636">
        <ele>134</ele>
        <time>2026-03-06T20:35:41.000Z</time>
      </trkpt>
      <trkpt lat="43.3866" lon="-1.49697">
        <ele>138</ele>
        <time>2026-03-06T20:35:50.000Z</time>
      </trkpt>
      <trkpt lat="43.38573" lon="-1.49898">
        <ele>141</ele>
        <time>2026-03-06T20:36:20.000Z</time>
      </trkpt>
      <trkpt lat="43.38555" lon="-1.49922">
        <ele>140</ele>
        <time>2026-03-06T20:36:24.000Z</time>
      </trkpt>
      <trkpt lat="43.38475" lon="-1.49994">
        <ele>136</ele>
        <time>2026-03-06T20:36:41.000Z</time>
      </trkpt>
      <trkpt lat="43.38468" lon="-1.50015">
        <ele>135</ele>
        <time>2026-03-06T20:36:44.000Z</time>
      </trkpt>
      <trkpt lat="43.38452" lon="-1.50137">
        <ele>131</ele>
        <time>2026-03-06T20:37:00.000Z</time>
      </trkpt>
      <trkpt lat="43.3844" lon="-1.50174">
        <ele>129</ele>
        <time>2026-03-06T20:37:06.000Z</time>
      </trkpt>
      <trkpt lat="43.38412" lon="-1.50226">
        <ele>128</ele>
        <time>2026-03-06T20:37:14.000Z</time>
      </trkpt>
      <trkpt lat="43.38359" lon="-1.50285">
        <ele>126</ele>
        <time>2026-03-06T20:37:26.000Z</time>
      </trkpt>
      <trkpt lat="43.38265" lon="-1.50446">
        <ele>127</ele>
        <time>2026-03-06T20:37:53.000Z</time>
      </trkpt>
      <trkpt lat="43.3826" lon="-1.50458">
        <ele>127</ele>
        <time>2026-03-06T20:37:55.000Z</time>
      </trkpt>
      <trkpt lat="43.3815" lon="-1.50433">
        <ele>127</ele>
        <time>2026-03-06T20:38:14.000Z</time>
      </trkpt>
      <trkpt lat="43.38125" lon="-1.5043">
        <ele>127</ele>
        <time>2026-03-06T20:38:19.000Z</time>
      </trkpt>
      <trkpt lat="43.38017" lon="-1.50433">
        <ele>128</ele>
        <time>2026-03-06T20:38:38.000Z</time>
      </trkpt>
      <trkpt lat="43.37996" lon="-1.50438">
        <ele>128</ele>
        <time>2026-03-06T20:38:42.000Z</time>
      </trkpt>
      <trkpt lat="43.37963" lon="-1.50452">
        <ele>129</ele>
        <time>2026-03-06T20:38:48.000Z</time>
      </trkpt>
      <trkpt lat="43.37947" lon="-1.50456">
        <ele>129</ele>
        <time>2026-03-06T20:38:51.000Z</time>
      </trkpt>
      <trkpt lat="43.37933" lon="-1.50453">
        <ele>129</ele>
        <time>2026-03-06T20:38:54.000Z</time>
      </trkpt>
      <trkpt lat="43.37906" lon="-1.50439">
        <ele>129</ele>
        <time>2026-03-06T20:38:59.000Z</time>
      </trkpt>
      <trkpt lat="43.3789" lon="-1.50437">
        <ele>128</ele>
        <time>2026-03-06T20:39:01.000Z</time>
      </trkpt>
      <trkpt lat="43.37878" lon="-1.50441">
        <ele>128</ele>
        <time>2026-03-06T20:39:04.000Z</time>
      </trkpt>
      <trkpt lat="43.37871" lon="-1.5045">
        <ele>127</ele>
        <time>2026-03-06T20:39:05.000Z</time>
      </trkpt>
      <trkpt lat="43.37867" lon="-1.50466">
        <ele>127</ele>
        <time>2026-03-06T20:39:08.000Z</time>
      </trkpt>
      <trkpt lat="43.37875" lon="-1.50531">
        <ele>128</ele>
        <time>2026-03-06T20:39:16.000Z</time>
      </trkpt>
      <trkpt lat="43.37871" lon="-1.50596">
        <ele>128</ele>
        <time>2026-03-06T20:39:25.000Z</time>
      </trkpt>
      <trkpt lat="43.37859" lon="-1.50665">
        <ele>129</ele>
        <time>2026-03-06T20:39:34.000Z</time>
      </trkpt>
      <trkpt lat="43.37847" lon="-1.50819">
        <ele>132</ele>
        <time>2026-03-06T20:39:54.000Z</time>
      </trkpt>
      <trkpt lat="43.37838" lon="-1.50848">
        <ele>132</ele>
        <time>2026-03-06T20:39:58.000Z</time>
      </trkpt>
      <trkpt lat="43.378" lon="-1.50931">
        <ele>134</ele>
        <time>2026-03-06T20:40:11.000Z</time>
      </trkpt>
      <trkpt lat="43.37768" lon="-1.50997">
        <ele>135</ele>
        <time>2026-03-06T20:40:21.000Z</time>
      </trkpt>
      <trkpt lat="43.37737" lon="-1.51026">
        <ele>136</ele>
        <time>2026-03-06T20:40:27.000Z</time>
      </trkpt>
      <trkpt lat="43.37723" lon="-1.51051">
        <ele>137</ele>
        <time>2026-03-06T20:40:32.000Z</time>
      </trkpt>
      <trkpt lat="43.37704" lon="-1.51106">
        <ele>137</ele>
        <time>2026-03-06T20:40:39.000Z</time>
      </trkpt>
      <trkpt lat="43.37693" lon="-1.51128">
        <ele>136</ele>
        <time>2026-03-06T20:40:43.000Z</time>
      </trkpt>
      <trkpt lat="43.3768" lon="-1.51144">
        <ele>136</ele>
        <time>2026-03-06T20:40:46.000Z</time>
      </trkpt>
      <trkpt lat="43.37666" lon="-1.51152">
        <ele>136</ele>
        <time>2026-03-06T20:40:49.000Z</time>
      </trkpt>
      <trkpt lat="43.37641" lon="-1.51154">
        <ele>135</ele>
        <time>2026-03-06T20:40:53.000Z</time>
      </trkpt>
      <trkpt lat="43.37596" lon="-1.51133">
        <ele>136</ele>
        <time>2026-03-06T20:41:02.000Z</time>
      </trkpt>
      <trkpt lat="43.37576" lon="-1.51129">
        <ele>136</ele>
        <time>2026-03-06T20:41:05.000Z</time>
      </trkpt>
      <trkpt lat="43.37543" lon="-1.5113">
        <ele>136</ele>
        <time>2026-03-06T20:41:11.000Z</time>
      </trkpt>
      <trkpt lat="43.37523" lon="-1.51135">
        <ele>136</ele>
        <time>2026-03-06T20:41:15.000Z</time>
      </trkpt>
      <trkpt lat="43.37508" lon="-1.51147">
        <ele>136</ele>
        <time>2026-03-06T20:41:18.000Z</time>
      </trkpt>
      <trkpt lat="43.37498" lon="-1.51158">
        <ele>135</ele>
        <time>2026-03-06T20:41:20.000Z</time>
      </trkpt>
      <trkpt lat="43.37487" lon="-1.51176">
        <ele>134</ele>
        <time>2026-03-06T20:41:23.000Z</time>
      </trkpt>
      <trkpt lat="43.37462" lon="-1.51223">
        <ele>132</ele>
        <time>2026-03-06T20:41:31.000Z</time>
      </trkpt>
      <trkpt lat="43.37454" lon="-1.51254">
        <ele>132</ele>
        <time>2026-03-06T20:41:35.000Z</time>
      </trkpt>
      <trkpt lat="43.37452" lon="-1.51292">
        <ele>132</ele>
        <time>2026-03-06T20:41:40.000Z</time>
      </trkpt>
      <trkpt lat="43.37452" lon="-1.51326">
        <ele>131</ele>
        <time>2026-03-06T20:41:44.000Z</time>
      </trkpt>
      <trkpt lat="43.37448" lon="-1.51363">
        <ele>132</ele>
        <time>2026-03-06T20:41:49.000Z</time>
      </trkpt>
      <trkpt lat="43.37438" lon="-1.51436">
        <ele>133</ele>
        <time>2026-03-06T20:41:59.000Z</time>
      </trkpt>
      <trkpt lat="43.37427" lon="-1.51539">
        <ele>134</ele>
        <time>2026-03-06T20:42:12.000Z</time>
      </trkpt>
      <trkpt lat="43.37423" lon="-1.51565">
        <ele>134</ele>
        <time>2026-03-06T20:42:16.000Z</time>
      </trkpt>
      <trkpt lat="43.37411" lon="-1.51588">
        <ele>135</ele>
        <time>2026-03-06T20:42:19.000Z</time>
      </trkpt>
      <trkpt lat="43.374" lon="-1.51603">
        <ele>134</ele>
        <time>2026-03-06T20:42:22.000Z</time>
      </trkpt>
      <trkpt lat="43.37384" lon="-1.51611">
        <ele>134</ele>
        <time>2026-03-06T20:42:25.000Z</time>
      </trkpt>
      <trkpt lat="43.373" lon="-1.51641">
        <ele>137</ele>
        <time>2026-03-06T20:42:40.000Z</time>
      </trkpt>
      <trkpt lat="43.37279" lon="-1.51656">
        <ele>137</ele>
        <time>2026-03-06T20:42:45.000Z</time>
      </trkpt>
      <trkpt lat="43.37263" lon="-1.51685">
        <ele>138</ele>
        <time>2026-03-06T20:42:49.000Z</time>
      </trkpt>
      <trkpt lat="43.37249" lon="-1.51722">
        <ele>139</ele>
        <time>2026-03-06T20:42:55.000Z</time>
      </trkpt>
      <trkpt lat="43.37236" lon="-1.51773">
        <ele>139</ele>
        <time>2026-03-06T20:43:02.000Z</time>
      </trkpt>
      <trkpt lat="43.37229" lon="-1.518">
        <ele>139</ele>
        <time>2026-03-06T20:43:05.000Z</time>
      </trkpt>
      <trkpt lat="43.37228" lon="-1.51845">
        <ele>139</ele>
        <time>2026-03-06T20:43:11.000Z</time>
      </trkpt>
      <trkpt lat="43.37239" lon="-1.51887">
        <ele>140</ele>
        <time>2026-03-06T20:43:17.000Z</time>
      </trkpt>
      <trkpt lat="43.37258" lon="-1.51934">
        <ele>139</ele>
        <time>2026-03-06T20:43:24.000Z</time>
      </trkpt>
      <trkpt lat="43.37275" lon="-1.52001">
        <ele>138</ele>
        <time>2026-03-06T20:43:33.000Z</time>
      </trkpt>
      <trkpt lat="43.37287" lon="-1.52055">
        <ele>138</ele>
        <time>2026-03-06T20:43:40.000Z</time>
      </trkpt>
      <trkpt lat="43.37289" lon="-1.52082">
        <ele>138</ele>
        <time>2026-03-06T20:43:44.000Z</time>
      </trkpt>
      <trkpt lat="43.37283" lon="-1.52118">
        <ele>138</ele>
        <time>2026-03-06T20:43:49.000Z</time>
      </trkpt>
      <trkpt lat="43.37271" lon="-1.52149">
        <ele>139</ele>
        <time>2026-03-06T20:43:53.000Z</time>
      </trkpt>
      <trkpt lat="43.37257" lon="-1.52177">
        <ele>139</ele>
        <time>2026-03-06T20:43:58.000Z</time>
      </trkpt>
      <trkpt lat="43.37235" lon="-1.52208">
        <ele>137</ele>
        <time>2026-03-06T20:44:03.000Z</time>
      </trkpt>
      <trkpt lat="43.37178" lon="-1.52275">
        <ele>134</ele>
        <time>2026-03-06T20:44:17.000Z</time>
      </trkpt>
      <trkpt lat="43.37147" lon="-1.52301">
        <ele>136</ele>
        <time>2026-03-06T20:44:23.000Z</time>
      </trkpt>
      <trkpt lat="43.37124" lon="-1.52316">
        <ele>138</ele>
        <time>2026-03-06T20:44:28.000Z</time>
      </trkpt>
      <trkpt lat="43.37089" lon="-1.52331">
        <ele>142</ele>
        <time>2026-03-06T20:44:34.000Z</time>
      </trkpt>
      <trkpt lat="43.37078" lon="-1.52342">
        <ele>143</ele>
        <time>2026-03-06T20:44:37.000Z</time>
      </trkpt>
      <trkpt lat="43.37071" lon="-1.52361">
        <ele>143</ele>
        <time>2026-03-06T20:44:39.000Z</time>
      </trkpt>
      <trkpt lat="43.37068" lon="-1.52455">
        <ele>141</ele>
        <time>2026-03-06T20:44:51.000Z</time>
      </trkpt>
      <trkpt lat="43.37064" lon="-1.52497">
        <ele>141</ele>
        <time>2026-03-06T20:44:57.000Z</time>
      </trkpt>
      <trkpt lat="43.37057" lon="-1.52524">
        <ele>141</ele>
        <time>2026-03-06T20:45:01.000Z</time>
      </trkpt>
      <trkpt lat="43.37046" lon="-1.52546">
        <ele>141</ele>
        <time>2026-03-06T20:45:04.000Z</time>
      </trkpt>
      <trkpt lat="43.3703" lon="-1.52563">
        <ele>141</ele>
        <time>2026-03-06T20:45:08.000Z</time>
      </trkpt>
      <trkpt lat="43.37005" lon="-1.52582">
        <ele>141</ele>
        <time>2026-03-06T20:45:13.000Z</time>
      </trkpt>
      <trkpt lat="43.36952" lon="-1.52605">
        <ele>142</ele>
        <time>2026-03-06T20:45:23.000Z</time>
      </trkpt>
      <trkpt lat="43.36908" lon="-1.52652">
        <ele>141</ele>
        <time>2026-03-06T20:45:33.000Z</time>
      </trkpt>
      <trkpt lat="43.36882" lon="-1.52658">
        <ele>139</ele>
        <time>2026-03-06T20:45:37.000Z</time>
      </trkpt>
      <trkpt lat="43.36867" lon="-1.52655">
        <ele>139</ele>
        <time>2026-03-06T20:45:40.000Z</time>
      </trkpt>
      <trkpt lat="43.36853" lon="-1.52645">
        <ele>139</ele>
        <time>2026-03-06T20:45:43.000Z</time>
      </trkpt>
      <trkpt lat="43.36841" lon="-1.52631">
        <ele>139</ele>
        <time>2026-03-06T20:45:46.000Z</time>
      </trkpt>
      <trkpt lat="43.36833" lon="-1.52616">
        <ele>139</ele>
        <time>2026-03-06T20:45:48.000Z</time>
      </trkpt>
      <trkpt lat="43.36833" lon="-1.52584">
        <ele>140</ele>
        <time>2026-03-06T20:45:52.000Z</time>
      </trkpt>
      <trkpt lat="43.36841" lon="-1.52544">
        <ele>141</ele>
        <time>2026-03-06T20:45:58.000Z</time>
      </trkpt>
      <trkpt lat="43.36831" lon="-1.52476">
        <ele>140</ele>
        <time>2026-03-06T20:46:06.000Z</time>
      </trkpt>
      <trkpt lat="43.36817" lon="-1.52434">
        <ele>140</ele>
        <time>2026-03-06T20:46:12.000Z</time>
      </trkpt>
      <trkpt lat="43.36799" lon="-1.52394">
        <ele>140</ele>
        <time>2026-03-06T20:46:19.000Z</time>
      </trkpt>
      <trkpt lat="43.36787" lon="-1.5235">
        <ele>142</ele>
        <time>2026-03-06T20:46:25.000Z</time>
      </trkpt>
      <trkpt lat="43.36779" lon="-1.52335">
        <ele>142</ele>
        <time>2026-03-06T20:46:27.000Z</time>
      </trkpt>
      <trkpt lat="43.36773" lon="-1.52329">
        <ele>142</ele>
        <time>2026-03-06T20:46:28.000Z</time>
      </trkpt>
      <trkpt lat="43.36764" lon="-1.52325">
        <ele>141</ele>
        <time>2026-03-06T20:46:30.000Z</time>
      </trkpt>
      <trkpt lat="43.36755" lon="-1.52327">
        <ele>140</ele>
        <time>2026-03-06T20:46:32.000Z</time>
      </trkpt>
      <trkpt lat="43.36717" lon="-1.52356">
        <ele>137</ele>
        <time>2026-03-06T20:46:39.000Z</time>
      </trkpt>
      <trkpt lat="43.36702" lon="-1.52364">
        <ele>137</ele>
        <time>2026-03-06T20:46:42.000Z</time>
      </trkpt>
      <trkpt lat="43.36668" lon="-1.52369">
        <ele>138</ele>
        <time>2026-03-06T20:46:48.000Z</time>
      </trkpt>
      <trkpt lat="43.36655" lon="-1.52375">
        <ele>137</ele>
        <time>2026-03-06T20:46:51.000Z</time>
      </trkpt>
      <trkpt lat="43.36641" lon="-1.52391">
        <ele>135</ele>
        <time>2026-03-06T20:46:54.000Z</time>
      </trkpt>
      <trkpt lat="43.3663" lon="-1.52398">
        <ele>134</ele>
        <time>2026-03-06T20:46:56.000Z</time>
      </trkpt>
      <trkpt lat="43.3662" lon="-1.52401">
        <ele>133</ele>
        <time>2026-03-06T20:46:58.000Z</time>
      </trkpt>
      <trkpt lat="43.36609" lon="-1.52398">
        <ele>132</ele>
        <time>2026-03-06T20:47:00.000Z</time>
      </trkpt>
      <trkpt lat="43.36599" lon="-1.52391">
        <ele>132</ele>
        <time>2026-03-06T20:47:02.000Z</time>
      </trkpt>
      <trkpt lat="43.36591" lon="-1.52379">
        <ele>132</ele>
        <time>2026-03-06T20:47:04.000Z</time>
      </trkpt>
      <trkpt lat="43.36555" lon="-1.52297">
        <ele>134</ele>
        <time>2026-03-06T20:47:16.000Z</time>
      </trkpt>
      <trkpt lat="43.36545" lon="-1.52284">
        <ele>134</ele>
        <time>2026-03-06T20:47:19.000Z</time>
      </trkpt>
      <trkpt lat="43.36534" lon="-1.52277">
        <ele>133</ele>
        <time>2026-03-06T20:47:21.000Z</time>
      </trkpt>
      <trkpt lat="43.36523" lon="-1.52274">
        <ele>133</ele>
        <time>2026-03-06T20:47:23.000Z</time>
      </trkpt>
      <trkpt lat="43.36506" lon="-1.52278">
        <ele>131</ele>
        <time>2026-03-06T20:47:26.000Z</time>
      </trkpt>
      <trkpt lat="43.36473" lon="-1.5229">
        <ele>130</ele>
        <time>2026-03-06T20:47:32.000Z</time>
      </trkpt>
      <trkpt lat="43.36446" lon="-1.52304">
        <ele>130</ele>
        <time>2026-03-06T20:47:37.000Z</time>
      </trkpt>
      <trkpt lat="43.36417" lon="-1.52323">
        <ele>131</ele>
        <time>2026-03-06T20:47:43.000Z</time>
      </trkpt>
      <trkpt lat="43.3638" lon="-1.52351">
        <ele>132</ele>
        <time>2026-03-06T20:47:51.000Z</time>
      </trkpt>
      <trkpt lat="43.36356" lon="-1.52376">
        <ele>132</ele>
        <time>2026-03-06T20:47:56.000Z</time>
      </trkpt>
      <trkpt lat="43.36342" lon="-1.52397">
        <ele>132</ele>
        <time>2026-03-06T20:48:00.000Z</time>
      </trkpt>
      <trkpt lat="43.36335" lon="-1.52415">
        <ele>132</ele>
        <time>2026-03-06T20:48:02.000Z</time>
      </trkpt>
      <trkpt lat="43.36298" lon="-1.52625">
        <ele>125</ele>
        <time>2026-03-06T20:48:30.000Z</time>
      </trkpt>
      <trkpt lat="43.36299" lon="-1.52656">
        <ele>123</ele>
        <time>2026-03-06T20:48:34.000Z</time>
      </trkpt>
      <trkpt lat="43.36305" lon="-1.5269">
        <ele>120</ele>
        <time>2026-03-06T20:48:39.000Z</time>
      </trkpt>
      <trkpt lat="43.36322" lon="-1.52743">
        <ele>118</ele>
        <time>2026-03-06T20:48:46.000Z</time>
      </trkpt>
      <trkpt lat="43.36341" lon="-1.52783">
        <ele>117</ele>
        <time>2026-03-06T20:48:52.000Z</time>
      </trkpt>
      <trkpt lat="43.3639" lon="-1.52871">
        <ele>114</ele>
        <time>2026-03-06T20:49:07.000Z</time>
      </trkpt>
      <trkpt lat="43.36402" lon="-1.52897">
        <ele>114</ele>
        <time>2026-03-06T20:49:11.000Z</time>
      </trkpt>
      <trkpt lat="43.3641" lon="-1.52925">
        <ele>115</ele>
        <time>2026-03-06T20:49:15.000Z</time>
      </trkpt>
      <trkpt lat="43.36424" lon="-1.53">
        <ele>110</ele>
        <time>2026-03-06T20:49:25.000Z</time>
      </trkpt>
      <trkpt lat="43.36463" lon="-1.53252">
        <ele>108</ele>
        <time>2026-03-06T20:49:58.000Z</time>
      </trkpt>
      <trkpt lat="43.36496" lon="-1.53439">
        <ele>104</ele>
        <time>2026-03-06T20:50:23.000Z</time>
      </trkpt>
      <trkpt lat="43.36507" lon="-1.53566">
        <ele>97</ele>
        <time>2026-03-06T20:50:39.000Z</time>
      </trkpt>
      <trkpt lat="43.36504" lon="-1.53627">
        <ele>97</ele>
        <time>2026-03-06T20:50:47.000Z</time>
      </trkpt>
      <trkpt lat="43.36486" lon="-1.53691">
        <ele>98</ele>
        <time>2026-03-06T20:50:56.000Z</time>
      </trkpt>
      <trkpt lat="43.36458" lon="-1.5377">
        <ele>99</ele>
        <time>2026-03-06T20:51:08.000Z</time>
      </trkpt>
      <trkpt lat="43.36453" lon="-1.53796">
        <ele>99</ele>
        <time>2026-03-06T20:51:11.000Z</time>
      </trkpt>
      <trkpt lat="43.36451" lon="-1.53875">
        <ele>99</ele>
        <time>2026-03-06T20:51:21.000Z</time>
      </trkpt>
      <trkpt lat="43.3644" lon="-1.53976">
        <ele>96</ele>
        <time>2026-03-06T20:51:34.000Z</time>
      </trkpt>
      <trkpt lat="43.36438" lon="-1.54039">
        <ele>95</ele>
        <time>2026-03-06T20:51:43.000Z</time>
      </trkpt>
      <trkpt lat="43.36416" lon="-1.54232">
        <ele>99</ele>
        <time>2026-03-06T20:52:08.000Z</time>
      </trkpt>
      <trkpt lat="43.36416" lon="-1.54258">
        <ele>100</ele>
        <time>2026-03-06T20:52:11.000Z</time>
      </trkpt>
      <trkpt lat="43.36422" lon="-1.54277">
        <ele>101</ele>
        <time>2026-03-06T20:52:14.000Z</time>
      </trkpt>
      <trkpt lat="43.36434" lon="-1.54296">
        <ele>100</ele>
        <time>2026-03-06T20:52:17.000Z</time>
      </trkpt>
      <trkpt lat="43.3645" lon="-1.54307">
        <ele>99</ele>
        <time>2026-03-06T20:52:20.000Z</time>
      </trkpt>
      <trkpt lat="43.36468" lon="-1.54315">
        <ele>97</ele>
        <time>2026-03-06T20:52:24.000Z</time>
      </trkpt>
      <trkpt lat="43.36492" lon="-1.54318">
        <ele>95</ele>
        <time>2026-03-06T20:52:28.000Z</time>
      </trkpt>
      <trkpt lat="43.36522" lon="-1.54318">
        <ele>91</ele>
        <time>2026-03-06T20:52:33.000Z</time>
      </trkpt>
      <trkpt lat="43.36539" lon="-1.54346">
        <ele>90</ele>
        <time>2026-03-06T20:52:38.000Z</time>
      </trkpt>
      <trkpt lat="43.36529" lon="-1.54476">
        <ele>90</ele>
        <time>2026-03-06T20:52:55.000Z</time>
      </trkpt>
      <trkpt lat="43.36384" lon="-1.54515">
        <ele>85</ele>
        <time>2026-03-06T20:53:21.000Z</time>
      </trkpt>
      <trkpt lat="43.3637" lon="-1.54515">
        <ele>84</ele>
        <time>2026-03-06T20:53:24.000Z</time>
      </trkpt>
      <trkpt lat="43.36347" lon="-1.54511">
        <ele>83</ele>
        <time>2026-03-06T20:53:28.000Z</time>
      </trkpt>
      <trkpt lat="43.36338" lon="-1.54516">
        <ele>82</ele>
        <time>2026-03-06T20:53:30.000Z</time>
      </trkpt>
      <trkpt lat="43.3632" lon="-1.54556">
        <ele>76</ele>
        <time>2026-03-06T20:53:36.000Z</time>
      </trkpt>
      <trkpt lat="43.36304" lon="-1.54576">
        <ele>72</ele>
        <time>2026-03-06T20:53:40.000Z</time>
      </trkpt>
      <trkpt lat="43.3629" lon="-1.54587">
        <ele>70</ele>
        <time>2026-03-06T20:53:42.000Z</time>
      </trkpt>
      <trkpt lat="43.36274" lon="-1.54596">
        <ele>69</ele>
        <time>2026-03-06T20:53:46.000Z</time>
      </trkpt>
      <trkpt lat="43.36233" lon="-1.54606">
        <ele>67</ele>
        <time>2026-03-06T20:53:53.000Z</time>
      </trkpt>
      <trkpt lat="43.36087" lon="-1.54663">
        <ele>59</ele>
        <time>2026-03-06T20:54:20.000Z</time>
      </trkpt>
      <trkpt lat="43.36068" lon="-1.54671">
        <ele>58</ele>
        <time>2026-03-06T20:54:23.000Z</time>
      </trkpt>
      <trkpt lat="43.36026" lon="-1.54699">
        <ele>55</ele>
        <time>2026-03-06T20:54:32.000Z</time>
      </trkpt>
      <trkpt lat="43.3601" lon="-1.54708">
        <ele>53</ele>
        <time>2026-03-06T20:54:35.000Z</time>
      </trkpt>
      <trkpt lat="43.35883" lon="-1.5476">
        <ele>39</ele>
        <time>2026-03-06T20:54:58.000Z</time>
      </trkpt>
      <trkpt lat="43.35856" lon="-1.54778">
        <ele>36</ele>
        <time>2026-03-06T20:55:04.000Z</time>
      </trkpt>
      <trkpt lat="43.35848" lon="-1.54788">
        <ele>35</ele>
        <time>2026-03-06T20:55:06.000Z</time>
      </trkpt>
      <trkpt lat="43.35784" lon="-1.54901">
        <ele>30</ele>
        <time>2026-03-06T20:55:24.000Z</time>
      </trkpt>
      <trkpt lat="43.35753" lon="-1.54939">
        <ele>27</ele>
        <time>2026-03-06T20:55:32.000Z</time>
      </trkpt>
      <trkpt lat="43.35639" lon="-1.55061">
        <ele>22</ele>
        <time>2026-03-06T20:55:57.000Z</time>
      </trkpt>
      <trkpt lat="43.35676" lon="-1.55133">
        <ele>21</ele>
        <time>2026-03-06T20:56:09.000Z</time>
      </trkpt>
      <trkpt lat="43.35705" lon="-1.55184">
        <ele>22</ele>
        <time>2026-03-06T20:56:17.000Z</time>
      </trkpt>
      <trkpt lat="43.3574" lon="-1.55234">
        <ele>22</ele>
        <time>2026-03-06T20:56:26.000Z</time>
      </trkpt>
      <trkpt lat="43.35757" lon="-1.55264">
        <ele>22</ele>
        <time>2026-03-06T20:56:31.000Z</time>
      </trkpt>
      <trkpt lat="43.35763" lon="-1.55276">
        <ele>22</ele>
        <time>2026-03-06T20:56:33.000Z</time>
      </trkpt>
      <trkpt lat="43.35769" lon="-1.55301">
        <ele>22</ele>
        <time>2026-03-06T20:56:36.000Z</time>
      </trkpt>
      <trkpt lat="43.35798" lon="-1.55504">
        <ele>25</ele>
        <time>2026-03-06T20:57:03.000Z</time>
      </trkpt>
      <trkpt lat="43.35797" lon="-1.55542">
        <ele>25</ele>
        <time>2026-03-06T20:57:08.000Z</time>
      </trkpt>
      <trkpt lat="43.35793" lon="-1.55578">
        <ele>24</ele>
        <time>2026-03-06T20:57:13.000Z</time>
      </trkpt>
      <trkpt lat="43.35784" lon="-1.55615">
        <ele>23</ele>
        <time>2026-03-06T20:57:18.000Z</time>
      </trkpt>
      <trkpt lat="43.35781" lon="-1.55641">
        <ele>23</ele>
        <time>2026-03-06T20:57:21.000Z</time>
      </trkpt>
      <trkpt lat="43.3578" lon="-1.55666">
        <ele>23</ele>
        <time>2026-03-06T20:57:24.000Z</time>
      </trkpt>
      <trkpt lat="43.35787" lon="-1.55898">
        <ele>20</ele>
        <time>2026-03-06T20:57:54.000Z</time>
      </trkpt>
      <trkpt lat="43.35785" lon="-1.55918">
        <ele>18</ele>
        <time>2026-03-06T20:57:57.000Z</time>
      </trkpt>
      <trkpt lat="43.35781" lon="-1.55938">
        <ele>18</ele>
        <time>2026-03-06T20:58:00.000Z</time>
      </trkpt>
      <trkpt lat="43.35774" lon="-1.55958">
        <ele>18</ele>
        <time>2026-03-06T20:58:03.000Z</time>
      </trkpt>
      <trkpt lat="43.35766" lon="-1.55989">
        <ele>18</ele>
        <time>2026-03-06T20:58:07.000Z</time>
      </trkpt>
      <trkpt lat="43.35767" lon="-1.55997">
        <ele>18</ele>
        <time>2026-03-06T20:58:08.000Z</time>
      </trkpt>
      <trkpt lat="43.35764" lon="-1.56008">
        <ele>19</ele>
        <time>2026-03-06T20:58:09.000Z</time>
      </trkpt>
      <trkpt lat="43.3576" lon="-1.56015">
        <ele>19</ele>
        <time>2026-03-06T20:58:11.000Z</time>
      </trkpt>
      <trkpt lat="43.35753" lon="-1.56017">
        <ele>19</ele>
        <time>2026-03-06T20:58:12.000Z</time>
      </trkpt>
      <trkpt lat="43.35747" lon="-1.56016">
        <ele>19</ele>
        <time>2026-03-06T20:58:13.000Z</time>
      </trkpt>
      <trkpt lat="43.3573" lon="-1.56032">
        <ele>19</ele>
        <time>2026-03-06T20:58:17.000Z</time>
      </trkpt>
      <trkpt lat="43.35721" lon="-1.56041">
        <ele>19</ele>
        <time>2026-03-06T20:58:19.000Z</time>
      </trkpt>
      <trkpt lat="43.35652" lon="-1.56086">
        <ele>18</ele>
        <time>2026-03-06T20:58:32.000Z</time>
      </trkpt>
      <trkpt lat="43.35648" lon="-1.5608">
        <ele>17</ele>
        <time>2026-03-06T20:58:33.000Z</time>
      </trkpt>
      <trkpt lat="43.35642" lon="-1.56085">
        <ele>17</ele>
        <time>2026-03-06T20:58:34.000Z</time>
      </trkpt>
      <trkpt lat="43.35635" lon="-1.56094">
        <ele>18</ele>
        <time>2026-03-06T20:58:36.000Z</time>
      </trkpt>
      <trkpt lat="43.35618" lon="-1.56125">
        <ele>18</ele>
        <time>2026-03-06T20:58:41.000Z</time>
      </trkpt>
      <trkpt lat="43.35614" lon="-1.56149">
        <ele>19</ele>
        <time>2026-03-06T20:58:44.000Z</time>
      </trkpt>
      <trkpt lat="43.3561" lon="-1.56201">
        <ele>19</ele>
        <time>2026-03-06T20:58:51.000Z</time>
      </trkpt>
      <trkpt lat="43.3561" lon="-1.56265">
        <ele>18</ele>
        <time>2026-03-06T20:58:59.000Z</time>
      </trkpt>
      <trkpt lat="43.35616" lon="-1.56498">
        <ele>18</ele>
        <time>2026-03-06T20:59:30.000Z</time>
      </trkpt>
      <trkpt lat="43.35622" lon="-1.56509">
        <ele>19</ele>
        <time>2026-03-06T20:59:31.000Z</time>
      </trkpt>
      <trkpt lat="43.35622" lon="-1.56558">
        <ele>19</ele>
        <time>2026-03-06T20:59:38.000Z</time>
      </trkpt>
      <trkpt lat="43.35624" lon="-1.56587">
        <ele>19</ele>
        <time>2026-03-06T20:59:41.000Z</time>
      </trkpt>
      <trkpt lat="43.35627" lon="-1.56588">
        <ele>19</ele>
        <time>2026-03-06T20:59:42.000Z</time>
      </trkpt>
      <trkpt lat="43.35633" lon="-1.56592">
        <ele>19</ele>
        <time>2026-03-06T20:59:43.000Z</time>
      </trkpt>
      <trkpt lat="43.35635" lon="-1.56599">
        <ele>19</ele>
        <time>2026-03-06T20:59:44.000Z</time>
      </trkpt>
      <trkpt lat="43.35632" lon="-1.56611">
        <ele>19</ele>
        <time>2026-03-06T20:59:46.000Z</time>
      </trkpt>
      <trkpt lat="43.35624" lon="-1.56615">
        <ele>19</ele>
        <time>2026-03-06T20:59:47.000Z</time>
      </trkpt>
      <trkpt lat="43.35625" lon="-1.56642">
        <ele>19</ele>
        <time>2026-03-06T20:59:51.000Z</time>
      </trkpt>
      <trkpt lat="43.35617" lon="-1.56692">
        <ele>19</ele>
        <time>2026-03-06T20:59:57.000Z</time>
      </trkpt>
      <trkpt lat="43.35608" lon="-1.56729">
        <ele>18</ele>
        <time>2026-03-06T21:00:02.000Z</time>
      </trkpt>
      <trkpt lat="43.35589" lon="-1.56787">
        <ele>17</ele>
        <time>2026-03-06T21:00:11.000Z</time>
      </trkpt>
      <trkpt lat="43.35585" lon="-1.56813">
        <ele>17</ele>
        <time>2026-03-06T21:00:14.000Z</time>
      </trkpt>
      <trkpt lat="43.35586" lon="-1.56839">
        <ele>17</ele>
        <time>2026-03-06T21:00:18.000Z</time>
      </trkpt>
      <trkpt lat="43.35588" lon="-1.56851">
        <ele>17</ele>
        <time>2026-03-06T21:00:19.000Z</time>
      </trkpt>
      <trkpt lat="43.35597" lon="-1.56872">
        <ele>17</ele>
        <time>2026-03-06T21:00:22.000Z</time>
      </trkpt>
      <trkpt lat="43.35625" lon="-1.56922">
        <ele>17</ele>
        <time>2026-03-06T21:00:30.000Z</time>
      </trkpt>
      <trkpt lat="43.35723" lon="-1.57132">
        <ele>15</ele>
        <time>2026-03-06T21:01:03.000Z</time>
      </trkpt>
      <trkpt lat="43.35733" lon="-1.5716">
        <ele>15</ele>
        <time>2026-03-06T21:01:07.000Z</time>
      </trkpt>
      <trkpt lat="43.3574" lon="-1.57189">
        <ele>15</ele>
        <time>2026-03-06T21:01:11.000Z</time>
      </trkpt>
      <trkpt lat="43.35745" lon="-1.57225">
        <ele>14</ele>
        <time>2026-03-06T21:01:15.000Z</time>
      </trkpt>
      <trkpt lat="43.35763" lon="-1.57418">
        <ele>13</ele>
        <time>2026-03-06T21:01:41.000Z</time>
      </trkpt>
      <trkpt lat="43.35767" lon="-1.57433">
        <ele>13</ele>
        <time>2026-03-06T21:01:43.000Z</time>
      </trkpt>
      <trkpt lat="43.35781" lon="-1.57455">
        <ele>13</ele>
        <time>2026-03-06T21:01:46.000Z</time>
      </trkpt>
      <trkpt lat="43.35786" lon="-1.57459">
        <ele>13</ele>
        <time>2026-03-06T21:01:47.000Z</time>
      </trkpt>
      <trkpt lat="43.35788" lon="-1.57464">
        <ele>13</ele>
        <time>2026-03-06T21:01:48.000Z</time>
      </trkpt>
      <trkpt lat="43.35789" lon="-1.5747">
        <ele>13</ele>
        <time>2026-03-06T21:01:49.000Z</time>
      </trkpt>
      <trkpt lat="43.35784" lon="-1.57479">
        <ele>13</ele>
        <time>2026-03-06T21:01:50.000Z</time>
      </trkpt>
      <trkpt lat="43.35781" lon="-1.57496">
        <ele>13</ele>
        <time>2026-03-06T21:01:53.000Z</time>
      </trkpt>
      <trkpt lat="43.35779" lon="-1.57526">
        <ele>13</ele>
        <time>2026-03-06T21:01:57.000Z</time>
      </trkpt>
      <trkpt lat="43.35779" lon="-1.57552">
        <ele>13</ele>
        <time>2026-03-06T21:02:00.000Z</time>
      </trkpt>
      <trkpt lat="43.35782" lon="-1.57586">
        <ele>13</ele>
        <time>2026-03-06T21:02:04.000Z</time>
      </trkpt>
      <trkpt lat="43.35807" lon="-1.5772">
        <ele>12</ele>
        <time>2026-03-06T21:02:22.000Z</time>
      </trkpt>
      <trkpt lat="43.35838" lon="-1.57869">
        <ele>11</ele>
        <time>2026-03-06T21:02:42.000Z</time>
      </trkpt>
      <trkpt lat="43.35852" lon="-1.57913">
        <ele>12</ele>
        <time>2026-03-06T21:02:49.000Z</time>
      </trkpt>
      <trkpt lat="43.35882" lon="-1.57972">
        <ele>11</ele>
        <time>2026-03-06T21:02:58.000Z</time>
      </trkpt>
      <trkpt lat="43.35894" lon="-1.57993">
        <ele>11</ele>
        <time>2026-03-06T21:03:01.000Z</time>
      </trkpt>
      <trkpt lat="43.36003" lon="-1.58148">
        <ele>11</ele>
        <time>2026-03-06T21:03:29.000Z</time>
      </trkpt>
      <trkpt lat="43.36109" lon="-1.58303">
        <ele>12</ele>
        <time>2026-03-06T21:03:57.000Z</time>
      </trkpt>
      <trkpt lat="43.36129" lon="-1.58341">
        <ele>12</ele>
        <time>2026-03-06T21:04:03.000Z</time>
      </trkpt>
      <trkpt lat="43.36139" lon="-1.58363">
        <ele>12</ele>
        <time>2026-03-06T21:04:06.000Z</time>
      </trkpt>
      <trkpt lat="43.36164" lon="-1.58429">
        <ele>12</ele>
        <time>2026-03-06T21:04:16.000Z</time>
      </trkpt>
      <trkpt lat="43.36257" lon="-1.58723">
        <ele>14</ele>
        <time>2026-03-06T21:04:57.000Z</time>
      </trkpt>
      <trkpt lat="43.3628" lon="-1.58766">
        <ele>18</ele>
        <time>2026-03-06T21:05:04.000Z</time>
      </trkpt>
      <trkpt lat="43.36308" lon="-1.58801">
        <ele>19</ele>
        <time>2026-03-06T21:05:11.000Z</time>
      </trkpt>
      <trkpt lat="43.36402" lon="-1.58885">
        <ele>17</ele>
        <time>2026-03-06T21:05:31.000Z</time>
      </trkpt>
      <trkpt lat="43.36427" lon="-1.58913">
        <ele>13</ele>
        <time>2026-03-06T21:05:37.000Z</time>
      </trkpt>
      <trkpt lat="43.36444" lon="-1.58941">
        <ele>12</ele>
        <time>2026-03-06T21:05:41.000Z</time>
      </trkpt>
      <trkpt lat="43.3646" lon="-1.58976">
        <ele>11</ele>
        <time>2026-03-06T21:05:47.000Z</time>
      </trkpt>
      <trkpt lat="43.36482" lon="-1.59044">
        <ele>9</ele>
        <time>2026-03-06T21:05:56.000Z</time>
      </trkpt>
      <trkpt lat="43.36581" lon="-1.59376">
        <ele>9</ele>
        <time>2026-03-06T21:06:43.000Z</time>
      </trkpt>
      <trkpt lat="43.36589" lon="-1.5943">
        <ele>9</ele>
        <time>2026-03-06T21:06:50.000Z</time>
      </trkpt>
      <trkpt lat="43.36592" lon="-1.59482">
        <ele>9</ele>
        <time>2026-03-06T21:06:57.000Z</time>
      </trkpt>
      <trkpt lat="43.36588" lon="-1.59546">
        <ele>11</ele>
        <time>2026-03-06T21:07:05.000Z</time>
      </trkpt>
      <trkpt lat="43.36581" lon="-1.5964">
        <ele>16</ele>
        <time>2026-03-06T21:07:17.000Z</time>
      </trkpt>
      <trkpt lat="43.36567" lon="-1.59809">
        <ele>18</ele>
        <time>2026-03-06T21:07:39.000Z</time>
      </trkpt>
      <trkpt lat="43.36562" lon="-1.59843">
        <ele>18</ele>
        <time>2026-03-06T21:07:44.000Z</time>
      </trkpt>
      <trkpt lat="43.36549" lon="-1.59873">
        <ele>17</ele>
        <time>2026-03-06T21:07:48.000Z</time>
      </trkpt>
      <trkpt lat="43.36533" lon="-1.59897">
        <ele>16</ele>
        <time>2026-03-06T21:07:52.000Z</time>
      </trkpt>
      <trkpt lat="43.36476" lon="-1.5994">
        <ele>14</ele>
        <time>2026-03-06T21:08:04.000Z</time>
      </trkpt>
      <trkpt lat="43.36447" lon="-1.59965">
        <ele>14</ele>
        <time>2026-03-06T21:08:10.000Z</time>
      </trkpt>
      <trkpt lat="43.36418" lon="-1.59996">
        <ele>13</ele>
        <time>2026-03-06T21:08:17.000Z</time>
      </trkpt>
      <trkpt lat="43.36387" lon="-1.60042">
        <ele>15</ele>
        <time>2026-03-06T21:08:25.000Z</time>
      </trkpt>
      <trkpt lat="43.36371" lon="-1.60073">
        <ele>15</ele>
        <time>2026-03-06T21:08:30.000Z</time>
      </trkpt>
      <trkpt lat="43.36336" lon="-1.60166">
        <ele>16</ele>
        <time>2026-03-06T21:08:43.000Z</time>
      </trkpt>
      <trkpt lat="43.36316" lon="-1.60201">
        <ele>20</ele>
        <time>2026-03-06T21:08:49.000Z</time>
      </trkpt>
      <trkpt lat="43.36299" lon="-1.60225">
        <ele>21</ele>
        <time>2026-03-06T21:08:53.000Z</time>
      </trkpt>
      <trkpt lat="43.36264" lon="-1.60257">
        <ele>19</ele>
        <time>2026-03-06T21:09:01.000Z</time>
      </trkpt>
      <trkpt lat="43.36211" lon="-1.60302">
        <ele>16</ele>
        <time>2026-03-06T21:09:12.000Z</time>
      </trkpt>
      <trkpt lat="43.36173" lon="-1.60338">
        <ele>13</ele>
        <time>2026-03-06T21:09:20.000Z</time>
      </trkpt>
      <trkpt lat="43.36153" lon="-1.60362">
        <ele>14</ele>
        <time>2026-03-06T21:09:25.000Z</time>
      </trkpt>
      <trkpt lat="43.36138" lon="-1.60384">
        <ele>15</ele>
        <time>2026-03-06T21:09:29.000Z</time>
      </trkpt>
      <trkpt lat="43.36126" lon="-1.60409">
        <ele>15</ele>
        <time>2026-03-06T21:09:33.000Z</time>
      </trkpt>
      <trkpt lat="43.36116" lon="-1.60439">
        <ele>16</ele>
        <time>2026-03-06T21:09:37.000Z</time>
      </trkpt>
      <trkpt lat="43.36109" lon="-1.60462">
        <ele>16</ele>
        <time>2026-03-06T21:09:40.000Z</time>
      </trkpt>
      <trkpt lat="43.36103" lon="-1.60494">
        <ele>17</ele>
        <time>2026-03-06T21:09:44.000Z</time>
      </trkpt>
      <trkpt lat="43.36102" lon="-1.60518">
        <ele>17</ele>
        <time>2026-03-06T21:09:47.000Z</time>
      </trkpt>
      <trkpt lat="43.36102" lon="-1.60551">
        <ele>17</ele>
        <time>2026-03-06T21:09:52.000Z</time>
      </trkpt>
      <trkpt lat="43.36104" lon="-1.60585">
        <ele>18</ele>
        <time>2026-03-06T21:09:56.000Z</time>
      </trkpt>
      <trkpt lat="43.36118" lon="-1.60724">
        <ele>18</ele>
        <time>2026-03-06T21:10:14.000Z</time>
      </trkpt>
      <trkpt lat="43.36119" lon="-1.6075">
        <ele>18</ele>
        <time>2026-03-06T21:10:18.000Z</time>
      </trkpt>
      <trkpt lat="43.36113" lon="-1.60838">
        <ele>16</ele>
        <time>2026-03-06T21:10:29.000Z</time>
      </trkpt>
      <trkpt lat="43.36105" lon="-1.61018">
        <ele>17</ele>
        <time>2026-03-06T21:10:52.000Z</time>
      </trkpt>
      <trkpt lat="43.36101" lon="-1.61078">
        <ele>15</ele>
        <time>2026-03-06T21:11:00.000Z</time>
      </trkpt>
      <trkpt lat="43.36091" lon="-1.61139">
        <ele>13</ele>
        <time>2026-03-06T21:11:08.000Z</time>
      </trkpt>
      <trkpt lat="43.36075" lon="-1.61188">
        <ele>12</ele>
        <time>2026-03-06T21:11:15.000Z</time>
      </trkpt>
      <trkpt lat="43.36051" lon="-1.61238">
        <ele>11</ele>
        <time>2026-03-06T21:11:23.000Z</time>
      </trkpt>
      <trkpt lat="43.36033" lon="-1.61268">
        <ele>11</ele>
        <time>2026-03-06T21:11:28.000Z</time>
      </trkpt>
      <trkpt lat="43.35934" lon="-1.61396">
        <ele>16</ele>
        <time>2026-03-06T21:11:52.000Z</time>
      </trkpt>
      <trkpt lat="43.35913" lon="-1.61419">
        <ele>16</ele>
        <time>2026-03-06T21:11:57.000Z</time>
      </trkpt>
      <trkpt lat="43.35815" lon="-1.61503">
        <ele>12</ele>
        <time>2026-03-06T21:12:17.000Z</time>
      </trkpt>
      <trkpt lat="43.35787" lon="-1.61535">
        <ele>14</ele>
        <time>2026-03-06T21:12:24.000Z</time>
      </trkpt>
      <trkpt lat="43.35515" lon="-1.61963">
        <ele>18</ele>
        <time>2026-03-06T21:13:37.000Z</time>
      </trkpt>
      <trkpt lat="43.35486" lon="-1.62001">
        <ele>18</ele>
        <time>2026-03-06T21:13:45.000Z</time>
      </trkpt>
      <trkpt lat="43.35432" lon="-1.62045">
        <ele>21</ele>
        <time>2026-03-06T21:13:56.000Z</time>
      </trkpt>
      <trkpt lat="43.35407" lon="-1.6206">
        <ele>21</ele>
        <time>2026-03-06T21:14:01.000Z</time>
      </trkpt>
      <trkpt lat="43.3524" lon="-1.62126">
        <ele>14</ele>
        <time>2026-03-06T21:14:32.000Z</time>
      </trkpt>
      <trkpt lat="43.35214" lon="-1.62143">
        <ele>12</ele>
        <time>2026-03-06T21:14:37.000Z</time>
      </trkpt>
      <trkpt lat="43.35201" lon="-1.62157">
        <ele>12</ele>
        <time>2026-03-06T21:14:40.000Z</time>
      </trkpt>
      <trkpt lat="43.35181" lon="-1.62185">
        <ele>11</ele>
        <time>2026-03-06T21:14:45.000Z</time>
      </trkpt>
      <trkpt lat="43.35118" lon="-1.62308">
        <ele>11</ele>
        <time>2026-03-06T21:15:04.000Z</time>
      </trkpt>
      <trkpt lat="43.35109" lon="-1.62334">
        <ele>10</ele>
        <time>2026-03-06T21:15:08.000Z</time>
      </trkpt>
      <trkpt lat="43.35103" lon="-1.62402">
        <ele>11</ele>
        <time>2026-03-06T21:15:17.000Z</time>
      </trkpt>
      <trkpt lat="43.35103" lon="-1.62461">
        <ele>10</ele>
        <time>2026-03-06T21:15:24.000Z</time>
      </trkpt>
      <trkpt lat="43.35108" lon="-1.62493">
        <ele>11</ele>
        <time>2026-03-06T21:15:29.000Z</time>
      </trkpt>
      <trkpt lat="43.35118" lon="-1.62528">
        <ele>12</ele>
        <time>2026-03-06T21:15:33.000Z</time>
      </trkpt>
      <trkpt lat="43.35192" lon="-1.6272">
        <ele>8</ele>
        <time>2026-03-06T21:16:02.000Z</time>
      </trkpt>
      <trkpt lat="43.35207" lon="-1.62759">
        <ele>8</ele>
        <time>2026-03-06T21:16:07.000Z</time>
      </trkpt>
      <trkpt lat="43.35255" lon="-1.629">
        <ele>6</ele>
        <time>2026-03-06T21:16:27.000Z</time>
      </trkpt>
      <trkpt lat="43.35268" lon="-1.62932">
        <ele>6</ele>
        <time>2026-03-06T21:16:32.000Z</time>
      </trkpt>
      <trkpt lat="43.35289" lon="-1.62974">
        <ele>6</ele>
        <time>2026-03-06T21:16:39.000Z</time>
      </trkpt>
      <trkpt lat="43.35306" lon="-1.62998">
        <ele>6</ele>
        <time>2026-03-06T21:16:43.000Z</time>
      </trkpt>
      <trkpt lat="43.3535" lon="-1.63044">
        <ele>7</ele>
        <time>2026-03-06T21:16:53.000Z</time>
      </trkpt>
      <trkpt lat="43.35386" lon="-1.63073">
        <ele>7</ele>
        <time>2026-03-06T21:17:00.000Z</time>
      </trkpt>
      <trkpt lat="43.35403" lon="-1.63082">
        <ele>7</ele>
        <time>2026-03-06T21:17:04.000Z</time>
      </trkpt>
      <trkpt lat="43.3544" lon="-1.63097">
        <ele>6</ele>
        <time>2026-03-06T21:17:10.000Z</time>
      </trkpt>
      <trkpt lat="43.35614" lon="-1.63148">
        <ele>5</ele>
        <time>2026-03-06T21:17:42.000Z</time>
      </trkpt>
      <trkpt lat="43.35639" lon="-1.63145">
        <ele>6</ele>
        <time>2026-03-06T21:17:47.000Z</time>
      </trkpt>
      <trkpt lat="43.35647" lon="-1.63139">
        <ele>6</ele>
        <time>2026-03-06T21:17:48.000Z</time>
      </trkpt>
      <trkpt lat="43.35653" lon="-1.63131">
        <ele>7</ele>
        <time>2026-03-06T21:17:50.000Z</time>
      </trkpt>
      <trkpt lat="43.35657" lon="-1.63129">
        <ele>7</ele>
        <time>2026-03-06T21:17:50.000Z</time>
      </trkpt>
      <trkpt lat="43.35664" lon="-1.63131">
        <ele>7</ele>
        <time>2026-03-06T21:17:52.000Z</time>
      </trkpt>
      <trkpt lat="43.3567" lon="-1.63137">
        <ele>7</ele>
        <time>2026-03-06T21:17:53.000Z</time>
      </trkpt>
      <trkpt lat="43.35673" lon="-1.63149">
        <ele>7</ele>
        <time>2026-03-06T21:17:55.000Z</time>
      </trkpt>
      <trkpt lat="43.35676" lon="-1.63154">
        <ele>7</ele>
        <time>2026-03-06T21:17:56.000Z</time>
      </trkpt>
      <trkpt lat="43.35699" lon="-1.63173">
        <ele>6</ele>
        <time>2026-03-06T21:18:00.000Z</time>
      </trkpt>
      <trkpt lat="43.35728" lon="-1.63183">
        <ele>7</ele>
        <time>2026-03-06T21:18:06.000Z</time>
      </trkpt>
      <trkpt lat="43.3575" lon="-1.63192">
        <ele>7</ele>
        <time>2026-03-06T21:18:10.000Z</time>
      </trkpt>
      <trkpt lat="43.35789" lon="-1.63219">
        <ele>9</ele>
        <time>2026-03-06T21:18:17.000Z</time>
      </trkpt>
      <trkpt lat="43.35859" lon="-1.6328">
        <ele>9</ele>
        <time>2026-03-06T21:18:32.000Z</time>
      </trkpt>
      <trkpt lat="43.35921" lon="-1.63341">
        <ele>8</ele>
        <time>2026-03-06T21:18:46.000Z</time>
      </trkpt>
      <trkpt lat="43.35935" lon="-1.63358">
        <ele>9</ele>
        <time>2026-03-06T21:18:49.000Z</time>
      </trkpt>
      <trkpt lat="43.35984" lon="-1.63434">
        <ele>8</ele>
        <time>2026-03-06T21:19:02.000Z</time>
      </trkpt>
      <trkpt lat="43.35995" lon="-1.63453">
        <ele>8</ele>
        <time>2026-03-06T21:19:05.000Z</time>
      </trkpt>
      <trkpt lat="43.36014" lon="-1.63501">
        <ele>6</ele>
        <time>2026-03-06T21:19:12.000Z</time>
      </trkpt>
      <trkpt lat="43.36029" lon="-1.63531">
        <ele>6</ele>
        <time>2026-03-06T21:19:17.000Z</time>
      </trkpt>
      <trkpt lat="43.36039" lon="-1.63549">
        <ele>6</ele>
        <time>2026-03-06T21:19:20.000Z</time>
      </trkpt>
      <trkpt lat="43.36061" lon="-1.63577">
        <ele>5</ele>
        <time>2026-03-06T21:19:25.000Z</time>
      </trkpt>
      <trkpt lat="43.36075" lon="-1.63589">
        <ele>5</ele>
        <time>2026-03-06T21:19:28.000Z</time>
      </trkpt>
      <trkpt lat="43.36097" lon="-1.63603">
        <ele>5</ele>
        <time>2026-03-06T21:19:33.000Z</time>
      </trkpt>
      <trkpt lat="43.36167" lon="-1.63631">
        <ele>6</ele>
        <time>2026-03-06T21:19:46.000Z</time>
      </trkpt>
      <trkpt lat="43.36255" lon="-1.63666">
        <ele>6</ele>
        <time>2026-03-06T21:20:02.000Z</time>
      </trkpt>
      <trkpt lat="43.36277" lon="-1.63671">
        <ele>6</ele>
        <time>2026-03-06T21:20:06.000Z</time>
      </trkpt>
      <trkpt lat="43.36308" lon="-1.63673">
        <ele>7</ele>
        <time>2026-03-06T21:20:11.000Z</time>
      </trkpt>
      <trkpt lat="43.36349" lon="-1.63669">
        <ele>7</ele>
        <time>2026-03-06T21:20:19.000Z</time>
      </trkpt>
      <trkpt lat="43.36595" lon="-1.63589">
        <ele>5</ele>
        <time>2026-03-06T21:21:04.000Z</time>
      </trkpt>
      <trkpt lat="43.36638" lon="-1.63578">
        <ele>7</ele>
        <time>2026-03-06T21:21:12.000Z</time>
      </trkpt>
      <trkpt lat="43.36675" lon="-1.63576">
        <ele>8</ele>
        <time>2026-03-06T21:21:18.000Z</time>
      </trkpt>
      <trkpt lat="43.36709" lon="-1.63582">
        <ele>8</ele>
        <time>2026-03-06T21:21:24.000Z</time>
      </trkpt>
      <trkpt lat="43.36753" lon="-1.63597">
        <ele>7</ele>
        <time>2026-03-06T21:21:32.000Z</time>
      </trkpt>
      <trkpt lat="43.37067" lon="-1.63794">
        <ele>6</ele>
        <time>2026-03-06T21:22:34.000Z</time>
      </trkpt>
      <trkpt lat="43.37085" lon="-1.63801">
        <ele>6</ele>
        <time>2026-03-06T21:22:37.000Z</time>
      </trkpt>
      <trkpt lat="43.37111" lon="-1.63806">
        <ele>5</ele>
        <time>2026-03-06T21:22:42.000Z</time>
      </trkpt>
      <trkpt lat="43.37409" lon="-1.63788">
        <ele>4</ele>
        <time>2026-03-06T21:23:35.000Z</time>
      </trkpt>
      <trkpt lat="43.37444" lon="-1.63779">
        <ele>4</ele>
        <time>2026-03-06T21:23:41.000Z</time>
      </trkpt>
      <trkpt lat="43.37508" lon="-1.63777">
        <ele>4</ele>
        <time>2026-03-06T21:23:52.000Z</time>
      </trkpt>
      <trkpt lat="43.37526" lon="-1.63781">
        <ele>5</ele>
        <time>2026-03-06T21:23:56.000Z</time>
      </trkpt>
      <trkpt lat="43.37525" lon="-1.63752">
        <ele>5</ele>
        <time>2026-03-06T21:23:59.000Z</time>
      </trkpt>
      <trkpt lat="43.37526" lon="-1.63781">
        <ele>5</ele>
        <time>2026-03-06T21:24:03.000Z</time>
      </trkpt>
      <trkpt lat="43.37541" lon="-1.63773">
        <ele>5</ele>
        <time>2026-03-06T21:24:06.000Z</time>
      </trkpt>
      <trkpt lat="43.37607" lon="-1.63771">
        <ele>6</ele>
        <time>2026-03-06T21:24:18.000Z</time>
      </trkpt>
      <trkpt lat="43.37642" lon="-1.63776">
        <ele>6</ele>
        <time>2026-03-06T21:24:24.000Z</time>
      </trkpt>
      <trkpt lat="43.37738" lon="-1.63772">
        <ele>8</ele>
        <time>2026-03-06T21:24:41.000Z</time>
      </trkpt>
      <trkpt lat="43.37759" lon="-1.63774">
        <ele>8</ele>
        <time>2026-03-06T21:24:45.000Z</time>
      </trkpt>
      <trkpt lat="43.37776" lon="-1.63786">
        <ele>8</ele>
        <time>2026-03-06T21:24:48.000Z</time>
      </trkpt>
      <trkpt lat="43.37906" lon="-1.63917">
        <ele>6</ele>
        <time>2026-03-06T21:25:17.000Z</time>
      </trkpt>
      <trkpt lat="43.38056" lon="-1.64058">
        <ele>9</ele>
        <time>2026-03-06T21:25:49.000Z</time>
      </trkpt>
      <trkpt lat="43.3812" lon="-1.64193">
        <ele>6</ele>
        <time>2026-03-06T21:26:10.000Z</time>
      </trkpt>
      <trkpt lat="43.38155" lon="-1.6423">
        <ele>6</ele>
        <time>2026-03-06T21:26:18.000Z</time>
      </trkpt>
      <trkpt lat="43.38212" lon="-1.64283">
        <ele>5</ele>
        <time>2026-03-06T21:26:30.000Z</time>
      </trkpt>
      <trkpt lat="43.38232" lon="-1.64309">
        <ele>5</ele>
        <time>2026-03-06T21:26:35.000Z</time>
      </trkpt>
      <trkpt lat="43.3825" lon="-1.64341">
        <ele>5</ele>
        <time>2026-03-06T21:26:40.000Z</time>
      </trkpt>
      <trkpt lat="43.38264" lon="-1.64383">
        <ele>7</ele>
        <time>2026-03-06T21:26:46.000Z</time>
      </trkpt>
      <trkpt lat="43.38272" lon="-1.64424">
        <ele>8</ele>
        <time>2026-03-06T21:26:52.000Z</time>
      </trkpt>
      <trkpt lat="43.38277" lon="-1.64488">
        <ele>10</ele>
        <time>2026-03-06T21:27:00.000Z</time>
      </trkpt>
      <trkpt lat="43.3828" lon="-1.64595">
        <ele>8</ele>
        <time>2026-03-06T21:27:14.000Z</time>
      </trkpt>
      <trkpt lat="43.38279" lon="-1.64626">
        <ele>7</ele>
        <time>2026-03-06T21:27:18.000Z</time>
      </trkpt>
      <trkpt lat="43.38255" lon="-1.6488">
        <ele>9</ele>
        <time>2026-03-06T21:27:51.000Z</time>
      </trkpt>
      <trkpt lat="43.38252" lon="-1.64928">
        <ele>8</ele>
        <time>2026-03-06T21:27:57.000Z</time>
      </trkpt>
      <trkpt lat="43.38254" lon="-1.64945">
        <ele>8</ele>
        <time>2026-03-06T21:28:00.000Z</time>
      </trkpt>
      <trkpt lat="43.3826" lon="-1.64971">
        <ele>8</ele>
        <time>2026-03-06T21:28:03.000Z</time>
      </trkpt>
      <trkpt lat="43.38276" lon="-1.65016">
        <ele>9</ele>
        <time>2026-03-06T21:28:10.000Z</time>
      </trkpt>
      <trkpt lat="43.38343" lon="-1.652">
        <ele>12</ele>
        <time>2026-03-06T21:28:36.000Z</time>
      </trkpt>
      <trkpt lat="43.38356" lon="-1.65227">
        <ele>13</ele>
        <time>2026-03-06T21:28:40.000Z</time>
      </trkpt>
      <trkpt lat="43.38363" lon="-1.65232">
        <ele>13</ele>
        <time>2026-03-06T21:28:42.000Z</time>
      </trkpt>
      <trkpt lat="43.38379" lon="-1.65254">
        <ele>14</ele>
        <time>2026-03-06T21:28:46.000Z</time>
      </trkpt>
      <trkpt lat="43.384" lon="-1.6527">
        <ele>14</ele>
        <time>2026-03-06T21:28:50.000Z</time>
      </trkpt>
      <trkpt lat="43.38412" lon="-1.65283">
        <ele>13</ele>
        <time>2026-03-06T21:28:53.000Z</time>
      </trkpt>
      <trkpt lat="43.38412" lon="-1.65303">
        <ele>10</ele>
        <time>2026-03-06T21:28:55.000Z</time>
      </trkpt>
      <trkpt lat="43.38407" lon="-1.65318">
        <ele>8</ele>
        <time>2026-03-06T21:28:58.000Z</time>
      </trkpt>
      <trkpt lat="43.38404" lon="-1.65322">
        <ele>7</ele>
        <time>2026-03-06T21:28:58.000Z</time>
      </trkpt>
      <trkpt lat="43.38343" lon="-1.65446">
        <ele>5</ele>
        <time>2026-03-06T21:29:18.000Z</time>
      </trkpt>
      <trkpt lat="43.38341" lon="-1.65462">
        <ele>4</ele>
        <time>2026-03-06T21:29:20.000Z</time>
      </trkpt>
      <trkpt lat="43.38363" lon="-1.65495">
        <ele>4</ele>
        <time>2026-03-06T21:29:26.000Z</time>
      </trkpt>
      <trkpt lat="43.38364" lon="-1.655">
        <ele>4</ele>
        <time>2026-03-06T21:29:26.000Z</time>
      </trkpt>
      <trkpt lat="43.38362" lon="-1.65506">
        <ele>4</ele>
        <time>2026-03-06T21:29:27.000Z</time>
      </trkpt>
      <trkpt lat="43.3836" lon="-1.65509">
        <ele>4</ele>
        <time>2026-03-06T21:29:28.000Z</time>
      </trkpt>
      <trkpt lat="43.38357" lon="-1.65509">
        <ele>4</ele>
        <time>2026-03-06T21:29:28.000Z</time>
      </trkpt>
      <trkpt lat="43.38351" lon="-1.65522">
        <ele>4</ele>
        <time>2026-03-06T21:29:30.000Z</time>
      </trkpt>
      <trkpt lat="43.38252" lon="-1.65655">
        <ele>4</ele>
        <time>2026-03-06T21:29:55.000Z</time>
      </trkpt>
      <trkpt lat="43.38236" lon="-1.65679">
        <ele>4</ele>
        <time>2026-03-06T21:29:59.000Z</time>
      </trkpt>
      <trkpt lat="43.38233" lon="-1.65687">
        <ele>4</ele>
        <time>2026-03-06T21:30:00.000Z</time>
      </trkpt>
      <trkpt lat="43.38234" lon="-1.65703">
        <ele>4</ele>
        <time>2026-03-06T21:30:02.000Z</time>
      </trkpt>
      <trkpt lat="43.38298" lon="-1.65877">
        <ele>4</ele>
        <time>2026-03-06T21:30:27.000Z</time>
      </trkpt>
      <trkpt lat="43.38307" lon="-1.65899">
        <ele>4</ele>
        <time>2026-03-06T21:30:31.000Z</time>
      </trkpt>
    </trkseg>
  </trk>
</gpx>